     2              OBSERVATION DATA    GPS                 RINEX VERSION / TYPE
ASRINEXO V2.4.4 UX USGS 24-FEB-96 17:12                     PGM / RUN BY / DATE
                                                            COMMENT
Contact: kwendt@isdmnl.wr.usgs.gov (Ph: 415-329-4866)       COMMENT
Contact: kwendt@isdmnl.wr.usgs.gov (Ph: 415-329-4866)       COMMENT
Contact: kwendt@isdmnl.wr.usgs.gov (Ph: 415-329-4866)       COMMENT
Contact: kwendt@isdmnl.wr.usgs.gov (Ph: 415-329-4866)       COMMENT
Contact: kwendt@isdmnl.wr.usgs.gov (Ph: 415-329-4866)       COMMENT
Contact: kwendt@isdmnl.wr.usgs.gov (Ph: 415-329-4866)       COMMENT
Original Marker Name: 1pdi 1_PDI_1986_USGS                  COMMENT
Campaign Name: USGS Yucca Profile                           COMMENT
4-Character Station Name: 1PDI                              COMMENT
6-Character Antenna Code: ASHP12                            COMMENT
Vertical Measurement Point: EGP                             COMMENT
Vertical Offset to Rinex Ref. Point: 0.0593                 COMMENT
Radial Measurement Point: EGP                               COMMENT
Radial Offset to Rinex Ref. Point: 0.1425                   COMMENT
Antenna Height from Field Measurement: 1.3180 m             COMMENT
Additional Antenna Identification Info.:                    COMMENT
Ashtech L1/L2 Revision B (700228DE)                         COMMENT
Original XYZ: -2257823.1200 -4596525.9600 3790648.1400      COMMENT
New XYZ position is based on association with SCEC monument COMMENT
E1G0H9Q6+0011. Position of that monument is believed to be  COMMENT
valid to within 1 m horizontally; vertical accuracy         COMMENT
should be no worse than 3-times this value.                 COMMENT
                                                            COMMENT
Revised Rinex header created by UCSD GPS archive for        COMMENT
GSAC on 08-Aug-2000 (2000:221) 00:36:05 GMT                 COMMENT
For assistance contact dagnew@ucsd.edu                      COMMENT
or anderson@python.ucsd.edu                                 COMMENT
                                                            COMMENT
1 PDI                                                       MARKER NAME
JMS US GEOLOGICAL SURVEY                                    OBSERVER / AGENCY
O4582 ASHTECH Z-XII3 1F00                                   REC # / TYPE / VERS
1068 ASHTECH GEODETIC P                                     ANT # / TYPE
 -2258194.7363 -4596712.5674  3790512.5940                  APPROX POSITION XYZ
        1.2510        0.0000        0.0000                  ANTENNA: DELTA H/E/N
     1     1     0                                          WAVELENGTH FACT L1/2
     5    C1    L1    L2    P1    P2                        # / TYPES OF OBSERV
    30                                                      INTERVAL
  1996     2    11    17    22    0.000000                  TIME OF FIRST OBS
  1996     2    11    23    59   60.000000                  TIME OF LAST OBS
                                                            END OF HEADER
 96  2 11 17 22  0.0000000  0  5 29 25 22 18 14
  18029809.768      -46164.67719    -14557.62459                  18029815.6864
  21825559.312       35011.93119
  18462755.951      -11958.54619     -3514.50359                  18462762.9384
  19646507.416      -81662.18319
  17799803.909        2161.57019
 96  2 11 17 22 30.0000000  0  7 19 29 25 22  4 18 14
  21298067.382     -148958.29019
  18016914.677     -113929.94459    -67361.73649  18016916.1904   18016920.6124
  21835320.687       86288.694 9     59314.41459                  21835326.2944
  18459608.457      -28498.21559    -16402.57649  18459610.3384   18459615.3834
  21898552.204      -16972.56119
  19624440.526     -197645.796 9
  17800228.674        4400.398 9
 96  2 11 17 23  0.0000000  0  5 29 25 22 18 14
  21001801.859     -182439.29949   -120745.65149  21001804.1194   21001808.1504
  24842806.500      136523.45159     98458.34149  24842802.8634   24842809.0394
  21454310.460      -45442.18549    -29605.68249  21454310.3444   21454316.1534
  22600128.288     -314499.915 9
  20798493.634        6183.381 9
 96  2 11 17 23 30.0000000  0  7 19 29 25 22  4 18 14
  24247820.370     -402183.47059   -283076.84759  24247809.3404   24247815.0734
  20988635.611     -251624.31459   -174656.05759  20988638.6264   20988642.6204
  24852192.847      185886.72859    136923.21059  24852197.6864   24852203.0324
  21451027.583      -62693.56859    -43048.32959  21451027.6794   21451033.3474
  24881976.517      -93169.95059    -67489.23959  24881981.1434   24881985.1134
  22577731.717     -432184.993 9    -37655.67059                  22577738.6964
  20798770.698        7633.925 9       663.17659                  20798776.3924
 96  2 11 17 24  0.0000000  0  7 19 29 25 22  4 18 14
  24223513.710     -529843.75459   -382552.39059  24223518.8704   24223523.8954
  20975363.179     -321376.61949   -229008.50849  20975365.1144   20975369.6064
  24861437.209      234446.57249    174761.98749  24861438.9814   24861444.9384
  21447701.153      -80168.87049    -56665.46549  21447702.6894   21447707.9444
  24874630.846     -131778.30859    -97573.70359  24874634.3884   24874639.9064
  22555204.119     -550571.24059   -129904.68649  22555205.8424   22555210.6014
  20799000.481        8851.42059      1611.84949  20799002.4904   20799008.0104
 96  2 11 17 24 30.0000000  0  7 19 29 25 22  4 18 14
  24199107.258     -658106.63349   -482497.48249  24199108.4894   24199115.5614
  20961992.454     -391639.51049   -283758.81349  20961994.4514   20961998.7354
  24870537.865      282257.94349    212017.56949  24870538.6154   24870541.6444
  21444348.302      -97790.46149    -70396.58949  21444349.2994   21444354.6684
  24867241.523     -170648.90149   -127862.53049  24867239.0024   24867242.3654
  22532556.880     -669590.14849   -222646.68849  22532557.1024   22532562.6794
  20799201.203        9904.19549      2432.17149  20799203.0434   20799208.4914
 96  2 11 17 25  0.0000000  0  6 19 29 22  4 18 14
  24174588.967     -786932.76749   -582881.49249  24174592.3004   24174601.8354
  20948532.499     -462373.42049   -338876.14949  20948534.3114   20948538.5044
  21440978.448     -115501.97749    -84197.77749  21440979.0934   21440984.2304
  24859793.452     -209746.64749   -158328.35949  24859798.1354   24859800.9334
  22509795.145     -789199.52949   -315848.78449  22509796.1594   22509801.2084
  20799378.949       10833.83049      3156.54249  20799380.1914   20799385.4154
 96  2 11 17 25 30.0000000  0  6 19 29 22  4 18 14
  24149977.321     -916284.89249   -683675.34049  24149979.8384   24149985.9174
  20934988.960     -533545.60549   -394335.00449  20934990.6254   20934995.0604
  21437599.835     -133258.11049    -98033.74549  21437600.2384   21437605.2974
  24852312.956     -249047.28349   -188952.26549  24852318.7364   24852323.9904
  22486928.269     -909369.75249   -409487.91949  22486928.4304   22486933.5404
  20799533.299       11650.92249      3793.20949  20799535.1514   20799540.5964
 96  2 11 17 26  0.0000000  0  6 19 29 22  4 18 14
  24125271.473    -1046117.01249   -784843.22649  24125273.7054   24125279.6454
  20921369.168     -605117.96449   -450105.67149  20921370.9854   20921375.2074
  21434220.310     -151016.55249   -111871.50049  21434221.1064   21434226.1474
  24844808.265     -288511.42249   -219703.57449  24844809.1914   24844814.4224
  22463959.583    -1030073.66249   -503542.90049  22463959.6584   22463964.6384
  20799671.667       12372.02749      4355.09149  20799672.8984   20799678.1894
 96  2 11 17 26 30.0000000  0  6 19 29 22  4 18 14
  24100483.427    -1176383.24849   -886349.37449  24100484.9024   24100491.4154
  20907678.420     -677065.69749   -506168.84649  20907679.8154   20907684.1014
  21430845.645     -168749.84649   -125689.67049  21430846.2464   21430851.5844
  24837282.417     -328091.01149   -250544.87849  24837278.2264   24837283.4294
  22440892.945    -1151282.37949   -597991.25049  22440894.5464   22440899.3724
  20799793.050       13010.52049      4852.58749  20799794.0454   20799799.8054
 96  2 11 17 27  0.0000000  0  6 19 29 22  4 18 14
  24075615.895    -1307056.54049   -988172.71849  24075618.2664   24075625.0064
  20893920.945     -749362.27449   -562503.84749  20893922.4054   20893926.6794
  21427478.594     -186442.87249   -139476.45049  21427479.4674   21427484.7914
  24829721.574     -367766.81949   -281461.12749  24829726.9004   24829732.9824
  22417736.473    -1272970.64449   -692813.26249  22417738.0484   22417743.4984
  20799902.867       13591.47049      5305.25349  20799904.5874   20799910.5164
 96  2 11 17 27 30.0000000  0  6 19 29 22  4 18 14
  24050677.763    -1438111.53649  -1090293.46149  24050678.7924   24050685.7894
  20880102.489     -821976.51449   -619086.38049  20880104.3384   20880108.6334
  21424121.002     -204086.17949   -153224.50349  21424121.5944   21424127.2534
  24822159.886     -407510.87049   -312430.53049  24822162.9974   24822170.3424
  22394495.153    -1395104.13849   -787982.21349  22394496.6314   22394501.5814
  20800008.525       14145.68149      5737.08349  20800010.3644   20800015.6164
 96  2 11 17 28  0.0000000  0  6 19 29 22  4 18 14
  24025669.821    -1569528.93949  -1192696.61449  24025672.0274   24025678.3024
  20866227.701     -894888.81149   -675901.16249  20866229.6144   20866234.0214
  21420774.070     -221675.54049   -166930.50949  21420774.9754   21420780.3444
  24814584.281     -447289.11649   -343426.62849  24814594.7044   24814599.8294
  22371178.706    -1517642.78949   -883466.85649  22371178.3924   22371183.0914
  20800113.416       14696.35849      6166.16649  20800115.1424   20800120.4264
 96  2 11 17 28 30.0000000  0  6 19 29 22  4 18 14
  24000593.075    -1701302.28849  -1295377.14049  24000595.8634   24000601.3254
  20852297.943     -968094.10149   -732944.24849  20852299.2194   20852303.4444
  21417437.590     -239209.05849   -180593.00149  21417438.2724   21417443.4454
  24807017.758     -487085.83749   -374437.08049  24807021.7194   24807027.3644
  22347786.555    -1640565.62349   -979250.87149  22347786.7874   22347791.9124
  20800221.518       15264.53049      6608.86949  20800223.3234   20800228.3674
 96  2 11 17 29  0.0000000  0  6 19 29 22  4 18 14
  23975451.882    -1833422.67949  -1398328.07949  23975454.6974   23975460.5854
  20838315.340    -1041571.74549   -790199.56149  20838316.9414   20838321.1004
  21414112.539     -256684.57149   -194210.29349  21414112.7664   21414118.1374
  24799436.888     -526896.57849   -405458.48549  24799444.4274   24799452.0324
  22324322.472    -1763865.40949  -1075328.62149  22324323.4924   22324328.7034
  20800334.875       15859.59049      7072.52849  20800336.2124   20800342.0474
 96  2 11 17 29 30.0000000  0  6 19 29 22  4 18 14
  23950250.707    -1965868.09849  -1501532.31049  23950250.9564   23950257.2324
  20824283.489    -1115307.88449   -847656.29949  20824285.5994   20824289.6664
  21410799.490     -274092.55649   -207774.96649  21410800.0374   21410805.3934
  24791871.566     -566701.89749   -436475.68949  24791872.3204   24791876.7684
  22300792.096    -1887520.14349  -1171682.94649  22300793.1704   22300798.2024
  20800455.935       16495.54149      7568.05149  20800457.6184   20800462.9024
 96  2 11 17 30  0.0000000  0  6 19 29 22  4 18 14
  23924986.099    -2098623.36549  -1604977.95049  23924988.0884   23924995.3694
  20810206.083    -1189286.24649   -905301.78349  20810207.8234   20810212.1514
  21407505.823     -291402.13049   -221262.94949  21407506.2434   21407511.3144
  24784299.502     -606495.47049   -467483.74249  24784298.9214   24784303.4284
  22277194.866    -2011527.33249  -1268311.91449  22277195.0474   22277199.9054
  20800587.825       17185.26549      8105.48049  20800589.1754   20800594.1584
 96  2 11 17 30 30.0000000  0  6 19 29 22  4 18 14
  23899667.417    -2231677.08349  -1708656.16049  23899669.2354   23899675.9764
  20796083.058    -1263503.23849   -963133.21149  20796084.5904   20796088.8694
  21404233.626     -308596.79549   -234661.39849  21404234.2554   21404239.5574
  24776726.969     -646283.46649   -498487.39649  24776728.7834   24776732.0864
  22253527.915    -2135893.45049  -1365220.56449  22253528.8864   22253534.0894
  20800732.473       17949.26349      8700.77449  20800734.2654   20800739.4724
 96  2 11 17 31  0.0000000  0  6 19 29 22  4 18 14
  23874300.203    -2364987.39549  -1812534.32249  23874301.4344   23874308.0494
  20781921.926    -1337919.64949  -1021120.02249  20781923.8664   20781928.2454
  21400991.732     -325634.45849   -247937.50649  21400992.2084   21400997.4594
  24769161.626     -686038.75949   -529465.60049  24769162.3814   24769167.9474
  22229800.804    -2260576.40349  -1462376.10749  22229802.5294   22229807.4874
  20800897.851       18815.40049      9375.66849  20800899.2934   20800904.6644
 96  2 11 17 31 30.0000000  0  6 19 29 22  4 18 14
  23848887.182    -2498526.58149  -1916590.82949  23848889.3324   23848895.9574
  20767731.314    -1412493.22549  -1079229.30649  20767732.9084   20767737.2744
  21397789.650     -342461.19349   -261049.25049  21397790.2384   21397795.4664
  24761603.851     -725733.85649   -560396.87049  24761608.9104   24761616.0184
  22206025.128    -2385527.85749  -1559740.87349  22206025.6074   22206030.2684
  20801090.871       19828.82649     10165.32349  20801092.1164   20801097.3944
 96  2 11 17 32  0.0000000  0  6 19 29 22  4 18 14
  23823435.951    -2632280.20849  -2020814.42449  23823437.1474   23823443.3504
  20753516.837    -1487191.72749  -1137435.93449  20753518.4174   20753522.4854
  21394633.896     -359048.90949   -273974.74749  21394633.9304   21394638.8464
  24754067.515     -765348.77349   -591265.71149  24754069.4354   24754077.1044
  22182200.879    -2510722.92849  -1657295.46449  22182201.3594   22182206.5294
  20801314.978       21006.93449     11083.30549  20801316.2584   20801321.2624
 96  2 11 17 32 30.0000000  0  6 19 29 22  4 18 14
  23797945.696    -2766223.26849  -2125185.65249  23797948.0004   23797955.0804
  20739282.845    -1561992.06949  -1195721.91749  20739284.3414   20739288.4204
  21391522.673     -375395.53949   -286712.38749  21391523.1924   21391528.1884
  24746550.673     -804851.82149   -622047.36549  24746553.4744   24746560.8684
  22158339.219    -2636117.43549  -1755005.46549  22158339.8984   22158344.3864
  20801573.273       22362.66449     12139.69949  20801574.1874   20801579.6024
 96  2 11 17 33  0.0000000  0  6 19 29 22  4 18 14
  23772424.207    -2900344.17449  -2229695.44749  23772426.3984   23772432.5224
  20725034.250    -1636868.79749  -1254067.41649  20725035.8914   20725039.8224
  21388459.320     -391492.31649   -299255.33549  21388459.9654   21388465.2964
  24739058.348     -844225.68249   -652728.34749  24739061.2654   24739067.2154
  22134443.115    -2761692.88449  -1852856.45349  22134443.5714   22134448.2104
  20801866.794       23903.93449     13340.66549  20801867.6424   20801872.8964
 96  2 11 17 33 30.0000000  0  6 19 29 22  4 18 14
  23746865.142    -3034663.08449  -2334359.54149  23746865.7204   23746872.1684
  20710770.885    -1711823.42049  -1312473.62249  20710772.4604   20710776.4374
  21385442.143     -407347.03849   -311609.67149  21385442.9054   21385448.4984
  24731593.695     -883468.38049   -683307.12049  24731591.9684   24731599.8194
  22110510.793    -2887461.45149  -1950857.92849  22110510.4844   22110515.5734
  20802194.292       25629.32749     14685.10849  20802196.0054   20802201.4504
 96  2 11 17 34  0.0000000  0  6 19 29 22  4 18 14
  23721265.469    -3169181.48449  -2439179.07249  23721268.2364   23721274.9244
  20696489.626    -1786873.09749  -1370953.89349  20696490.8474   20696495.1194
  21382467.066     -422983.69449   -323794.09149  21382467.5204   21382472.8504
  24724150.746     -922575.27149   -713780.06449  24724151.6264   24724157.2314
  22086536.062    -3013447.33749  -2049028.73849  22086536.0374   22086541.1064
  20802555.629       27526.52649     16163.42549  20802557.1464   20802562.3474
 96  2 11 17 34 30.0000000  0  6 19 29 22  4 18 14
  23695640.907    -3303850.77449  -2544116.19549  23695641.5674   23695648.0894
  20682195.385    -1861988.39049  -1429485.29449  20682197.0394   20682200.9804
  21379539.477     -438365.24249   -335779.71649  21379540.3274   21379545.8864
  24716739.178     -961512.89349   -744121.10749  24716742.1084   24716748.6324
  22062525.975    -3139621.92449  -2147346.58949  22062526.6434   22062530.6624
  20802957.943       29640.96449     17811.02149  20802959.4544   20802964.5414
 96  2 11 17 35  0.0000000  0  6 19 29 22  4 18 14
  23669986.280    -3438650.89749  -2649155.25449  23669990.1574   23669996.2614
  20667894.325    -1937142.28649  -1488046.77249  20667895.8104   20667899.9734
  21376666.929     -453461.61749   -347543.13749  21376667.7534   21376672.7904
  24709367.727    -1000278.16449   -774327.82449  24709365.5244   24709371.4664
  22038479.694    -3265984.64749  -2245811.04049  22038479.9154   22038484.8044
  20803406.636       31997.09049     19646.93849  20803407.9664   20803413.0724
 96  2 11 17 35 30.0000000  0  6 19 29 22  4 18 14
  23644313.997    -3573565.44349  -2754283.45949  23644316.2674   23644323.4394
  20653589.206    -2012314.78249  -1546622.74549  20653590.7084   20653594.9524
  21373850.546     -468263.00849   -359076.69849  21373851.2104   21373856.2774
  24702025.512    -1038861.72149   -804393.02049  24702022.2184   24702028.8814
  22014400.991    -3392517.31449  -2344407.91749  22014401.3954   22014406.4204
  20803901.830       34599.05249     21674.41649  20803903.2344   20803908.2894
 96  2 11 17 36  0.0000000  0  6 19 29 22  4 18 14
  23618625.267    -3708568.35349  -2859480.53849  23618625.9184   23618632.5554
  20639282.847    -2087498.46249  -1605207.43549  20639284.0074   20639288.0124
  21371089.732     -482770.44749   -370381.20349  21371090.1434   21371095.9344
  24694716.272    -1077264.28149   -834317.11349  24694714.8434   24694721.9414
  21990292.423    -3519206.24649  -2443126.55349  21990293.7014   21990298.3964
  20804443.943       37445.21549     23892.18249  20804444.7684   20804450.2244
 96  2 11 17 36 30.0000000  0  6 19 29 22  4 18 14
  23592920.578    -3843643.46449  -2964733.86949  23592922.4514   23592928.3714
  20624977.631    -2162670.74449  -1663783.24249  20624979.0594   20624983.1124
  21368389.150     -496963.14649   -381440.45949  21368389.6764   21368394.7454
  24687443.118    -1115472.73849   -864089.98549  24687443.8634   24687450.0864
  21966163.855    -3646010.41049  -2541934.97549  21966163.8994   21966168.4254
  20805032.173       40537.94049     26302.07749  20805033.5034   20805038.7684
 96  2 11 17 37  0.0000000  0  6 19 29 22  4 18 14
  23567204.372    -3978791.05749  -3070043.68649  23567204.9304   23567211.3474
  20610677.785    -2237817.43749  -1722339.11349  20610679.2254   20610683.2354
  21365749.819     -510832.83049   -392248.01749  21365750.1994   21365755.4754
  24680213.758    -1153465.27749   -893694.61749  24680215.2584   24680220.4444
  21942015.730    -3772906.71449  -2640815.21249  21942015.9804   21942020.4014
  20805665.276       43866.43549     28895.68749  20805666.8954   20805672.0784
 96  2 11 17 37 30.0000000  0  6 19 29 22  4 18 14
  23541471.933    -4114009.41649  -3175408.63549  23541473.3204   23541479.0464
  20596377.579    -2312966.38249  -1780896.73749  20596378.8424   20596382.7474
  21363170.584     -524389.46249   -402811.64149  21363170.5314   21363175.9604
  24673025.789    -1191239.31749   -923128.94649  24673025.3054   24673032.4514
  21917850.254    -3899897.41749  -2739769.00149  21917850.4604   21917855.3584
  20806341.320       47416.30549     31661.79949  20806342.2624   20806347.4834
 96  2 11 17 38  0.0000000  0  6 19 29 22  4 18 14
  23515729.180    -4249290.51649  -3280822.45649  23515729.4034   23515736.7264
  20582076.111    -2388120.44149  -1839458.34749  20582077.6944   20582081.6564
  21360651.694     -537625.81049   -413125.68849  21360651.9354   21360656.8874
  24665879.964    -1228789.34149   -952388.73149  24665881.1144   24665887.4464
  21893665.741    -4026990.54149  -2838802.59749  21893665.6384   21893670.4634
  20807062.197       51202.58849     34612.12349  20807062.9504   20807067.8654
 96  2 11 17 38 30.0000000  0  6 19 29 22  4 18 14
  23489976.720    -4384614.42649  -3386269.62949  23489978.8684   23489984.8724
  20567776.454    -2463265.77649  -1898013.15449  20567778.0954   20567781.9204
  21358197.815     -550520.05349   -423173.15849  21358198.0884   21358203.4094
  24658780.690    -1266094.22349   -981457.52749  24658781.9134   24658788.4714
  21869461.976    -4154174.57549  -2937907.03849  21869463.3684   21869467.9904
  20807833.450       55256.19649     37770.75649  20807834.3374   20807839.3064
 96  2 11 17 38 59.9990000  0  6 19 29 22  4 18 14
  23464224.501    -4519954.94149  -3491729.75449  23464224.2584   23464230.3554
  20553481.436    -2538389.51449  -1956551.14549  20553482.3344   20553486.3624
  21355810.219     -563066.38649   -432949.52549  21355810.7384   21355815.9564
  24651729.515    -1303145.34049  -1010328.56949  24651731.0674   24651738.2904
  21845244.213    -4281445.64749  -3037079.28949  21845243.7664   21845248.9474
  20808661.444       59608.50249     41162.13049  20808662.4654   20808667.5774
 96  2 11 17 39 29.9990000  0  6 19 29 22  4 18 14
  23438465.570    -4655320.15349  -3597209.12849  23438464.8504   23438471.2154
  20539189.303    -2613491.00549  -2015071.79649  20539191.0124   20539194.9984
  21353488.619     -575266.44449   -442456.07249  21353489.1154   21353494.3314
  24644722.897    -1339954.12049  -1039010.78249  24644726.9164   24644734.0094
  21821006.298    -4408813.81449  -3136327.20649  21821006.7754   21821011.6894
  20809549.224       64275.38649     44798.63949  20809550.5134   20809555.8444
 96  2 11 17 39 59.9990000  0  6 19 29 22  4 18 14
  23412694.237    -4790726.88749  -3702720.84349  23412697.9714   23412704.9284
  20524904.856    -2688558.60749  -2073566.04049  20524906.2314   20524910.2864
  21351233.521     -587119.71849   -451692.40449  21351233.6954   21351238.9124
  24637767.670    -1376515.66149  -1067500.35549  24637769.7604   24637777.0504
  21796754.355    -4536262.00749  -3235637.48249  21796754.2594   21796759.1694
  20810495.610       69245.82549     48671.67949  20810496.4074   20810501.7004
 96  2 11 17 40 29.9990000  0  6 19 29 22  4 18 14
  23386923.308    -4926163.97349  -3808256.21049  23386925.0014   23386931.5904
  20510628.222    -2763582.87549  -2132026.51649  20510629.6314   20510633.6814
  21349046.636     -598612.75549   -460648.02949  21349046.4614   21349051.5484
  24630863.553    -1412812.62249  -1095783.75349  24630862.5144   24630868.7714
  21772494.330    -4663748.87749  -3334977.89649  21772494.2674   21772499.3094
  20811499.689       74522.57549     52783.40449  20811500.4334   20811505.8124
 96  2 11 17 40 59.9990000  0  6 19 29 22  4 18 14
  23361143.358    -5061651.45549  -3913830.84249  23361143.1654   23361147.6124
  20496362.201    -2838551.50949  -2190443.64149  20496363.4674   20496367.5934
  21346929.227     -609741.22349   -469319.56849  21346929.0224   21346933.8644
  24624001.722    -1448850.82149  -1123865.51149  24624004.2714   24624009.9414
  21748228.997    -4791264.91249  -3434341.03849  21748228.9624   21748233.6724
  20812558.200       80086.42249     57118.84149  20812559.3954   20812565.0524
 96  2 11 17 41 29.9990000  0  6 19 29 22  4 18 14
  23335349.661    -5197184.84349  -4019441.24349  23335352.1184   23335357.7584
  20482111.127    -2913440.51949  -2248798.71849  20482112.5184   20482116.6114
  21344884.919     -620480.77849   -477688.05949  21344885.5314   21344890.4864
  24617197.148    -1484619.55249  -1151737.30949  24617197.9294   24617204.2594
  21723960.762    -4918792.00349  -3533712.79749  21723961.3724   21723966.1764
  20813671.704       85936.39749     61677.23849  20813672.4904   20813678.1084
 96  2 11 17 41 59.9990000  0  6 19 29 22  4 18 14
  23309550.100    -5332764.75949  -4125087.91149  23309551.5454   23309557.4004
  20467874.709    -2988252.38949  -2307093.68949  20467876.2324   20467880.2934
  21342910.647     -630853.38749   -485770.62649  21342911.1104   21342916.7124
  24610436.443    -1520136.10349  -1179412.60749  24610439.9044   24610445.6504
  21699689.401    -5046340.47349  -3633101.21149  21699689.6394   21699694.4554
  20814838.712       92067.08749     66454.37149  20814839.2354   20814844.9794
 96  2 11 17 42 29.9990000  0  6 19 29 22  4 18 14
  23283744.786    -5468378.57849  -4230760.98049  23283745.0114   23283751.8674
  20453657.305    -3062967.37049  -2365313.15749  20453658.6474   20453662.7284
  21341006.391     -640864.60349   -493571.57749  21341006.1604   21341011.6134
  24603724.337    -1555420.24349  -1206906.78349  24603724.0864   24603733.6744
  21675411.345    -5173922.77349  -3732515.98249  21675411.3844   21675416.3514
  20816062.801       98504.98149     71470.88649  20816064.2184   20816069.8084
 96  2 11 17 42 59.9990000  0  6 19 29 22  4 18 14
  23257930.979    -5604027.36849  -4336461.30949  23257932.1794   23257938.5464
  20439459.367    -3137577.76849  -2423451.13649  20439460.7264   20439464.9584
  21339168.499     -650521.61749   -501096.53549  21339168.8004   21339174.1264
  24597051.710    -1590484.93149  -1234229.96349  24597052.4234   24597059.2944
  21651122.066    -5301565.30949  -3831977.69449  21651122.0034   21651126.3064
  20817348.443      105257.26549     76732.38049  20817349.2674   20817354.6794
 96  2 11 17 43 29.9990000  0  6 19 29 22  4 18 14
  23232121.314    -5739652.40449  -4442143.12849  23232123.1064   23232128.5454
  20425286.464    -3212058.79949  -2481488.30649  20425287.6674   20425291.7134
  21337401.989     -659804.91449   -508330.28549  21337402.4464   21337407.5424
  24590425.553    -1625302.04649  -1261360.24849  24590428.0544   24590432.3694
  21626826.276    -5429239.86849  -3931464.36549  21626826.3124   21626830.8554
  20818701.178      112364.28949     82270.29249  20818701.9714   20818707.3654
 96  2 11 17 43 59.9990000  0  6 19 29 22  4 18 14
  23206319.652    -5875243.65849  -4547798.61649  23206321.8214   23206326.8334
  20411136.601    -3286417.37349  -2539430.05749  20411137.6934   20411141.8804
  21335703.295     -668729.29149   -515284.36049  21335704.1174   21335709.1644
  24583848.749    -1659874.93049  -1288300.22249  24583848.5954   24583855.2144
  21602524.426    -5556946.00749  -4030975.63949  21602524.7744   21602529.2614
  20820122.464      119834.33849     88091.08549  20820123.4794   20820128.5844
 96  2 11 17 44 29.9990000  0  6 19 29 22  4 18 14
  23180526.302    -6010796.27649  -4653424.00249  23180526.4214   23180532.6044
  20397009.123    -3360654.84749  -2597277.44449  20397010.5824   20397014.8204
  21334078.134     -677271.74749   -521940.83649  21334078.4204   21334083.8984
  24577314.572    -1694193.71749  -1315042.19449  24577318.3744   24577323.4144
  21578220.026    -5684671.24649  -4130501.80349  21578219.7474   21578224.5224
  20821611.963      127661.17049     94189.88849  20821612.9344   20821618.0204
 96  2 11 17 44 59.9990000  0  6 19 29 22  4 18 14
  23154739.610    -6146299.05449  -4759010.56049  23154741.3774   23154748.4604
  20382904.561    -3434775.77749  -2655034.01649  20382905.7454   20382909.8974
  21332526.231     -685428.20449   -528296.53749  21332526.4764   21332531.3894
  24570836.444    -1728240.02949  -1341571.84549  24570839.2664   24570844.6694
  21553912.767    -5812400.19449  -4230030.85349  21553913.0144   21553917.7544
  20823164.656      135820.87149    100548.06949  20823165.6004   20823170.7194
 96  2 11 17 45 29.9990000  0  6 19 29 22  4 18 14
  23128963.431    -6281760.92149  -4864565.23649  23128964.2584   23128970.9674
  20368822.606    -3508777.65549  -2712697.81749  20368823.8694   20368827.9444
  21331045.728     -693209.03449   -534359.53549  21331045.8324   21331051.0994
  24564410.338    -1762013.85149  -1367889.12949  24564414.0894   24564419.1614
  21529607.983    -5940122.93949  -4329555.06749  21529608.2574   21529613.3514
  20824779.104      144304.21749    107158.45049  20824779.8224   20824785.1104
 96  2 11 17 45 59.9990000  0  6 19 29 22  4 18 14
  23103187.070    -6417207.38849  -4970107.89449  23103189.0414   23103195.9664
  20354764.787    -3582650.40649  -2770261.01149  20354766.1354   20354770.4944
  21329635.669     -700616.29049   -540131.44049  21329636.4804   21329641.6904
  24558037.168    -1795504.45049  -1393985.74249  24558038.1014   24558043.4074
  21505305.274    -6067836.73649  -4429072.31349  21505305.5444   21505309.9694
  20826454.246      153108.20649    114018.67449  20826455.1064   20826460.4944
 96  2 11 17 46 29.9990000  0  6 19 29 22  4 18 14
  23077412.852    -6552648.51349  -5075646.39749  23077415.9294   23077421.4314
  20340731.433    -3656398.13349  -2827726.77549  20340732.3474   20340736.5284
  21328297.704     -707651.80449   -545613.68449  21328297.4164   21328302.8144
  24551720.157    -1828710.59949  -1419860.72149  24551721.3764   24551727.0604
  21481003.709    -6195545.08749  -4528585.30949  21481003.1364   21481008.2074
  20828186.867      162212.42849    121112.84449  20828187.7774   20828193.0504
 96  2 11 17 46 59.9990000  0  6 19 29 22  4 18 14
  23051639.084    -6688100.29649  -5181193.20049  23051639.0234   23051646.6994
  20326719.365    -3730031.39649  -2885103.35449  20326720.6884   20326724.8254
  21327024.470     -714340.98049   -550826.04849  21327024.7814   21327030.1284
  24545455.620    -1861634.75549  -1445515.95149  24545456.2174   24545462.0244
  21456701.173    -6323251.68849  -4628096.93949  21456701.4204   21456706.2794
  20829975.842      171611.26749    128436.59049  20829976.3114   20829981.4484
 96  2 11 17 47 29.9990000  0  6 19 29 22  4 18 14
  23025860.592    -6823557.92249  -5286744.56249  23025863.2474   23025869.8994
  20312730.818    -3803542.84349  -2942385.00749  20312732.1904   20312736.3394
  21325820.405     -720668.83749   -555756.87049  21325820.5724   21325825.7984
  24539243.416    -1894268.29349  -1470944.75549  24539245.2764   24539250.5354
  21432400.979    -6450946.50149  -4727599.38849  21432402.1324   21432406.5054
  20831823.418      181320.86849    136002.48649  20831824.2524   20831829.2554
 96  2 11 17 47 59.9990000  0  6 19 29 22  4 18 14
  23000086.219    -6959019.37449  -5392298.89549  23000086.1874   23000092.1754
  20298761.689    -3876951.72549  -2999586.74049  20298762.7314   20298766.8394
  21324686.360     -726628.32049   -560400.65049  21324686.3784   21324691.6334
  24533090.874    -1926625.89549  -1496158.52149  24533089.7584   24533094.2884
  21408102.367    -6578639.76249  -4827100.63149  21408102.9644   21408107.8444
  20833725.920      191319.04549    143793.24249  20833726.5304   20833732.0734
 96  2 11 17 48 29.9990000  0  6 19 29 22  4 18 14
  22974308.554    -7094474.50449  -5497848.31449  22974309.1344   22974316.3144
  20284809.239    -3950272.09149  -3056719.48749  20284810.4974   20284814.6314
  21323623.157     -732214.55349   -564753.57649  21323623.5254   21323628.5044
  24526980.962    -1958714.46549  -1521162.65249  24526982.5354   24526987.8184
  21383804.472    -6706327.12049  -4926597.26249  21383805.0134   21383809.6444
  20835683.458      201605.05949    151808.29349  20835684.2294   20835689.3544
 96  2 11 17 48 59.9990000  0  6 19 29 22  4 18 14
  22948536.566    -7229909.99349  -5603382.41849  22948536.3594   22948543.1294
  20270877.357    -4023483.69649  -3113767.49749  20270878.5794   20270882.8124
  21322632.651     -737419.40149   -568809.32549  21322633.1024   21322638.0344
  24520925.223    -1990525.47849  -1545950.51549  24520929.1854   24520934.4044
  21359509.422    -6833997.96149  -5026081.03749  21359509.8694   21359514.3274
  20837696.993      212191.39749    160057.36049  20837698.3284   20837703.6114
 96  2 11 17 49 29.9990000  0  6 19 29 22  4 18 14
  22922771.228    -7365296.29749  -5708878.19649  22922773.6544   22922780.3594
  20256972.655    -4096554.14649  -3170705.51249  20256973.7924   20256977.7974
  21321718.618     -742223.49149   -572552.78649  21321718.7854   21321723.9674
  24514927.040    -2022051.55249  -1570516.29449  24514928.9524   24514935.8494
  21335218.694    -6961644.37649  -5125545.77249  21335219.6954   21335224.4274
  20839773.330      223096.17849    168554.56549  20839773.7454   20839778.8934
 96  2 11 17 49 59.9990000  0  6 19 29 22  4 18 14
  22897018.292    -7500635.01749  -5814336.91849  22897020.4104   22897025.0204
  20243096.650    -4169473.18349  -3227525.54949  20243098.1234   20243102.1594
  21320875.879     -746650.88749   -576002.72049  21320876.5504   21320881.2154
  24508974.961    -2053296.12449  -1594862.81449  24508982.7704   24508989.8794
  21310935.778    -7089258.34649  -5224985.22849  21310935.6034   21310940.6034
  20841910.783      234331.13149    177309.04749  20841911.9564   20841916.8794
 96  2 11 17 50 29.9990000  0  6 19 29 22  4 18 14
  22871275.245    -7635912.47849  -5919747.87249  22871276.9884   22871283.4194
  20229254.221    -4242214.61349  -3284207.18849  20229255.4834   20229259.7004
  21320105.303     -750702.92349   -579160.17249  21320105.4564   21320110.5654
  24503097.008    -2084236.76049  -1618972.46349  24503097.1674   24503101.1014
  21286662.153    -7216816.80649  -5324381.42449  21286662.0804   21286666.7694
  20844117.146      245921.38649    186340.39249  20844117.3184   20844122.7144
 96  2 11 17 50 59.9990000  0  6 19 29 22  4 18 14
  22845545.947    -7771120.73549  -6025104.93049  22845547.1044   22845553.7514
  20215451.868    -4314748.65049  -3340727.22349  20215453.0254   20215457.1164
  21319405.595     -754378.31849   -582024.13549  21319405.8314   21319410.8714
  24497266.230    -2114875.80349  -1642847.05949  24497267.2794   24497271.0354
  21262400.979    -7344308.05049  -5423725.24849  21262401.2224   21262405.7704
  20846390.557      257870.96749    195651.72549  20846391.2054   20846396.4514
 96  2 11 17 51 29.9990000  0  6 19 29 22  4 18 14
  22819828.209    -7906267.11249  -6130413.76249  22819829.2214   22819835.7754
  20201686.403    -4387085.65749  -3397093.72649  20201687.8234   20201691.7594
  21318775.724     -757689.85549   -584604.56849  21318776.0254   21318780.8824
  24491488.942    -2145226.77549  -1666497.21049  24491490.3224   24491493.7874
  21238153.479    -7471728.71049  -5523014.07149  21238153.8484   21238158.4224
  20848732.027      270175.02449    205239.28049  20848732.5424   20848738.0094
 96  2 11 17 51 59.9990000  0  6 19 29 22  4 18 14
  22794123.699    -8041352.01149  -6235674.68149  22794124.2294   22794131.2184
  20187957.456    -4459232.50449  -3453312.05549  20187958.5644   20187962.5104
  21318216.870     -760625.19449   -586891.86849  21318217.2244   21318222.0504
  24485771.340    -2175281.50949  -1689916.51249  24485771.0844   24485775.9754
  21213923.255    -7599057.99749  -5622231.69449  21213924.0454   21213928.4354
  20851139.090      282828.95149    215099.45349  20851140.2644   20851145.7464
 96  2 11 17 52 29.9980000  0  5 19 29 22 18 14
  22768428.597    -8176374.96249  -6340887.34649  22768429.8704   22768436.9264
  20174262.231    -4531200.83949  -3509391.28249  20174263.5604   20174267.6904
  21317732.939     -763166.94249   -588872.47149  21317733.2514   21317738.5574
  21189707.649    -7726313.34649  -5721391.70449  21189708.1034   21189712.6544
  20853607.277      295798.88549    225205.87049  20853608.4144   20853614.4294
 96  2 11 17 52 59.9980000  0  5 19 29 22 18 14
  22742744.125    -8311348.68849  -6446061.65449  22742745.4914   22742751.4574
  20160597.050    -4603010.10949  -3565346.56249  20160598.6234   20160602.8204
  21317323.931     -765319.98849   -590550.18649  21317324.0584   21317328.3574
  21165502.288    -7853513.66349  -5820508.82749  21165502.4544   21165507.1194
  20856134.503      309079.27649    235554.20449  20856135.8324   20856141.2614
 96  2 11 17 53 29.9980000  0  5 19 29 22 18 14
  22717069.579    -8446278.14149  -6551201.46149  22717069.7624   22717075.8824
  20146958.988    -4674684.45849  -3621196.70949  20146959.3254   20146963.4824
  21316986.535     -767093.64949   -591932.27549  21316986.6614   21316991.3934
  21141304.363    -7980673.79649  -5919594.64349  21141304.6514   21141309.6044
  20858719.154      322656.25149    246133.63649  20858719.5334   20858725.1684
 96  2 11 17 53 59.9980000  0  5 19 29 22 18 14
  22691400.868    -8581157.47649  -6656302.21049  22691402.8194   22691408.6114
  20133346.379    -4746213.71149  -3676933.79749  20133347.7714   20133351.9124
  21316724.616     -768471.39049   -593005.85649  21316724.1614   21316728.9064
  21117113.085    -8107801.07549  -6018654.86249  21117113.3764   21117117.7904
  20861359.723      336533.71149    256947.21249  20861360.5324   20861365.8824
 96  2 11 17 54 29.9980000  0  5 19 29 22 18 14
  22665745.625    -8715985.60749  -6761363.06549  22665745.6334   22665751.8094
  20119763.749    -4817591.39349  -3732552.77249  20119765.0584   20119769.2234
  21316537.420     -769451.31249   -593769.45649  21316537.4994   21316542.9364
  21092925.677    -8234904.12349  -6117696.19149  21092926.1464   21092931.0354
  20864059.448      350718.26349    268000.08549  20864059.7924   20864065.0914
 96  2 11 17 54 59.9980000  0  5 19 29 22 18 14
  22640098.408    -8850750.84749  -6866374.90649  22640099.3884   22640107.0494
  20106211.990    -4888809.68649  -3788047.55549  20106212.7894   20106216.8734
  21316425.147     -770041.46949   -594229.34149  21316425.3424   21316430.7434
  21068748.517    -8361960.77049  -6216701.36749  21068748.2424   21068753.1354
  20866822.394      365237.89449    279314.05049  20866822.9044   20866828.3694
 96  2 11 17 55 29.9980000  0  5 19 29 22 18 14
  22614466.742    -8985445.48649  -6971331.75149  22614469.0914   22614475.6074
  20092690.706    -4959863.24249  -3843413.96749  20092691.7894   20092695.9204
  21316389.744     -770234.07149   -594379.45349  21316388.8984   21316393.9954
  21044580.772    -8488965.28449  -6315665.92049  21044580.1994   21044584.4794
  20869648.015      380090.03449    290887.12249  20869649.0784   20869654.6704
 96  2 11 17 55 59.9980000  0  5 19 29 22 18 14
  22588852.568    -9120058.91449  -7076225.30349  22588852.7694   22588858.6524
  20079202.004    -5030745.92149  -3898647.22949  20079203.1904   20079207.3344
  21316427.113     -770031.86249   -594221.89449  21316427.3044   21316432.4534
  21020424.077    -8615904.11649  -6414579.29849  21020424.5744   21020429.2544
  20872536.977      395270.51149    302716.03049  20872537.7214   20872543.2594
 96  2 11 17 56 29.9980000  0  5 19 29 22 18 14
  22563253.895    -9254571.98949  -7181040.67749  22563256.3924   22563262.5294
  20065749.237    -5101442.46149  -3953735.45149  20065750.1434   20065754.1634
  21316539.900     -769440.68249   -593761.26449  21316539.8954   21316544.8204
  20996289.264    -8742735.49249  -6513408.94049  20996289.0574   20996293.8874
  20875490.118      410788.45249    314807.91149  20875490.8394   20875496.1904
 96  2 11 17 56 59.9980000  0  5 19 29 22 18 14
  22537673.233    -9389004.32549  -7285793.11749  22537674.6574   22537680.1024
  20052330.704    -5171956.29349  -4008681.30349  20052331.7854   20052335.7714
  21316717.910     -768498.49849   -593027.11049  21316719.1104   21316724.4404
  20972174.594    -8869459.27449  -6612154.73749  20972174.2924   20972179.1264
  20878501.387      426615.13249    327140.36349  20878502.3914   20878507.7654
 96  2 11 17 57 29.9980000  0  5 19 29 22 18 14
  22512106.431    -9523358.74149  -7390484.85049  22512108.2174   22512114.0984
  20038953.834    -5242251.86349  -4063457.07849  20038955.0034   20038958.9804
  21316968.788     -767186.47849   -592004.77949  21316968.6924   21316973.8884
  20948083.339    -8996058.34149  -6710803.35749  20948083.7394   20948088.2044
  20881571.959      442751.27349    339713.95149  20881573.1304   20881578.5414
 96  2 11 17 57 59.9980000  0  5 19 29 22 18 14
  22486551.590    -9657650.52649  -7495127.78449  22486552.5584   22486558.3264
  20025619.969    -5312320.64749  -4118056.14349  20025621.3914   20025625.3674
  21317287.870     -765509.68349   -590698.20349  21317287.8454   21317292.5294
  20924016.453    -9122529.15949  -6809352.05049  20924016.7734   20924021.8564
  20884699.797      459187.24149    352521.17349  20884700.8674   20884705.8054
 96  2 11 17 58 29.9980000  0  5 19 29 22 18 14
  22461007.238    -9791891.13549  -7599730.83549  22461008.1624   22461013.1804
  20012330.662    -5382158.26749  -4172475.07349  20012331.5514   20012335.7054
  21317676.997     -763465.61049   -589105.43249  21317676.7884   21317682.1754
  20899972.104    -9248883.32649  -6907809.83849  20899972.5824   20899977.1394
  20887887.381      475936.65549    365572.63949  20887888.3784   20887894.0024
 96  2 11 17 58 59.9980000  0  6 19 29 22 18 28 14
  22435473.289    -9926069.45849  -7704285.34649  22435474.4644   22435480.1954
  19999085.159    -5451762.71849  -4226712.32049  19999086.1564   19999090.3134
  21318140.283     -761035.23549   -587211.65949  21318139.8304   21318144.3174
  20875947.249    -9375136.85449  -7006189.21249  20875947.3804   20875952.0194
  24299648.570    -7642691.61819  -5934687.77219  24299647.252    24299654.628
  20891137.520      493014.52149    378880.03549  20891138.0644   20891143.6424
 96  2 11 17 59 29.9980000  0  6 19 29 22 18 28 14
  22409956.143   -10060164.39049  -7808774.87649  22409956.8444   22409962.9254
  19985882.120    -5521146.13849  -4280777.32449  19985883.1174   19985887.1074
  21318675.964     -758210.93949   -585010.92449  21318676.8524   21318682.2094
  20851938.553    -9501301.61049  -7104499.40649  20851939.1264   20851943.5144
  24273789.814    -7778575.879 9  -6040571.543 9  24273789.867    24273796.709
  20894452.309      510434.00149    392453.63049  20894453.3554   20894458.8284
 96  2 11 17 59 59.9980000  0  6 19 29 22 18 28 14
  22384457.844   -10194159.48249  -7913186.60349  22384458.2484   22384464.3434
  19972717.787    -5590325.00449  -4334682.93849  19972718.8404   19972723.0204
  21319287.793     -755004.69149   -582512.56849  21319287.0914   21319292.6364
  20827946.988    -9627380.28549  -7202742.52249  20827946.8704   20827951.6154
  24247927.460    -7914469.994 9  -6146463.007 9  24247931.056    24247936.398
  20897833.064      528203.83249    406300.22449  20897834.4964   20897840.2884
 96  2 11 18  0 29.9980000  0  6 19 29 22 18 28 14
  22358979.236   -10328051.97549  -8017518.39449  22358979.0684   22358985.6724
  19959589.898    -5659313.33149  -4388440.08449  19959590.8864   19959594.8434
  21319966.225     -751431.22549   -579728.06949  21319967.1864   21319971.9414
  20803969.984    -9753379.59749  -7300923.80449  20803969.9204   20803974.9094
  24222069.174    -8050376.146 9  -6252363.866 9  24222067.579    24222073.900
  20901279.800      546312.44849    420410.80349  20901280.3244   20901285.9574
 96  2 11 18  0 59.9980000  0  6 19 29 22 18 28 14
  22333518.108   -10461845.31249  -8121772.92149  22333519.2184   22333525.2754
  19946497.580    -5728114.03549  -4442051.02749  19946498.6084   19946502.4204
  21320714.883     -747499.16649   -576664.14449  21320715.5274   21320720.4904
  20780011.028    -9879282.83149  -7399030.22449  20780011.4534   20780015.9314
  24196201.623    -8186291.159 9  -6358271.590 9  24196205.093    24196208.580
  20904786.186      564742.75349    434772.05249  20904787.4504   20904792.9154
 96  2 11 18  1 29.9980000  0  6 19 29 22 18 28 14
  22308074.599   -10595558.83049  -8225965.24849  22308074.6124   22308081.2664
  19933443.364    -5796714.36949  -4495505.83649  19933444.3694   19933448.2824
  21321531.879     -743210.67849   -573322.49049  21321531.2494   21321536.4544
  20756071.404   -10005086.63249  -7497059.15749  20756071.6694   20756076.5424
  24170341.025    -8322209.548 9  -6464181.922 9  24170339.336    24170346.189
  20908352.233      583479.11749    449371.79049  20908353.0574   20908358.4634
 96  2 11 18  1 59.9980000  0  6 19 29 22 18 28 14
  22282640.146   -10729206.72449  -8330106.43049  22282642.5444   22282648.6804
  19920427.323    -5865114.09749  -4548804.33149  19920428.3464   19920432.4854
  21322416.222     -738561.02449   -569699.39549  21322416.2824   21322421.2394
  20732151.205   -10130787.69349  -7595008.03849  20732151.7014   20732156.3474
  24144474.494    -8458131.624 9  -6570095.150 9  24144474.913    24144480.618
  20911973.263      602508.76549    464200.05549  20911973.7354   20911979.6664
 96  2 11 18  2 29.9980000  0  6 19 29 22 18 28 14
  22257224.364   -10862771.39549  -8434182.76149  22257226.3094   22257231.7994
  19907452.511    -5933297.82649  -4601934.51549  19907453.5314   19907457.3424
  21323372.827     -733533.33049   -565781.73049  21323373.2564   21323377.9224
  20708253.791   -10256373.31249  -7692866.96349  20708253.5784   20708258.1794
  24118614.672    -8594041.425 9  -6675998.841 9  24118612.568    24118616.329
  20915649.133      621831.93949    479257.05249  20915651.0224   20915656.6754
 96  2 11 18  2 59.9980000  0  6 19 29 22 18 28 14
  22231820.017   -10996266.30449  -8538204.74249  22231822.8584   22231828.3784
  19894518.903    -6001261.71249  -4654893.39549  19894520.3654   19894524.3514
  21324400.156     -728137.21149   -561576.98149  21324400.2734   21324405.0674
  20684374.599   -10381854.57349  -7790644.56549  20684375.0594   20684380.0074
  24092750.911    -8729944.522 9  -6781897.304 9  24092750.487    24092756.218
  20919384.498      641457.14249    494549.39149  20919385.7994   20919391.1924
 96  2 11 18  3 29.9980000  0  6 19 29 22 18 28 14
  22206434.996   -11129677.01449  -8642161.09849  22206434.6964   22206442.1504
  19881628.795    -6069001.15749  -4707677.38949  19881629.9174   19881634.0114
  21325497.234     -722370.13749   -557083.18649  21325497.4134   21325502.2694
  20660516.538   -10507230.59549  -7888340.16849  20660517.1364   20660521.8504
  24066891.871    -8865837.086 9  -6887787.548 9  24066891.013    24066897.214
  20923177.789      661382.82449    510075.87349  20923177.9204   20923183.3764
 96  2 11 18  3 59.9980000  0  6 19 29 22 18 28 14
  22181067.978   -11262979.97449  -8746033.50749  22181069.1884   22181075.0584
  19868780.895    -6136517.27649  -4760287.35549  19868782.1374   19868786.0614
  21326666.518     -716227.52949   -552296.76549  21326666.2294   21326671.3874
  20636683.647   -10632476.24749  -7985934.17949  20636683.5684   20636688.0164
  24041038.728    -9001704.661 9  -6993658.321 9  24041035.389    24041041.682
  20927027.176      681618.49749    525843.91449  20927028.6694   20927033.9024
 96  2 11 18  4 29.9980000  0  6 19 29 22 18 28 14
  22155719.520   -11396189.55349  -8849833.14649  22155719.7074   22155725.4514
  19855977.086    -6203802.75749  -4812717.61349  19855978.2134   19855982.0134
  21327903.502     -709725.12949   -547229.98549  21327904.0114   21327908.8404
  20612875.513   -10757586.42049  -8083422.62749  20612875.7724   20612880.4614
  24015185.480    -9137546.908 9  -7099509.346 9  24015186.063    24015192.573
  20930936.300      702159.24349    541849.66349  20930937.4274   20930942.8194
 96  2 11 18  4 59.9980000  0  6 19 29 22 18 28 14
  22130384.412   -11529327.07249  -8953576.61849  22130384.5484   22130390.1314
  19843216.176    -6270859.01849  -4864969.25349  19843217.6984   19843221.6834
  21329207.067     -702878.75249   -541895.16749  21329206.9804   21329211.5914
  20589093.204   -10882562.02049  -8180806.21149  20589094.0354   20589098.4254
  23989339.568    -9273367.202 9  -7205343.296 9  23989340.785    23989346.820
  20934901.864      722994.89149    558085.20849  20934902.5984   20934908.0624
 96  2 11 18  5 29.9970000  0  6 19 29 22 18 28 14
  22105062.497   -11662383.99449  -9057257.30949  22105064.4744   22105070.7574
  19830498.084    -6337696.46149  -4917050.39049  19830499.0104   19830502.8634
  21330573.016     -695695.54049   -536297.88649  21330573.3714   21330578.5834
  20565338.582   -11007392.52749  -8278076.74049  20565339.5344   20565343.9154
  23963502.397    -9409158.782 9  -7311154.889 9  23963500.525    23963507.099
  20938918.671      744105.11949    574534.71149  20938919.3934   20938924.8164
 96  2 11 18  5 59.9970000  0  6 19 29 22 18 28 14
  22079755.974   -11795373.20749  -9160885.23249  22079757.6024   22079764.3754
  19817821.361    -6404311.43349  -4968958.17049  19817822.7114   19817826.5084
  21332005.202     -688170.29649   -530434.08449  21332005.3884   21332010.7544
  20541610.878   -11132087.47449  -8375241.63149  20541610.6874   20541615.3334
  23937662.250    -9544927.405 9  -7416948.595 9  23937664.915    23937670.682
  20942990.627      765501.71349    591207.36149  20942991.0454   20942996.3434
 96  2 11 18  6 29.9970000  0  6 19 29 22 18 28 14
  22054466.023   -11928276.57149  -9264446.27049  22054466.7644   22054473.3974
  19805191.126    -6470684.95749  -5020677.81649  19805192.2994   19805196.0804
  21333502.110     -680306.30249   -524306.32349  21333501.8984   21333507.6324
  20517908.843   -11256640.06149  -8472295.59549  20517909.2584   20517914.1454
  23911834.034    -9680657.658 9  -7522712.421 9  23911834.909    23911842.742
  20947117.884      787193.11849    608109.72449  20947118.9104   20947124.1944
 96  2 11 18  6 59.9970000  0  6 19 29 22 18 28 14
  22029194.344   -12061076.01049  -9367926.31849  22029196.0364   22029202.0284
  19792606.189    -6536820.07749  -5072211.68149  19792607.0694   19792611.0544
  21335063.423     -672100.97849   -517912.58449  21335063.7614   21335069.0334
  20494233.593   -11381055.67749  -8569242.82649  20494233.8284   20494238.2674
  23886012.213    -9816344.048 9  -7628442.096 9  23886015.463    23886020.332
  20951300.607      809175.23149    625238.62049  20951301.6474   20951307.1334
 96  2 11 18  7 29.9970000  0  6 19 29 22 18 28 14
  22003943.660   -12193771.65849  -9471325.50749  22003944.9974   22003950.2104
  19780063.885    -6602729.51849  -5123569.69649  19780065.1594   19780068.9564
  21336689.176     -663557.08549   -511255.03449  21336689.3054   21336694.8684
  20470583.800   -11505336.11149  -8666084.72649  20470584.2264   20470588.6184
  23860204.764    -9951988.123 9  -7734138.746 9  23860202.919    23860209.744
  20955538.863      831444.11049    642590.96249  20955539.4484   20955544.7624
 96  2 11 18  7 59.9970000  0  6 19 29 22 18 28 14
  21978711.653   -12326364.29949  -9574644.42149  21978713.0054   21978718.0654
  19767567.118    -6668401.71549  -5174742.84649  19767568.1304   19767571.9334
  21338380.581     -654672.89349   -504332.30949  21338380.0234   21338385.4954
  20446959.610   -11629480.59949  -8762820.68649  20446960.0364   20446964.6154
  23834400.984   -10087584.975 9  -7839798.622 9  23834400.411    23834405.340
  20959830.182      853998.53549    660165.81149  20959831.5574   20959836.9844
 96  2 11 18  8 29.9970000  0  6 19 29 22 18 28 14
  21953498.184   -12458864.68049  -9677891.45249  21953498.8674   21953505.3614
  19755114.163    -6733838.97349  -5225732.93449  19755115.3684   19755119.4794
  21340133.378     -645458.20249   -497152.05749  21340133.6474   21340139.0024
  20423361.817   -11753486.11549  -8859448.36549  20423362.6554   20423367.2294
  23808604.537   -10223131.854 9  -7945419.543 9  23808606.652    23808612.587
  20964174.870      876823.83549    677951.72549  20964175.4194   20964180.7874
 96  2 11 18  8 59.9970000  0  6 19 29 22 18 28 14
  21928301.507   -12591276.28049  -9781069.29749  21928302.4664   21928307.6154
  19742707.071    -6799039.99249  -5276538.93149  19742708.3054   19742712.3034
  21341953.490     -635892.87549   -489698.58249  21341953.3814   21341959.0914
  20399792.577   -11877344.50149  -8955961.38949  20399792.9834   20399797.5994
  23782821.032   -10358622.008 9  -8050996.299 9  23782823.016    23782828.091
  20968569.865      899922.72349    695950.83449  20968570.6084   20968576.4894
 96  2 11 18  9 29.9970000  0  6 19 29 22 18 28 14
  21903118.813   -12723612.35149  -9884188.28449  21903119.5124   21903125.1064
  19730345.595    -6864001.85949  -5327158.57749  19730346.4434   19730350.3774
  21343841.083     -625972.50749   -481968.44749  21343841.2414   21343846.9454
  20376251.817   -12001056.11749  -9052360.04349  20376251.6444   20376256.1714
  23757051.632   -10494050.549 9  -8156525.036 9  23757052.555    23757057.455
  20973019.247      923301.77449    714168.24349  20973019.5654   20973025.3784
 96  2 11 18  9 59.9970000  0  6 19 29 22 18 28 14
  21877951.157   -12855866.98549  -9987243.83049  21877952.4374   21877958.3414
  19718030.727    -6928715.41949  -5377584.73849  19718031.9054   19718035.7824
  21345795.826     -615700.95749   -473964.66249  21345796.2414   21345801.6994
  20352738.066   -12124619.03949  -9148642.84249  20352738.3334   20352742.7024
  23731292.946   -10629411.385 9  -8262001.010 9  23731293.413    23731299.020
  20977522.044      946967.59649    732609.10749  20977522.7724   20977528.0984
 96  2 11 18 10 29.9970000  0  6 19 29 22 18 28 14
  21852802.908   -12988031.59949 -10090229.22849  21852801.9034   21852807.4334
  19705761.222    -6993191.62749  -5427825.94749  19705762.5554   19705766.4534
  21347816.111     -605089.88349   -465696.31949  21347815.4374   21347821.1974
  20329252.501   -12248036.68449  -9244812.42949  20329252.8274   20329257.1244
  23705551.079   -10764696.829 9  -8367418.190 9  23705549.862    23705555.918
  20982083.845      970943.85449    751291.87349  20982085.6144   20982091.4484
 96  2 11 18 10 59.9970000  0  6 19 29 22 18 28 14
  21827670.144   -13120096.32649 -10193136.78149  21827670.8514   21827675.7634
  19693534.253    -7057447.83449  -5477895.73049  19693535.1684   19693539.1664
  21349895.431     -594163.48649   -457182.26949  21349894.5754   21349899.9604
  20305793.676   -12371313.79849  -9340872.52149  20305793.9724   20305798.7124
  23679819.109   -10899912.438 9  -8472780.977 9  23679820.205    23679824.887
  20986706.018      995229.45549    770215.67949  20986707.1794   20986712.6174
 96  2 11 18 11 29.9970000  0  6 19 29 22 18 28 14
  21802561.907   -13252037.91949 -10295948.39549  21802563.8394   21802568.1634
  19681351.594    -7121465.59949  -5527779.71449  19681352.9044   19681356.7674
  21352032.400     -582931.01449   -448429.72249  21352032.3774   21352037.6154
  20282364.725   -12494430.94849  -9436807.96049  20282365.4574   20282370.2234
  23654104.503   -11035043.008 9  -8578077.500 9  23654104.385    23654111.848
  20991389.221     1019835.90649    789389.50049  20991389.5454   20991394.8414
 96  2 11 18 11 59.9970000  0  6 19 29 22 18 28 14
  21777481.690   -13383837.81149 -10398649.58949  21777482.9174   21777488.0634
  19669216.315    -7185236.85649  -5577471.61649  19669217.4944   19669221.4924
  21354227.031     -571394.61449   -439440.35049  21354227.2224   21354233.1144
  20258968.941   -12617376.83449  -9532609.95049  20258969.6894   20258974.2414
  23628406.236   -11170085.547 9  -8683305.401 9  23628407.060    23628413.145
  20996129.897     1044753.11749    808805.46649  20996131.2014   20996136.7354
 96  2 11 18 12 29.9970000  0  6 19 29 22 18 28 14
  21752429.545   -13515492.41449 -10501237.57249  21752429.4464   21752435.5524
  19657129.718    -7248752.42249  -5626964.27949  19657130.9944   19657135.0844
  21356484.227     -559536.47849   -430200.26949  21356484.3724   21356489.4394
  20235606.603   -12740148.09649  -9628275.87049  20235606.9654   20235611.5864
  23602724.368   -11305036.005 9  -8788461.559 9  23602725.885    23602731.434
  21000926.551     1069960.59449    828447.61749  21000927.9314   21000933.5094
 96  2 11 18 12 59.9970000  0  6 19 29 22 18 28 14
  21727403.632   -13646998.64749 -10603709.93949  21727404.9004   21727410.1744
  19645096.699    -7311986.64149  -5676237.71249  19645098.0434   19645101.9004
  21358809.053     -547321.05849   -420681.78849  21358808.5664   21358814.1264
  20212280.809   -12862725.98749  -9723791.10749  20212281.2234   20212285.9524
  23577066.127   -11439889.140 9  -8893541.874 9  23577064.957    23577070.210
  21005772.899     1095425.08349    848290.03949  21005773.6024   21005779.3254
 96  2 11 18 13 29.9970000  0  6 19 29 22 18 28 14
  21702403.641   -13778370.63849 -10706077.71449  21702405.9124   21702410.9114
  19633119.870    -7374924.87949  -5725280.50349  19633121.3144   19633125.3704
  21361203.968     -534735.62549   -410874.98849  21361203.9424   21361209.1654
  20188990.775   -12985117.98249  -9819161.49249  20188990.8834   20188995.6464
  23551420.761   -11574642.664 9  -8998544.576 9  23551422.859    23551427.572
  21010665.696     1121140.10249    868327.67549  21010667.1014   21010673.0784
 96  2 11 18 13 59.9970000  0  6 19 29 22 18 28 14
  21677430.385   -13909609.97749 -10808342.11349  21677430.9264   21677436.9434
  19621200.233    -7437562.92549  -5774089.38449  19621201.6054   19621205.5194
  21363672.658     -521757.56949   -400762.25649  21363672.7864   21363678.3104
  20165736.803   -13107319.50949  -9914383.46149  20165736.6354   20165741.2564
  23525801.456   -11709284.161 9  -9103459.985 9  23525801.373    23525806.161
  21015608.881     1147113.49749    888566.63649  21015609.7894   21015615.1724
 96  2 11 18 14 29.9970000  0  6 19 29 22 18 28 14
  21652477.217   -14040740.01749 -10910521.35049  21652477.8144   21652483.0374
  19609333.246    -7499927.33249  -5822685.04349  19609334.0484   19609338.2394
  21366213.881     -508407.46149   -390359.60349  21366213.7474   21366218.8514
  20142515.468   -13229342.98849 -10009466.69549  20142516.1864   20142520.9404
  23500197.442   -11843819.767 9  -9208292.865 9  23500199.458    23500205.230
  21020600.706     1173345.27249    909006.93649  21020601.6634   21020607.4734
 96  2 11 18 14 59.9970000  0  6 19 29 22 18 28 14
  21627543.189   -14171767.81549 -11012620.90449  21627544.6494   21627550.0264
  19597516.733    -7562022.05549  -5871070.55249  19597517.6904   19597521.6554
  21368819.520     -494710.78549   -379686.89649  21368819.8174   21368825.1924
  20119330.141   -13351185.28949 -10104408.74749  20119330.6724   20119335.0094
  23474617.853   -11978244.813 9  -9313039.557 9  23474619.394    23474625.469
  21025645.204     1199851.90749    929661.40849  21025645.5704   21025651.1234
 96  2 11 18 15 29.9970000  0  6 19 29 22 18 28 14
  21602627.991   -14302694.43249 -11114641.62049  21602629.9454   21602635.3014
  19585749.969    -7623856.54849  -5919253.28649  19585751.2714   19585755.0594
  21371487.982     -480690.27049   -368761.85149  21371487.9694   21371493.4954
  20096178.207   -13472851.60949 -10199213.67049  20096178.2204   20096182.9044
  23449061.457   -12112551.764 9  -9417694.246 9  23449061.269    23449066.960
  21030744.569     1226649.25049    950542.40949  21030745.3274   21030750.6234
 96  2 11 18 15 59.9970000  0  6 19 29 22 18 28 14
  21577732.785   -14433522.39049 -11216585.45249  21577734.1944   21577739.9424
  19574029.943    -7685447.22749  -5967246.03849  19574031.0184   19574034.9724
  21374217.392     -466350.10949   -357587.72949  21374217.0914   21374222.6444
  20073058.860   -13594343.32149 -10293882.53749  20073059.1584   20073063.5154
  23423527.770   -12246739.504 9  -9522256.029 9  23423526.317    23423533.048
  21035895.875     1253716.90249    971634.04149  21035895.7584   21035901.2864
 96  2 11 18 16 29.9970000  0  6 19 29 22 18 28 14
  21552856.977   -14564245.36449 -11318447.48949  21552858.1484   21552863.4384
  19562359.109    -7746777.57549  -6015035.93349  19562360.2954   19562363.8784
  21377003.267     -451707.96149   -346178.28749  21377003.2394   21377008.5974
  20049972.735   -13715659.30249 -10388414.46649  20049973.5014   20049978.1054
  23398011.831   -12380806.967 9  -9626724.088 9  23398013.505    23398019.201
  21041094.201     1281039.39649    992924.25349  21041095.5924   21041100.3574
 96  2 11 18 16 59.9970000  0  6 19 29 22 18 28 14
  21528003.494   -14694849.39349 -11420216.83449  21528004.9464   21528010.2404
  19550741.300    -7807829.82149  -6062609.13049  19550742.3894   19550746.2294
  21379847.477     -436759.88049   -334530.47049  21379848.1384   21379853.2804
  20026922.700   -13836791.57849 -10482803.25849  20026922.6774   20026927.3824
  23372524.467   -12514751.541 9  -9731096.397 9  23372524.253    23372529.823
  21046337.747     1308596.73849   1014397.45849  21046339.1354   21046344.7314
 96  2 11 18 17 29.9970000  0  6 19 29 22 18 28 14
  21503176.616   -14825313.52549 -11521877.17849  21503178.4074   21503183.8594
  19539178.540    -7868592.01949  -6109956.30949  19539179.5804   19539183.6974
  21382752.460     -421494.11749   -322635.10049  21382752.9254   21382758.0964
  20003908.395   -13957730.03849 -10577041.01949  20003909.0104   20003913.7544
  23347060.068   -12648567.165 9  -9835368.208 9  23347060.153    23347067.822
  21051626.770     1336383.72249   1036049.60549  21051626.9984   21051632.1614
 96  2 11 18 17 59.9960000  0  6 19 29 22 18 28 14
  21478378.311   -14955631.87549 -11623423.92649  21478380.1864   21478385.0564
  19527674.444    -7929045.68949  -6157063.07949  19527675.4804   19527679.5964
  21385717.163     -405912.16049   -310493.35149  21385718.2394   21385723.4194
  19980936.485   -14078454.53749 -10671112.05749  19980936.1624   19980940.6584
  23321623.767   -12782244.227 9  -9939532.057 9  23321622.428    23321628.459
  21056957.616     1364399.17449   1057879.78249  21056957.9394   21056963.5724
 96  2 11 18 18 29.9960000  0  6 19 29 22 18 28 14
  21453606.342   -15085813.30049 -11724863.97149  21453607.2484   21453612.5364
  19516230.051    -7989184.51749  -6203924.51649  19516231.5304   19516235.5334
  21388743.020     -390017.78849   -298108.16049  21388742.1554   21388748.0334
  19958003.325   -14198963.82049 -10765015.39849  19958003.8294   19958008.2294
  23296206.863   -12915788.570 9 -10043592.515 9  23296209.482    23296214.793
  21062334.694     1392660.03049   1079901.18049  21062335.9224   21062341.2204
 96  2 11 18 18 59.9960000  0  6 19 29 22 18 28 14
  21428856.690   -15215869.27449 -11826206.26949  21428858.1054   21428863.8584
  19504844.702    -8049017.78249  -6250547.85349  19504845.6184   19504849.6504
  21391830.760     -373795.28949   -285467.28749  21391829.6474   21391835.3954
  19935113.209   -14319251.19849 -10858745.82349  19935114.1454   19935118.6564
  23270824.469   -13049189.798 9 -10147541.473 9  23270824.202    23270829.691
  21067763.026     1421181.71049   1102125.81449  21067763.9564   21067769.3434
 96  2 11 18 19 29.9960000  0  6 19 29 22 18 28 14
  21404126.801   -15345826.40949 -11927471.55649  21404127.8394   21404134.5954
  19493515.557    -8108552.49649  -6296938.55249  19493516.6734   19493520.7264
  21394976.130     -357260.50449   -272583.07349  21394975.9134   21394981.1724
  19912264.732   -14439321.15649 -10952306.83349  19912265.4234   19912269.6314
  23245465.773   -13182446.863 9 -10251378.091 9  23245465.772    23245472.320
  21073242.296     1449975.54649   1124562.51349  21073243.1974   21073248.8054
 96  2 11 18 19 59.9960000  0  6 19 29 22 18 28 14
  21379412.992   -15475702.56649 -12028673.73449  21379413.5294   21379419.0644
  19482240.390    -8167803.01249  -6343107.79849  19482241.7704   19482245.6014
  21398181.067     -340415.23449   -259456.92149  21398181.7224   21398187.3104
  19889458.082   -14559172.66749 -11045697.62449  19889458.4714   19889462.9014
  23220136.251   -13315553.408 9 -10355097.411 9  23220136.446    23220143.224
  21078773.230     1479042.26549   1147211.85349  21078774.4084   21078780.0504
 96  2 11 18 20 29.9960000  0  6 19 29 22 18 28 14
  21354713.875   -15605498.96449 -12129813.76849  21354714.1354   21354719.3204
  19471017.077    -8226783.59649  -6389066.71749  19471018.1594   19471022.0434
  21401444.997     -323265.73049   -246093.69949  21401445.7094   21401450.4224
  19866690.158   -14678816.77249 -11138926.80249  19866690.8194   19866695.3074
  23194834.902   -13448511.406 9 -10458700.989 9  23194835.841    23194842.843
  21084357.559     1508386.01249   1170077.05349  21084358.2984   21084363.5994
 96  2 11 18 20 59.9960000  0  6 19 29 22 18 28 14
  21330033.839   -15735192.70549 -12230873.81149  21330034.4964   21330039.9914
  19459845.890    -8285487.65549  -6434810.16049  19459846.9724   19459850.9034
  21404764.936     -305818.15149   -232498.21849  21404765.4654   21404770.4374
  19843965.580   -14798236.21749 -11231980.91949  19843966.1184   19843970.7264
  23169565.916   -13581308.171 9 -10562178.985 9  23169565.091    23169571.651
  21089992.958     1538006.08549   1193157.57049  21089994.6694   21089999.9934
 96  2 11 18 21 29.9960000  0  6 19 29 22 18 28 14
  21305376.204   -15864764.93249 -12331839.16449  21305377.0174   21305382.8534
  19448725.780    -8343924.57349  -6480345.43949  19448726.9674   19448730.7334
  21408136.524     -288098.78949   -218690.94349  21408136.9344   21408142.8254
  19821282.965   -14917434.26949 -11324862.52049  19821283.3524   19821288.0774
  23144324.207   -13713948.984 9 -10665535.428 9  23144324.849    23144330.116
  21095677.080     1567880.25349   1216436.09649  21095679.7324   21095685.4954
 96  2 11 18 21 59.9960000  0  6 19 29 22 18 28 14
  21280746.407   -15994198.51949 -12432696.48649  21280747.4504   21280753.3784
  19437658.102    -8402086.10649  -6525666.13049  19437659.1544   19437663.0624
  21411562.713     -270093.46949   -204660.85149  21411563.4764   21411568.7694
  19798640.720   -15036420.50949 -11417579.07049  19798641.0274   19798645.5934
  23119115.030   -13846428.116 9 -10768765.864 9  23119114.177    23119119.857
  21101412.266     1598003.92049   1239909.02849  21101412.2854   21101417.9034
 96  2 11 18 22 29.9960000  0  6 19 29 22 18 28 14
  21256143.897   -16123481.50749 -12533436.45349  21256145.5664   21256151.0434
  19426645.336    -8459957.32749  -6570760.60449  19426646.5624   19426650.7544
  21415043.127     -251811.67949   -190415.32449  21415042.9214   21415047.9254
  19776038.482   -15155196.36049 -11510131.68649  19776038.9374   19776043.3204
  23093933.879   -13978746.245 9 -10871870.867 9  23093935.345    23093940.557
  21107188.976     1628369.38449   1263570.36949  21107190.5094   21107195.9814
 96  2 11 18 22 59.9960000  0  6 19 29 22 18 28 14
  21231571.349   -16252607.23349 -12634053.88549  21231573.5054   21231578.5854
  19415689.611    -8517530.73549  -6615623.01449  19415690.4874   19415694.6124
  21418574.719     -233250.74949   -175952.27849  21418574.9594   21418579.8464
  19753475.443   -15273761.82649 -11602520.36349  19753476.3204   19753481.0224
  23068788.385   -14110896.185 9 -10974844.817 9  23068788.187    23068794.291
  21113011.718     1658963.17649   1287409.63049  21113012.1704   21113017.7814
 96  2 11 18 23 29.9960000  0  6 19 29 22 18 28 14
  21207029.730   -16381583.05649 -12734554.51549  21207030.3154   21207036.1874
  19404791.201    -8574800.90049  -6660249.13049  19404792.5234   19404796.6514
  21422161.976     -214399.35149   -161262.90149  21422162.4584   21422167.5534
  19730951.997   -15392126.98549 -11694752.95549  19730952.3404   19730956.7944
  23043672.181   -14242874.959 9 -11077685.352 9  23043672.988    23043679.392
  21118876.996     1689787.65749   1311428.65549  21118878.5054   21118883.6994
 96  2 11 18 23 59.9960000  0  6 19 29 22 18 28 14
  21182511.678   -16510421.54649 -12834948.12449  21182513.1924   21182518.5904
  19393953.428    -8631753.37849  -6704627.70249  19393954.9634   19393958.8804
  21425804.234     -195258.53149   -146347.99249  21425804.2514   21425809.4394
  19708467.287   -15510286.55649 -11786825.35049  19708467.4214   19708472.1364
  23018592.940   -14374679.000 9 -11180389.776 9  23018591.266    23018596.933
  21124786.952     1720844.30949   1335628.59449  21124787.4164   21124793.6514
 96  2 11 18 24 29.9960000  0  6 19 29 22 18 28 14
  21158022.950   -16639109.35349 -12935224.32849  21158024.1004   21158029.8544
  19383178.464    -8688378.23449  -6748750.98349  19383179.5454   19383183.5264
  21429499.922     -175839.59449   -131216.38149  21429499.7324   21429505.1664
  19686026.599   -15628212.78249 -11878715.92149  19686026.6834   19686031.3474
  22993541.680   -14506301.204 9 -11282952.474 9  22993545.417    22993551.154
  21130740.784     1752131.37049   1360008.06349  21130741.7384   21130747.0824
 96  2 11 18 24 59.9960000  0  6 19 29 22 18 28 14
  21133559.429   -16767664.92749 -13035397.49249  21133561.1894   21133567.0424
  19372462.354    -8744691.34049  -6792631.34149  19372463.7394   19372467.6894
  21433247.740     -156143.80549   -115869.03349  21433247.9414   21433253.1494
  19663628.713   -15745912.84649 -11970430.25949  19663629.1414   19663633.9394
  22968530.653   -14637743.140 9 -11385374.716 9  22968532.093    22968538.349
  21136736.301     1783639.15149   1384559.52549  21136737.9554   21136743.0604
 96  2 11 18 25 29.9960000  0  6 19 29 22 18 28 14
  21109120.818   -16896096.20749 -13135473.80649  21109121.8974   21109127.3964
  19361804.714    -8800697.63349  -6836272.62349  19361806.0344   19361809.9394
  21437048.899     -136167.09349   -100302.78849  21437049.4734   21437054.9664
  19641276.723   -15863374.35749 -12061958.70849  19641276.9994   19641281.4294
  22943555.267   -14769002.179 9 -11487654.445 9  22943554.750    22943559.849
  21142775.538     1815366.77749   1409282.29649  21142775.1524   21142781.2054
 96  2 11 18 25 59.9960000  0  6 19 29 22 18 28 14
  21084703.208   -17024409.82949 -13235458.43849  21084704.4804   21084710.3434
  19351203.511    -8856408.03749  -6879683.34349  19351204.5854   19351208.6964
  21440903.791     -115915.58249    -84522.42449  21440903.2544   21440908.7394
  19618969.451   -15980599.01549 -12153302.60249  19618970.0394   19618974.6504
  22918611.179   -14900078.741 9 -11589791.963 9  22918611.642    22918616.956
  21148852.572     1847306.48349   1434170.31649  21148853.2764   21148859.3114
 96  2 11 18 26 29.9960000  0  7 19 29 22 18 28 31 14
  21060308.999   -17152600.98149 -13335347.64049  21060310.5534   21060315.8284
  19340656.104    -8911836.07849  -6922874.04249  19340656.9704   19340661.0514
  21444813.215      -95365.01649    -68509.01949  21444813.5634   21444819.1224
  19596707.258   -16097586.87249 -12244461.97549  19596708.0144   19596712.3064
  22893702.373   -15030962.217 9 -11691779.055 9  22893704.766    22893710.449
  23385760.329    -7640197.12859  -5930936.26159  23385758.6984   23385764.4524
  21154971.930     1879462.40349   1459226.81949  21154972.2724   21154977.7824
 96  2 11 18 26 59.9960000  0  7 19 29 22 18 28 31 14
  21035936.044   -17280686.58249 -13435154.59049  21035936.6934   21035941.7774
  19330157.028    -8967008.37249  -6965865.45749  19330158.1674   19330162.1804
  21448780.497      -74524.19249    -52269.44449  21448780.0814   21448785.3284
  19574487.200   -16214354.07749 -12335449.41249  19574487.8904   19574492.4084
  22868832.226   -15161657.223 9 -11793619.296 9  22868834.655    22868839.751
  23356001.780    -7796569.74049  -6052785.06349  23356001.8904   23356008.4164
  21161130.179     1911829.08749   1484447.55449  21161131.7714   21161137.1534
 96  2 11 18 27 29.9960000  0  7 19 29 22 18 28 31 14
  21011585.030   -17408650.52349 -13534866.74249  21011586.1434   21011591.4584
  19319710.799    -9021904.19349  -7008641.43849  19319711.7554   19319715.7334
  21452798.977      -53400.52049    -35809.46549  21452799.3044   21452804.8514
  19552310.685   -16330893.71649 -12426259.52149  19552311.2504   19552315.5754
  22844001.403   -15292158.795 9 -11895308.787 9  22844001.378    22844006.499
  23326221.876    -7953050.90949  -6174718.44849  23326224.3074   23326230.7874
  21167331.451     1944417.89749   1509841.37349  21167332.8964   21167338.4994
 96  2 11 18 27 59.9960000  0  7 19 29 22 18 28 31 14
  20987259.537   -17536476.20149 -13634471.15349  20987261.4084   20987266.7004
  19309321.963    -9076496.98549  -7051181.29149  19309323.1774   19309327.2974
  21456872.699      -31997.00249    -19131.42749  21456872.3434   21456877.8014
  19530178.898   -16447197.78749 -12516886.07449  19530179.1474   19530183.6674
  22819205.957   -15422454.928 9 -11996838.181 9  22819206.966    22819212.546
  23296427.003    -8109627.53549  -6296726.23449  23296427.6734   23296436.1854
  21173576.579     1977234.20849   1535412.46449  21173577.3314   21173582.9724
 96  2 11 18 28 29.9960000  0  7 19 29 22 18 28 31 14
  20962960.792   -17664168.57849 -13733971.69449  20962962.5324   20962967.4964
  19298992.555    -9130777.33349  -7093477.68049  19298993.9154   19298997.9844
  21460993.917      -10335.19049     -2252.11949  21460994.0894   21460999.8034
  19508092.023   -16563264.91349 -12607327.99349  19508092.1874   19508096.7784
  22794450.027   -15552546.138 9 -12098207.925 9  22794450.987    22794456.044
  23266616.264    -8266291.87649  -6418802.34049  23266616.7574   23266622.7334
  21179862.536     2010264.29149   1561150.13049  21179863.4204   21179869.2164
 96  2 11 18 28 59.9960000  0  7 19 29 22 18 28 31 14
  20938688.602   -17791718.94549 -13833361.58149  20938690.2974   20938695.9794
  19288726.996    -9184723.31849  -7135513.52749  19288728.2794   19288732.5544
  21465163.419       11573.57149     14819.60649  21465163.2794   21465169.0394
  19486055.412   -16679064.97449 -12697561.80949  19486056.4804   19486060.9594
  22769736.230   -15682421.602 9 -12199409.515 9  22769736.391    22769742.749
  23236793.779    -8423009.57949  -6540920.04849  23236793.7484   23236799.7534
  21186189.258     2043508.68049   1587054.79049  21186189.7694   21186195.5784
 96  2 11 18 29 29.9960000  0  7 19 29 22 18 28 31 14
  20914443.249   -17919133.00149 -13932645.24349  20914444.4254   20914449.5404
  19278527.584    -9238323.05949  -7177279.57249  19278528.8054   19278532.6914
  21469380.519       33736.66049     32089.51949  21469380.8054   21469386.5884
  19464070.348   -16794599.94249 -12787589.05949  19464070.7274   19464075.5854
  22745062.283   -15812083.907 9 -12300445.068 9  22745062.248    22745067.951
  23206960.808    -8579774.94249  -6663074.88149  23206962.1454   23206968.7684
  21192553.284     2076948.44049   1613111.68849  21192553.2374   21192558.8914
 96  2 11 18 29 59.9950000  0  7 19 29 22 18 28 31 14
  20890222.738   -18046412.68749 -14031824.20549  20890224.0604   20890228.7884
  19268390.933    -9291592.65849  -7218788.36249  19268392.0084   19268396.0574
  21473648.393       56157.14949     49559.99549  21473647.7474   21473653.6184
  19442137.536   -16909858.14049 -12877400.64349  19442137.9414   19442142.4304
  22720430.664   -15941525.243 9 -12401308.412 9  22720429.941    22720436.198
  23177119.636    -8736590.12549  -6785268.50949  23177121.2194   23177127.5064
  21198949.552     2110568.05549   1639308.73449  21198950.8014   21198956.9274
 96  2 11 18 30 29.9950000  0  7 19 29 22 18 28 31 14
  20866027.090   -18173561.45149 -14130901.14349  20866027.7564   20866033.0934
  19258311.581    -9344556.55249  -7260058.94749  19258313.3524   19258317.2554
  21477964.792       78845.98649     67239.57249  21477965.3764   21477970.8864
  19420258.147   -17024836.81249 -12966994.41649  19420258.3504   19420262.7634
  22695837.092   -16070746.712 9 -12502000.436 9  22695839.994    22695845.984
  23147267.561    -8893470.03949  -6907512.57149  23147268.0224   23147273.5734
  21205384.042     2144379.46049   1665655.21749  21205384.7614   21205390.3724
 96  2 11 18 30 59.9950000  0  7 19 29 22 18 28 31 14
  20841857.444   -18300572.01549 -14229870.40049  20841858.6014   20841863.9184
  19248290.722    -9397220.59049  -7301095.87749  19248291.7084   19248295.5454
  21482336.650      101813.60749     85136.38749  21482335.7584   21482341.8464
  19398430.950   -17139536.84349 -13056371.06649  19398431.3434   19398435.7534
  22671290.529   -16199747.710 9 -12602520.649 9  22671291.966    22671297.503
  23117399.093    -9050428.79449  -7029818.02749  23117399.8814   23117405.4204
  21211853.285     2178375.27449   1692145.40049  21211854.2994   21211859.7494
 96  2 11 18 31 29.9950000  0  7 19 29 22 18 28 31 14
  20817715.052   -18427440.09349 -14328728.63649  20817716.1674   20817721.9044
  19238326.746    -9449581.38249  -7341896.50749  19238327.8224   19238331.9594
  21486757.363      125050.35249    103242.90549  21486757.4894   21486763.2634
  19376653.572   -17253976.78049 -13145545.04749  19376654.1384   19376658.7064
  22646787.360   -16328524.817 9 -12702866.452 9  22646787.019    22646792.517
  23087516.897    -9207474.37259  -7152191.15959  23087516.3464   23087521.1274
  21218356.059     2212562.25349   1718784.55249  21218359.4264   21218365.6804
 96  2 11 18 31 59.9950000  0  8 19 29 27 22 18 28 31 14
  20793600.591   -18554160.79349 -14427472.02949  20793602.2864   20793607.5554
  19228418.969    -9501645.08749  -7382465.63849  19228420.3814   19228424.5394
  23689960.218    -9990974.99059  -7409946.24359  23689961.0664   23689968.6544
  21491228.092      148542.93149    121548.76949  21491228.0104   21491234.1254
  19354927.900   -17368146.74249 -13234508.65549  19354928.2774   19354932.8974
  22622325.960   -16457072.575 9 -12803033.545 9  22622325.137    22622330.683
  23057616.426    -9364596.38749  -7274623.85949  23057614.5264   23057620.8744
  21224902.149     2246951.35249   1745581.18049  21224903.2954   21224909.2734
 96  2 11 18 32 29.9950000  0  8 19 29 27 22 18 28 31 14
  20769513.639   -18680742.01149 -14526106.73949  20769514.9384   20769520.2944
  19218568.709    -9553409.80049  -7422801.79549  19218569.9704   19218574.0224
  23661714.494   -10139402.61749  -7525604.10649  23661715.2364   23661723.2944
  21495746.645      172283.81249    140048.11449  21495745.5554   21495751.7414
  19333250.954   -17482058.07449 -13323270.73349  19333251.6424   19333256.2344
  22597905.017   -16585390.549 9 -12903021.576 9  22597906.769    22597912.593
  23027704.326    -9521777.04949  -7397102.21949  23027705.7534   23027710.4834
  21231485.686     2281546.88049   1772538.66149  21231486.7264   21231492.9264
 96  2 11 18 32 59.9950000  0  8 19 29 27 22 18 28 31 14
  20745451.255   -18807193.03049 -14624639.98449  20745451.6224   20745457.0274
  19208779.389    -9604853.20049  -7462887.56949  19208780.6384   19208784.5034
  23633463.114   -10287864.50749  -7641288.65549  23633465.2634   23633471.2074
  21500308.674      196259.66649    158730.56849  21500308.8994   21500313.8804
  19311622.003   -17595723.83349 -13411841.45349  19311622.1434   19311626.4834
  22573533.639   -16713479.611 9 -13002831.188 9  22573532.649    22573538.440
  22997786.199    -9679000.03449  -7519613.59659  22997785.8544   22997791.4524
  21238104.494     2316335.38849   1799646.52349  21238107.2344   21238113.0194
 96  2 11 18 33 29.9950000  0  8 19 29 27 22 18 28 31 14
  20721413.323   -18933509.97749 -14723068.77349  20721414.4764   20721419.8124
  19199050.269    -9655978.71249  -7502725.64649  19199051.6174   19199056.0334
  23605207.168   -10436354.92849  -7756995.43349  23605208.1304   23605214.1334
  21504915.029      220471.14349    177596.61749  21504915.5824   21504921.3104
  19290039.874   -17709136.55149 -13500215.00049  19290040.2014   19290044.7134
  22549203.208   -16841332.478 9 -13102456.781 9  22549203.222    22549208.705
  22967861.588    -9836253.12059  -7642148.40959  22967864.2864   22967869.6974
  21244766.852     2351331.88049   1826916.44549  21244766.2524   21244772.7274
 96  2 11 18 33 59.9950000  0  8 19 29 27 22 18 28 31 14
  20697401.009   -19059695.82349 -14821395.39249  20697402.0624   20697407.4854
  19189382.941    -9706781.57249  -7542312.30649  19189384.3404   19189388.2994
  23576944.308   -10584868.45449  -7872720.24649  23576945.4894   23576953.2224
  21509570.992      244929.34849    196654.92149  21509570.1094   21509575.1764
  19268507.504   -17822288.15649 -13588385.08349  19268508.1554   19268512.7594
  22524917.879   -16968945.183 9 -13201895.246 9  22524919.165    22524924.508
  22937933.146    -9993531.99749  -7764703.28759  22937933.3964   22937938.9434
  21251463.335     2386525.27249   1854339.79649  21251463.6714   21251470.0634
 96  2 11 18 34 29.9950000  0  8 19 29 27 22 18 28 31 14
  20673413.646   -19185751.37449 -14919620.48549  20673414.5744   20673420.0514
  19179779.808    -9757245.09049  -7581634.54249  19179781.3394   19179785.2714
  23548679.048   -10733402.65149  -7988461.14049  23548682.1864   23548687.3534
  21514271.401      269631.52849    215903.33749  21514270.3804   21514276.4394
  19247024.411   -17935184.97749 -13676356.63249  19247024.7304   19247029.0514
  22500682.624   -17096315.098 9 -13301144.508 9  22500681.679    22500686.424
  22907995.476   -10150846.15259  -7887285.68059  22907997.3624   22908002.0104
  21258195.346     2421900.48349   1881904.81949  21258195.2304   21258201.8954
 96  2 11 18 34 59.9950000  0  8 19 29 27 22 18 28 31 14
  20649452.013   -19311663.83649 -15017734.07949  20649454.0824   20649460.1844
  19170244.582    -9807355.69549  -7620681.78549  19170245.9594   19170249.7754
  23520419.585   -10881917.71549  -8104187.12849  23520419.6474   23520427.0074
  21519019.139      294584.02449    235346.80749  21519019.1304   21519024.8844
  19225592.862   -18047811.06049 -13764117.21749  19225592.8514   19225597.0284
  22476490.847   -17223433.227 9 -13400197.611 9  22476491.846    22476497.188
  22878050.544   -10308205.92049  -8009903.61249  22878051.5344   22878058.9204
  21264959.140     2457445.32449   1909602.03049  21264960.0394   21264965.5294
 96  2 11 18 35 29.9950000  0  8 19 29 27 22 18 28 31 14
  20625519.192   -19437431.77149 -15115735.05949  20625521.0814   20625527.3944
  19160774.372    -9857121.31049  -7659460.20349  19160775.4004   19160779.5744
  23492166.888   -11030389.53349  -8219879.40649  23492167.5044   23492171.6634
  21523814.061      319784.10149    254983.18549  21523814.3174   21523819.8484
  19204211.874   -18160164.56549 -13851665.40549  19204212.7884   19204216.8824
  22452349.243   -17350297.207 9 -13499052.655 9  22452350.462    22452356.494
  22848097.454   -10465620.82849  -8132564.47549  22848097.6644   22848103.5194
  21271752.871     2493152.28749   1937425.56549  21271754.4304   21271760.5724
 96  2 11 18 35 59.9950000  0  8 19 29 27 22 18 28 31 14
  20601615.660   -19563055.90749 -15213623.98549  20601616.1184   20601621.5054
  19151372.626    -9906527.36449  -7697958.43949  19151373.9234   19151377.9074
  23463922.635   -11178813.42149  -8335534.40149  23463922.6564   23463928.6764
  21528654.639      345222.03749    274804.92049  21528655.3654   21528659.9184
  19182883.492   -18272244.14049 -13939000.13649  19182884.5544   19182888.9624
  22428259.059   -17476898.973 9 -13597703.366 9  22428258.805    22428264.488
  22818133.733   -10623079.72349  -8255259.64849  22818134.6254   22818140.1744
  21278579.025     2529013.67749   1965369.43449  21278579.1444   21278585.0994
 96  2 11 18 36 29.9950000  0  8 19 29 27 22 18 28 31 14
  20577737.597   -19688535.06449 -15311399.94249  20577738.0044   20577743.8034
  19142036.886    -9955587.08049  -7736186.80049  19142038.3544   19142042.2844
  23435683.817   -11327193.21049  -8451154.99349  23435686.2884   23435693.1434
  21533538.244      370886.55749    294803.20349  21533539.5944   21533544.4514
  19161607.654   -18384053.09649 -14026123.99849  19161608.0084   19161612.3254
  22404216.311   -17603241.694 9 -13696152.237 9  22404217.032    22404222.534
  22788160.379   -10780581.36349  -8377988.09449  22788161.4084   22788169.6494
  21285430.336     2565027.33249   1993431.94649  21285432.1024   21285438.2424
 96  2 11 18 36 59.9950000  0  8 19 29 27 22 18 28 31 14
  20553886.298   -19813868.54049 -15409062.38449  20553887.7004   20553893.5504
  19132765.204   -10004309.67349  -7774152.46949  19132766.4094   19132770.7624
  23407454.217   -11475537.49749  -8566747.91149  23407456.4234   23407464.0614
  21538465.247      396773.20749    314974.57349  21538465.1554   21538471.0074
  19140383.523   -18495586.09949 -14113032.83049  19140384.0194   19140388.2924
  22380224.820   -17729322.655 9 -13794397.104 9  22380224.516    22380230.224
  22758185.329   -10938106.85249  -8500735.11849  22758185.1664   22758193.6524
  21292314.073     2601200.92449   2021619.08049  21292315.0734   21292321.1054
 96  2 11 18 37 29.9950000  0  8 19 29 27 22 18 28 31 14
  20530063.816   -19939053.38549 -15506609.01149  20530065.5734   20530070.9334
  19123558.621   -10052690.77549  -7811852.04449  19123560.0844   19123564.1174
  23379228.813   -11623883.07849  -8682341.85749  23379228.1154   23379235.4734
  21543433.298      422877.57549    335315.60349  21543432.1374   21543437.7024
  19119213.114   -18606838.02249 -14199722.64349  19119213.4594   19119217.7534
  22356282.159   -17855133.728 9 -13892431.700 9  22356283.215    22356289.214
  22728212.432   -11095621.14549  -8623473.43749  22728211.1194   22728219.1924
  21299231.111     2637554.82349   2049946.71949  21299233.5334   21299240.1454
 96  2 11 18 37 59.9950000  0  8 19 29 27 22 18 28 31 14
  20506271.939   -20064083.35249 -15604034.94149  20506273.2784   20506278.7584
  19114416.986   -10100732.33949  -7849287.04249  19114418.0244   19114422.1994
  23350993.551   -11772241.42249  -8797945.74649  23350997.2704   23351003.3884
  21548442.740      449207.25849    355832.21049  21548443.4724   21548447.6684
  19098097.902   -18717796.51149 -14286183.80249  19098098.7574   19098103.0634
  22332393.512   -17980668.758 9 -13990251.180 9  22332394.654    22332400.628
  22698242.185   -11253102.87049  -8746186.36849  22698243.0354   22698251.3984
  21306185.946     2674092.32749   2078417.43149  21306187.2664   21306192.4714
 96  2 11 18 38 29.9950000  0  8 19 29 27 22 18 28 31 14
  20482507.949   -20188967.16049 -15701346.98549  20482509.3114   20482513.8324
  19105337.306   -10148445.43849  -7886466.09249  19105338.4114   19105342.7664
  23322762.368   -11920614.19549  -8913560.86549  23322762.7304   23322769.5754
  21553496.644      475765.84949    376527.20649  21553497.4734   21553502.5984
  19077039.384   -18828462.78149 -14372417.26249  19077039.8924   19077043.9994
  22308558.041   -18105929.327 9 -14087856.812 9  22308558.141    22308563.847
  22668282.340   -11410553.34049  -8868874.93849  22668282.5444   22668289.3034
  21313170.312     2710796.58849   2107018.08849  21313171.1044   21313177.0834
 96  2 11 18 38 59.9950000  0  8 19 29 27 22 18 28 31 14
  20458767.637   -20313718.79649 -15798556.04249  20458769.6664   20458774.6894
  19096318.869   -10195836.12049  -7923393.90849  19096320.3064   19096324.3434
  23294523.614   -12069009.76449  -9029193.74949  23294523.5784   23294530.9634
  21558592.752      502543.58249    397392.95649  21558592.9284   21558597.5934
  19056036.761   -18938832.16249 -14458419.37549  19056037.1924   19056041.3764
  22284774.003   -18230915.674 9 -14185248.737 9  22284774.257    22284779.930
  22638325.384   -11567980.90749  -8991545.65249  22638323.2294   22638332.2454
  21320183.319     2747657.70849   2135740.97649  21320185.1054   21320192.0544
 96  2 11 18 39 29.9950000  0  8 19 29 27 22 18 28 31 14
  20435054.336   -20438338.60749 -15895662.37849  20435055.4144   20435060.7054
  19087360.592   -10242912.70749  -7960076.98049  19087361.8154   19087366.0084
  23266286.564   -12217407.46449  -9144828.27149  23266284.4474   23266292.4884
  21563731.691      529546.09849    418433.85649  21563731.6464   21563736.4184
  19035091.920   -19048897.30249 -14544184.42149  19035092.4624   19035096.8274
  22261043.766   -18355620.378 9 -14282421.202 9  22261043.759    22261049.351
  22608366.410   -11725395.78849  -9114206.52749  22608369.3954   22608377.7004
  21327230.155     2784678.63649   2164588.38249  21327230.5144   21327236.8784
 96  2 11 18 39 59.9950000  0  8 19 29 27 22 18 28 31 14
  20411363.395   -20562834.89149 -15992672.45049  20411364.2004   20411369.8104
  19078460.047   -10289684.42149  -7996522.49149  19078461.5644   19078465.7654
  23238048.991   -12365772.71149  -9260437.51149  23238051.1164   23238059.3224
  21568911.554      556773.42749    439649.93349  21568912.4124   21568917.3004
  19014206.229   -19158653.41649 -14629708.66349  19014206.7664   19014211.0934
  22237365.992   -18480044.546 9 -14379375.092 9  22237365.826    22237372.399
  22578409.874   -11882823.25449  -9236877.20149  22578412.2884   22578417.2104
  21334304.541     2821853.70449   2193555.89449  21334304.3504   21334310.8764
 96  2 11 18 40 29.9950000  0  8 19 29 27 22 18 28 31 14
  20387693.775   -20687218.03649 -16089594.37449  20387694.8224   20387700.1044
  19069618.525   -10336149.10949  -8032728.75549  19069619.9424   19069623.7974
  23209826.793   -12514104.73549  -9376020.84449  23209825.6254   23209832.1164
  21574132.357      584201.90149    461022.75449  21574132.1824   21574137.0714
  18993378.276   -19268103.49649 -14714994.43849  18993378.8804   18993383.0744
  22213741.211   -18604190.331 9 -14476112.054 9  22213741.844    22213747.681
  22548444.357   -12040278.73349  -9359569.68049  22548449.3194   22548455.5264
  21341406.934     2859180.46149   2222641.61749  21341407.9054   21341413.7174
 96  2 11 18 40 59.9950000  0  8 19 29 27 22 18 28 31 14
  20364049.197   -20811468.78049 -16186413.12149  20364051.0424   20364055.9194
  19060837.535   -10382292.25149  -8068684.46249  19060839.0674   19060843.1114
  23181608.287   -12662391.32949  -9491568.80549  23181605.5924   23181613.9434
  21579388.320      611826.90149    482548.69649  21579388.8524   21579394.5634
  18972611.874   -19377230.67449 -14800028.60749  18972612.6734   18972617.1184
  22190172.336   -18728045.305 9 -14572622.433 9  22190172.834    22190178.992
  22518483.834   -12197746.08249  -9482271.40249  22518483.0634   22518490.4574
  21348542.098     2896678.19049   2251860.54849  21348543.7334   21348550.0474
 96  2 11 18 41 29.9940000  0  8 19 29 27 22 18 28 31 14
  20340425.974   -20935609.36349 -16283146.03649  20340427.2584   20340433.0234
  19052114.777   -10428133.51449  -8104404.94149  19052115.9284   19052119.8984
  23153390.363   -12810660.37149  -9607103.05249  23153392.4094   23153399.2614
  21584676.973      639618.71649    504204.63849  21584677.4624   21584683.0774
  18951900.381   -19486072.97349 -14884840.79249  18951900.5034   18951905.0444
  22166651.828   -18851641.558 9 -14668931.215 9  22166653.815    22166659.295
  22488511.654   -12355250.47349  -9605002.03049  22488511.3904   22488518.1594
  21355703.070     2934301.18349   2281177.09249  21355703.0014   21355709.5954
 96  2 11 18 41 59.9940000  0  8 19 29 27 22 18 28 31 14
  20316829.556   -21059616.05249 -16379774.61249  20316829.7034   20316835.1494
  19043455.883   -10473633.21549  -8139859.27349  19043457.5124   19043461.4774
  23125177.564   -12958915.83349  -9722626.73949  23125178.2434   23125187.2104
  21590000.355      667589.81249    526000.27549  21589999.7844   21590005.4574
  18931245.456   -19594615.64649 -14969419.50149  18931245.8064   18931250.2744
  22143187.520   -18974962.705 9 -14765025.592 9  22143186.526    22143192.032
  22458535.215   -12512773.86249  -9727747.46249  22458536.4004   22458542.7834
  21362885.476     2972054.53549   2310595.20449  21362887.5434   21362893.4694
 96  2 11 18 42 29.9940000  0  8 19 29 27 22 18 28 31 14
  20293262.535   -21183454.05449 -16476271.73949  20293264.6094   20293269.9034
  19034868.651   -10518760.65449  -8175023.51849  19034870.0774   19034873.9194
  23096970.647   -13107155.61849  -9838138.18549  23096971.4444   23096978.8144
  21595358.459      695748.94949    547942.45149  21595358.6034   21595364.1574
  18910650.251   -19702841.66849 -15053751.47149  18910651.0974   18910655.5484
  22119775.272   -19097982.626 9 -14860885.262 9  22119776.441    22119781.891
  22428562.909   -12670283.85249  -9850482.47649  22428563.4824   22428569.7584
  21370097.318     3009933.04349   2340110.85549  21370095.1184   21370101.0434
 96  2 11 18 42 59.9940000  0  8 19 29 27 22 18 28 31 14
  20269728.452   -21307130.64649 -16572643.09849  20269729.1874   20269735.4154
  19026349.575   -10563529.12849  -8209908.05849  19026350.8424   19026354.9654
  23068762.491   -13255395.73849  -9953649.90749  23068762.2624   23068768.9334
  21600753.637      724098.13049    570032.69349  21600752.9794   21600758.9144
  18890114.599   -19810758.30849 -15137842.36549  18890115.1064   18890119.5444
  22096420.835   -19220707.629 9 -14956515.148 9  22096422.928    22096428.483
  22398590.621   -12827784.14749  -9973209.93249  22398591.8224   22398597.8824
  21377323.914     3047921.52949   2369712.19549  21377325.0734   21377330.7484
 96  2 11 18 43 29.9940000  0  8 19 29 27 22 18 28 31 14
  20246225.490   -21430637.23449 -16668881.98649  20246227.1214   20246232.5054
  19017899.829   -10607932.01049  -8244507.72649  19017901.1804   19017905.3664
  23040550.971   -13403632.45549 -10069158.98949  23040553.0964   23040560.4964
  21606183.956      752641.96149    592274.62749  21606185.0274   21606190.3774
  18869638.935   -19918356.49849 -15221685.11249  18869639.8764   18869644.4134
  22073127.339   -19343126.700 9 -15051906.635 9  22073127.505    22073133.029
  22368620.973   -12985269.59349 -10095925.81749  22368622.5734   22368628.8524
  21384572.617     3086022.59049   2399401.23249  21384575.2674   21384581.3704
 96  2 11 18 43 59.9940000  0  8 19 29 27 22 18 28 31 14
  20222756.063   -21553968.69849 -16764984.41449  20222758.0404   20222763.0654
  19009519.176   -10651972.95949  -8278825.36849  19009520.6154   19009524.7184
  23012347.514   -13551849.03149 -10184652.38249  23012348.9324   23012355.4584
  21611653.287      781374.50149    614663.59149  21611652.2934   21611658.5134
  18849225.178   -20025630.65149 -15305275.36649  18849226.4314   18849230.8184
  22049891.918   -19465224.860 9 -15147048.054 9  22049892.470    22049898.350
  22338662.328   -13142719.03049 -10218613.63849  22338662.0534   22338667.7574
  21391846.846     3124250.09649   2429188.81149  21391849.7684   21391856.0184
 96  2 11 18 44 29.9940000  0  8 19 29 27 22 18 28 31 14
  20199316.545   -21677146.76049 -16860967.29949  20199317.6944   20199323.5954
  19001204.269   -10695669.63549  -8312874.73849  19001205.5674   19001209.7854
  22984147.788   -13700048.57949 -10300132.49849  22984147.4134   22984153.7484
  21617156.863      810297.68649    637201.10549  21617156.5064   21617162.7194
  18828871.750   -20132589.53249 -15388619.94849  18828872.6724   18828877.0114
  22026716.872   -19587010.955 9 -15241946.316 9  22026717.534    22026723.024
  22308709.073   -13300123.10349 -10341266.12249  22308708.7524   22308715.0494
  21399145.823     3162606.20749   2459076.60349  21399148.0744   21399155.1054
 96  2 11 18 44 59.9940000  0  8 19 29 27 22 18 28 31 14
  20175905.125   -21800171.58949 -16956830.79549  20175906.8294   20175912.5924
  18992954.287   -10739025.82249  -8346658.79749  18992954.9804   18992959.2684
  22955949.162   -13848219.59349 -10415590.37449  22955951.3364   22955958.8264
  21622699.324      839421.74249    659895.14449  21622698.0764   21622705.0074
  18808579.064   -20239230.80849 -15471717.05249  18808579.5784   18808583.9434
  22003600.790   -19708478.497 9 -15336596.339 9  22003602.996    22003608.869
  22278766.653   -13457464.94549 -10463870.12349  22278768.5844   22278773.5454
  21406474.045     3201101.14949   2489072.56449  21406474.5384   21406480.2964
 96  2 11 18 45 29.9940000  0  8 19 29 27 22 18 28 31 14
  20152523.038   -21923052.23349 -17052581.92649  20152523.8394   20152528.7314
  18984767.159   -10782046.37249  -8380181.32049  18984768.3984   18984772.6404
  22927760.388   -13996362.31949 -10531026.21249  22927760.7274   22927767.9244
  21628275.648      868733.38049    682735.33949  21628276.5264   21628282.6664
  18788341.789   -20345576.01249 -15554583.44549  18788342.5614   18788346.9874
  21980544.860   -19829634.887 9 -15431003.925 9  21980547.406    21980553.086
  22248837.513   -13614749.35249 -10586429.35149  22248837.2884   22248843.2434
  21413820.526     3239722.51349   2519167.05049  21413823.2964   21413829.7084
 96  2 11 18 45 59.9940000  0  8 19 29 27 22 18 28 31 14
  20129160.178   -22045816.55649 -17148242.42649  20129162.0554   20129167.5744
  18976644.211   -10824731.63949  -8413442.57749  18976645.9554   18976650.0394
  22899570.902   -14144488.15249 -10646448.90849  22899572.7234   22899579.9054
  21633888.573      898233.23149    705722.19649  21633889.6674   21633895.8594
  18768160.360   -20451630.61649 -15637223.39549  18768161.2094   18768165.6534
  21957551.265   -19950482.899 9 -15525171.196 9  21957551.089    21957556.862
  22218915.672   -13771982.22049 -10708948.41649  22218915.8004   22218921.9214
  21421194.876     3278469.86749   2549359.70449  21421197.4124   21421202.9754
 96  2 11 18 46 29.9940000  0  8 19 29 27 22 18 28 31 14
  20105824.926   -22168448.30349 -17243799.62249  20105826.5914   20105831.5154
  18968590.563   -10867054.29649  -8446421.28449  18968592.1264   18968596.3804
  22871388.530   -14292595.53249 -10761857.21649  22871389.2714   22871396.7124
  21639543.544      927947.32749    728875.98849  21639543.7714   21639550.3914
  18748040.423   -20557362.34149 -15719611.75749  18748041.0814   18748045.4534
  21934618.142   -20070996.973 9 -15619078.301 9  21934617.995    21934623.531
  22189006.976   -13929147.46349 -10831414.77949  22189008.5664   22189014.4384
  21428597.604     3317361.20049   2579664.55049  21428597.9044   21428603.9474
 96  2 11 18 46 59.9940000  0  8 19 29 27 22 18 28 31 14
  20082511.212   -22290961.69749 -17339264.59749  20082512.8674   20082518.1564
  18960603.017   -10909033.27149  -8479132.18749  18960603.8854   18960608.0374
  22843206.376   -14440701.25849 -10877264.24249  22843206.6344   22843213.0154
  21645235.307      957854.85249    752180.52249  21645235.6974   21645241.2154
  18727978.684   -20662787.99549 -15801761.61749  18727979.1784   18727983.6124
  21911746.041   -20191187.565 9 -15712733.313 9  21911746.563    21911751.971
  22159109.075   -14086273.09149 -10953850.27349  22159110.5064   22159115.3534
  21436023.435     3356385.46449   2610072.96449  21436023.4674   21436030.3654
 96  2 11 18 47 29.9940000  0  8 19 29 27 22 18 28 31 14
  20059220.182   -22413357.71149 -17434638.10249  20059221.3164   20059227.1624
  18952680.042   -10950664.43549  -8511572.06749  18952681.7584   18952685.8794
  22815020.544   -14588807.02649 -10992671.29949  22815022.0364   22815029.5984
  21650964.014      987961.20949    775639.99149  21650965.0334   21650971.0664
  18707976.951   -20767894.80149 -15883663.03049  18707977.8074   18707982.2764
  21888935.993   -20311047.855 9 -15806130.963 9  21888937.783    21888943.673
  22129217.673   -14243356.86249 -11076253.15549  22129216.3874   22129222.2864
  21443474.634     3395550.33349   2640590.93949  21443476.4944   21443483.1574
 96  2 11 18 47 59.9940000  0  8 19 29 27 22 18 28 31 14
  20035954.755   -22535618.73549 -17529906.41749  20035955.7264   20035961.4124
  18944826.549   -10991938.17249  -8543733.43449  18944827.4744   18944831.7834
  22786838.433   -14736904.55149 -11108071.94649  22786840.3904   22786846.8194
  21656733.596     1018278.01549    799263.44949  21656733.8514   21656739.4684
  18688042.442   -20872655.57349 -15965294.80649  18688042.7434   18688047.0634
  21866194.516   -20430562.567 9 -15899259.339 9  21866194.595    21866200.825
  22099336.377   -14400376.72049 -11198606.27049  22099337.0424   22099342.2494
  21450956.706     3434863.88849   2671224.78949  21450957.2224   21450963.9654
 96  2 11 18 48 29.9940000  0  8 19 29 27 22 18 28 31 14
  20012719.858   -22657717.40549 -17625048.22949  20012720.9334   20012726.7534
  18937037.243   -11032867.99449  -8575626.81749  18937038.8134   18937043.1584
  22758662.493   -14884989.51549 -11223462.79249  22758661.3824   22758666.3304
  21662541.847     1048796.97749    823044.43349  21662542.0634   21662547.1594
  18668171.537   -20977077.41549 -16046662.47849  18668171.9654   18668176.4034
  21843516.265   -20549735.594 9 -15992121.441 9  21843517.217    21843522.856
  22069468.369   -14557321.58849 -11320900.89849  22069470.4874   22069477.5434
  21458458.837     3474300.60149   2701954.60949  21458462.4574   21458468.7674
 96  2 11 18 48 59.9940000  0  8 19 29 27 22 18 28 31 14
  19989519.064   -22779641.08349 -17720053.68149  19989519.9034   19989525.2624
  18929315.268   -11073445.44649  -8607245.62749  18929317.3774   18929321.3474
  22730483.403   -15033046.41449 -11338831.77149  22730485.8124   22730492.7414
  21668389.334     1079520.80949    846985.04249  21668388.5304   21668393.7094
  18648366.202   -21081151.90049 -16127759.48449  18648367.4984   18648371.7654
  21820906.067   -20668562.302 9 -16084713.707 9  21820904.900    21820911.176
  22039623.362   -14714176.89749 -11443125.76549  22039622.2134   22039629.2184
  21465988.570     3513853.55949   2732775.00149  21465989.1274   21465996.3634
 96  2 11 18 49 29.9940000  0  8 19 29 27 22 18 28 31 14
  19966353.128   -22901376.23949 -17814912.24249  19966354.5164   19966360.2254
  18921664.637   -11113652.93249  -8638576.15349  18921665.6504   18921670.1064
  22702318.398   -15181063.82849 -11454169.98949  22702319.1824   22702325.0864
  21674270.499     1110427.28049    871067.99149  21674269.7954   21674275.7434
  18628630.982   -21184864.28149 -16208574.33749  18628631.4014   18628635.8004
  21798358.175   -20787037.062 9 -16177031.741 9  21798359.922    21798366.297
  22009790.412   -14870936.59559 -11565276.12849  22009792.1714   22009798.4564
  21473533.334     3553500.87349   2763668.91549  21473534.5574   21473541.1544
 96  2 11 18 49 59.9940000  0  8 19 29 27 22 18 28 31 14
  19943222.495   -23022926.88149 -17909627.01549  19943224.0964   19943229.3884
  18914085.978   -11153478.04349  -8669608.71749  18914087.5734   18914091.7844
  22674159.407   -15329040.66149 -11569476.57749  22674161.2834   22674167.7704
  21680180.784     1141492.31649    895274.48849  21680181.6084   21680187.1264
  18608964.109   -21288214.07549 -16289106.64649  18608964.9004   18608969.0274
  21775879.951   -20905161.093 9 -16269076.442 9  21775881.905    21775887.384
  21979977.209   -15027606.07649 -11687356.16749  21979977.6974   21979984.7144
  21481094.039     3593230.91349   2794627.30149  21481094.5484   21481100.8134
 96  2 11 18 50 29.9940000  0  8 19 29 27 22 18 28 31 14
  19920123.564   -23144316.07149 -18004215.97649  19920124.2854   19920130.1954
  18906580.504   -11192920.06449  -8700342.76849  18906581.9764   18906586.1934
  22646004.674   -15476989.31949 -11684761.24149  22646005.5024   22646011.9194
  21686119.660     1172700.11049    919592.23449  21686120.5004   21686125.7914
  18589365.777   -21391203.10549 -16369357.84349  18589366.4784   18589370.6994
  21753468.825   -21022939.850 9 -16360852.080 9  21753469.088    21753474.463
  21950178.856   -15184205.40859 -11809381.57949  21950179.2124   21950184.9454
  21488667.123     3633029.76149   2825639.31649  21488667.6494   21488673.6084
 96  2 11 18 50 59.9940000  0  8 19 29 27 22 18 28 31 14
  19897052.447   -23265551.83449 -18098685.38749  19897054.1944   19897059.6154
  18899150.465   -11231964.60049  -8730767.09949  18899152.1004   18899156.2514
  22617858.921   -15624899.45449 -11800015.85849  22617859.5074   22617867.0764
  21692086.054     1204050.64749    944021.18849  21692086.2224   21692091.4404
  18569838.855   -21493818.00149 -16449317.51049  18569839.6234   18569844.2474
  21731123.330   -21140362.986 9 -16452350.632 9  21731124.349    21731130.630
  21920389.698   -15340742.79649 -11931358.70749  21920389.4864   21920397.2234
  21496256.299     3672912.01049   2856716.27749  21496257.3644   21496264.4384
 96  2 11 18 51 29.9940000  0  8 19 29 27 22 18 28 31 14
  19874013.427   -23386624.35749 -18193027.59049  19874015.0294   19874020.5574
  18891797.057   -11270608.12949  -8760878.95949  18891798.3604   18891802.5304
  22589723.909   -15772748.15549 -11915222.59149  22589724.3524   22589730.6034
  21698082.001     1235558.50149    968572.73649  21698082.1244   21698086.4594
  18550385.387   -21596048.93649 -16528977.98049  18550385.6614   18550390.0594
  21708848.780   -21257415.811 9 -16543560.609 9  21708850.392    21708856.164
  21890613.042   -15497208.97049 -12053280.32249  21890615.7614   21890622.5674
  21503865.565     3712894.97549   2887871.75549  21503865.5074   21503872.8284
 96  2 11 18 51 59.9940000  0  8 19 29 27 22 18 28 31 14
  19851003.242   -23507541.41549 -18287248.66649  19851005.1774   19851010.6284
  18884513.438   -11308881.10549  -8790702.07249  18884515.3994   18884519.7564
  22561598.263   -15920552.04149 -12030394.42549  22561599.2524   22561606.0004
  21704110.663     1267248.46049    993266.18349  21704111.6574   21704117.7504
  18531002.759   -21697902.82849 -16608344.65549  18531003.4364   18531007.8744
  21686645.335   -21374100.025 9 -16634483.376 9  21686646.046    21686652.009
  21860857.045   -15653599.43149 -12175142.99849  21860856.2544   21860862.4824
  21511495.606     3752993.45149   2919117.23549  21511496.2454   21511504.1774
 96  2 11 18 52 29.9940000  0  8 19 29 27 22 18 28 31 14
  19828026.769   -23628288.79649 -18381337.51749  19828027.8104   19828033.3514
  18877294.541   -11346818.52149  -8820263.71149  18877296.0944   18877300.2764
  22533480.311   -16068314.00449 -12145533.59949  22533480.2824   22533485.9974
  21710177.293     1299128.12249   1018107.44749  21710177.5984   21710184.2314
  18511691.302   -21799386.41149 -16687422.77149  18511691.7184   18511696.3834
  21664510.991   -21490415.563 9 -16725118.864 9  21664511.481    21664517.911
  21831110.125   -15809911.83649 -12296944.82249  21831111.6724   21831117.2454
  21519146.680     3793201.70849   2950448.22049  21519147.7404   21519154.5644
 96  2 11 18 52 59.9940000  0  8 19 29 27 22 18 28 31 14
  19805080.756   -23748865.36149 -18475293.26749  19805082.7994   19805088.0634
  18870136.829   -11384433.32649  -8849573.96749  18870138.2944   18870142.5294
  22505367.527   -16216040.01049 -12260644.73949  22505368.9764   22505375.2024
  21716276.770     1331182.09849   1043084.54549  21716277.6174   21716283.2854
  18492446.819   -21900515.10249 -16766224.35149  18492447.7624   18492452.1914
  21642445.351   -21606368.748 9 -16815471.989 9  21642446.382    21642452.648
  21801377.599   -15966144.59049 -12418684.58149  21801380.0584   21801387.0684
  21526817.936     3833518.55349   2981863.83849  21526819.9844   21526826.6224
 96  2 11 18 53 29.9930000  0  8 19 29 27 22 18 28 31 14
  19782170.849   -23869261.60149 -18569108.51049  19782172.2364   19782177.6394
  18863041.684   -11421718.28149  -8878627.19649  18863043.2264   18863047.4804
  22477264.243   -16363735.68649 -12375732.25949  22477263.4244   22477271.2514
  21722409.451     1363403.44549   1068192.07549  21722409.5574   21722415.8344
  18473272.916   -22001277.17749 -16844740.25549  18473273.2694   18473277.8994
  21620452.524   -21721945.552 9 -16905531.821 9  21620453.268    21620459.483
  21771670.516   -16122270.32849 -12540340.96149  21771670.8884   21771676.0034
  21534512.687     3873950.27049   3013368.95849  21534513.5414   21534521.2994
 96  2 11 18 53 59.9930000  0  8 19 29 27 22 18 28 31 14
  19759292.918   -23989486.94349 -18662790.58249  19759294.0854   19759299.1004
  18856011.093   -11458664.07249  -8907416.14749  18856012.6194   18856017.0154
  22449156.276   -16511427.11049 -12490816.42749  22449159.3234   22449165.7524
  21728568.576     1395772.37749   1093414.59249  21728568.6734   21728575.3054
  18454166.621   -22101680.38349 -16922976.52349  18454167.2694   18454171.7934
  21598530.693   -21837152.861 9 -16995303.758 9  21598530.332    21598535.903
  21741978.877   -16278296.55449 -12661919.80249  21741980.0324   21741984.9034
  21542229.376     3914495.21849   3044962.32849  21542229.8374   21542236.5824
 96  2 11 18 54 29.9930000  0  8 19 29 27 22 18 28 31 14
  19736447.313   -24109539.58849 -18756338.09349  19736448.8454   19736454.0994
  18849051.945   -11495234.19449  -8935912.36549  18849053.3974   18849057.8314
  22421058.281   -16659094.31949 -12605881.74649  22421058.9864   22421064.9314
  21734751.343     1428268.16949   1118735.97149  21734752.9004   21734758.9224
  18435129.457   -22201722.31049 -17000931.27649  18435130.0774   18435134.7784
  21576677.203   -21951983.068 9 -17084781.841 9  21576678.580    21576684.575
  21712311.798   -16434205.15449 -12783407.00149  21712310.9804   21712318.1134
  21549961.080     3955136.20249   3076630.53549  21549963.2814   21549970.4344
 96  2 11 18 54 59.9930000  0  8 19 29 27 22 18 28 31 14
  19713632.742   -24229431.91649 -18849760.68349  19713634.0504   19713639.0074
  18842170.381   -11531398.36649  -8964092.25549  18842171.8404   18842176.2704
  22392962.814   -16806723.28249 -12720917.26849  22392966.1694   22392973.1334
  21740961.013     1460889.88749   1144155.47949  21740960.7354   21740965.9674
  18416161.249   -22301399.56749 -17078601.87149  18416162.1764   18416166.8714
  21554899.574   -22066428.122 9 -17173959.786 9  21554900.614    21554906.135
  21682669.216   -16589975.33649 -12904786.33049  21682668.3934   21682675.9514
  21557714.239     3995876.31249   3108375.97449  21557715.8304   21557722.8764
 96  2 11 18 55 29.9930000  0  8 19 29 27 22 18 28 31 14
  19690849.308   -24349161.13549 -18943056.17049  19690850.1724   19690855.1934
  18835363.701   -11567167.25849  -8991964.13849  18835365.0484   18835369.3974
  22364875.884   -16954309.33149 -12835919.32749  22364881.8744   22364888.4754
  21747195.001     1493647.64649   1169680.97749  21747194.1534   21747199.9994
  18397263.780   -22400707.99949 -17155985.07149  18397264.1294   18397268.8774
  21533195.788   -22180484.469 9 -17262834.858 9  21533195.993    21533202.187
  21653052.997   -16745587.20349 -13026042.28449  21653054.9854   21653063.9464
  21565485.007     4036700.75949   3140187.12149  21565485.0104   21565491.6664
 96  2 11 18 55 59.9930000  0  8 19 29 27 22 18 28 31 14
  19668093.208   -24468740.39849 -19036234.80549  19668094.9144   19668100.3574
  18828628.808   -11602559.92349  -9019542.86249  18828630.2334   18828634.4534
  22336804.509   -17101852.56049 -12950888.02549  22336805.0614   22336811.8564
  21753453.765     1526540.40049   1195311.68349  21753453.6074   21753459.0744
  18378430.946   -22499671.67849 -17233099.63049  18378432.0394   18378436.6964
  21511562.316   -22294166.095 9 -17351417.939 9  21511563.465    21511569.401
  21623472.775   -16901047.04749 -13147179.80749  21623474.0864   21623481.4844
  21573262.626     4077586.72949   3172046.20349  21573264.6864   21573272.2224
 96  2 11 18 56 29.9930000  0  8 19 29 27 22 18 28 31 14
  19645368.770   -24588163.24649 -19129291.55849  19645369.6634   19645374.8414
  18821963.474   -11637585.67249  -9046835.67049  18821965.0514   18821969.3604
  22308735.439   -17249343.55349 -13065816.04149  22308739.2834   22308745.3384
  21759739.848     1559577.21149   1221054.61849  21759740.8694   21759746.2344
  18359666.909   -22598279.72749 -17309937.08149  18359667.4754   18359672.0794
  21490003.675   -22407462.216 9 -17439700.622 9  21490003.220    21490009.481
  21593922.294   -17056338.92749 -13268186.45249  21593923.4354   21593928.9394
  21581060.271     4118541.94749   3203959.24649  21581059.2034   21581066.4064
 96  2 11 18 56 59.9930000  0  8 19 29 27 22 18 28 31 14
  19622668.757   -24707450.31049 -19222242.50649  19622670.0284   19622675.0044
  18815363.456   -11672270.51849  -9073862.84249  18815364.7114   18815368.8084
  22280676.033   -17396809.97249 -13180724.89449  22280676.0094   22280683.6744
  21766053.156     1592746.56849   1246900.85249  21766052.8534   21766057.7484
  18340968.743   -22696539.18749 -17386502.89549  18340969.3294   18340973.8004
  21468513.042   -22520383.591 9 -17527691.301 9  21468515.206    21468521.273
  21564398.003   -17211483.98349 -13389078.68949  21564400.6734   21564407.0364
  21588862.112     4159562.51949   3235923.22849  21588864.7534   21588871.5544
 96  2 11 18 57 29.9930000  0  8 19 29 27 22 18 28 31 14
  19599997.983   -24826586.12449 -19315075.60249  19599999.6404   19600004.8354
  18808829.827   -11706605.86349  -9100617.68249  18808830.9924   18808835.0614
  22252619.205   -17544242.73749 -13295607.51349  22252619.9384   22252626.8584
  21772392.398     1626061.54949   1272860.54249  21772392.2684   21772397.4234
  18322340.863   -22794431.12249 -17462782.33449  18322341.3314   18322345.5274
  21447100.492   -22632913.998 9 -17615377.339 9  21447101.588    21447107.690
  21534905.621   -17366479.34349 -13509854.29649  21534904.9194   21534911.9324
  21596681.479     4200662.94849   3267949.42849  21596685.7704   21596693.4084
 96  2 11 18 57 59.9930000  0  8 19 29 27 22 18 28 31 14
  19577354.982   -24945575.79749 -19407794.81749  19577356.2404   19577361.6634
  18802363.765   -11740585.09349  -9127095.02949  18802365.0914   18802369.2014
  22224570.242   -17691639.27049 -13410461.89149  22224572.4684   22224577.6944
  21778758.597     1659510.81249   1298924.88849  21778758.0354   21778763.1324
  18303781.984   -22891955.98249 -17538775.73649  18303782.9954   18303787.2684
  21425762.356   -22745051.978 9 -17702757.572 9  21425762.741    21425768.474
  21505431.976   -17521354.68749 -13630536.36749  21505433.1394   21505440.3284
  21604522.448     4241839.62949   3300035.03949  21604521.4324   21604529.3174
 96  2 11 18 58 29.9930000  0  8 19 29 27 22 18 28 31 14
  19554737.869   -25064429.26249 -19500407.89849  19554739.2604   19554744.5764
  18795967.517   -11774197.22049  -9153286.32349  18795968.9684   18795973.2024
  22196528.493   -17839005.14449 -13525292.38949  22196529.3204   22196536.2604
  21785148.204     1693094.27049   1325093.77349  21785148.0884   21785154.1404
  18285295.794   -22989102.51649 -17614474.33749  18285296.4514   18285301.0734
  21404498.498   -22856798.596 9 -17789832.868 9  21404498.089    21404503.980
  21475980.286   -17676125.12349 -13751136.70749  21475981.7214   21475988.3614
  21612370.191     4283080.26349   3332170.49049  21612369.6524   21612375.5344
 96  2 11 18 58 59.9930000  0  8 19 29 27 22 18 28 31 14
  19532147.760   -25183141.85449 -19592911.20549  19532149.2714   19532154.1884
  18789643.823   -11807428.68849  -9179181.00249  18789644.9054   18789649.1414
  22168493.123   -17986334.55649 -13640094.50049  22168493.3544   22168500.1374
  21791566.373     1726827.60949   1351379.44149  21791567.3854   21791572.4584
  18266882.106   -23085868.87749 -17689876.69849  18266882.2644   18266886.8944
  21383308.623   -22968149.410 9 -17876599.727 9  21383308.594    21383314.622
  21446548.295   -17830796.74749 -13871660.03949  21446548.5024   21446554.6744
  21620224.136     4324365.72649   3364340.85249  21620225.9354   21620231.7514
 96  2 11 18 59 29.9930000  0  8 19 29 27 22 18 28 31 14
  19509588.249   -25301690.96849 -19685287.12249  19509589.7954   19509594.8514
  18783394.735   -11840268.36049  -9204770.37749  18783396.0444   18783400.0384
  22140467.518   -18133613.05849 -13754856.92149  22140468.4204   22140474.8394
  21798017.453     1760721.13649   1377789.95849  21798017.5834   21798022.2314
  18248542.853   -23182241.24849 -17764972.05349  18248543.3964   18248547.8724
  21362197.633   -23079091.435 9 -17963048.046 9  21362196.734    21362202.931
  21417134.127   -17985362.47349 -13992100.88549  21417136.3234   21417143.4434
  21628088.930     4365687.51549   3396539.55049  21628090.4274   21628095.9354
 96  2 11 18 59 59.9930000  0  8 19 29 27 22 18 28 31 14
  19487061.963   -25420069.14649 -19777529.84749  19487062.8784   19487068.2864
  18777221.065   -11872708.64949  -9230048.54449  18777222.6284   18777227.1684
  22112448.821   -18280851.75249 -13869588.32849  22112448.8634   22112454.8174
  21804496.266     1794765.66849   1404318.12749  21804495.5904   21804501.7694
  18230278.882   -23278216.52849 -17839757.98949  18230280.0024   18230284.5444
  21341163.380   -23189623.441 9 -18049176.880 9  21341163.680    21341169.109
  21387742.494   -18139814.60349 -14112453.20049  21387744.4004   21387750.5434
  21635957.196     4407036.29849   3428759.28649  21635958.4524   21635964.2794
 96  2 11 19  0 29.9930000  0  8 19 29 27 22 18 28 31 14
  19464568.837   -25538269.22949 -19869633.79549  19464570.5854   19464575.6884
  18771126.101   -11904739.40849  -9255007.59549  18771127.6914   18771131.9004
  22084436.637   -18428059.55549 -13984295.66149  22084436.8734   22084442.3994
  21811001.547     1828955.50849   1430959.54249  21811002.1354   21811006.9204
  18212091.782   -23373794.47449 -17914234.30849  18212091.8764   18212096.5344
  21320208.292   -23299743.005 9 -18134984.335 9  21320208.669    21320213.912
  21358379.348   -18294124.29949 -14232694.52349  21358380.7694   21358386.5714
  21643834.230     4448420.65549   3461006.74649  21643833.3734   21643840.1174
 96  2 11 19  0 59.9930000  0  8 19 29 27 22 18 28 31 14
  19442109.241   -25656296.86549 -19961603.37249  19442110.5744   19442115.8704
  18765101.989   -11936395.36749  -9279674.60049  18765103.4844   18765108.0164
  22056426.429   -18575248.69149 -14098988.47749  22056427.2274   22056432.1084
  21817528.299     1863259.73949   1457690.09449  21817528.6644   21817534.7844
  18193975.871   -23468993.36049 -17988415.26049  18193976.3744   18193980.8624
  21299329.924   -23409457.953 9 -18220476.499 9  21299330.255    21299336.494
  21329042.295   -18448285.57149 -14352820.21749  21329044.2434   21329052.0244
  21651712.145     4489834.34749   3493277.03649  21651713.5294   21651719.4734
 96  2 11 19  1 29.9930000  0  8 19 29 27 22 18 28 31 14
  19419681.907   -25774148.82749 -20053436.05549  19419683.9324   19419689.2594
  18759150.175   -11967675.57949  -9304048.80949  18759151.0504   18759155.7824
  22028425.876   -18722401.82549 -14213653.20549  22028425.4434   22028430.8964
  21824074.408     1897668.69549   1484502.23449  21824076.8664   21824083.6984
  18175933.811   -23563801.38249 -18062291.64149  18175934.7994   18175939.4954
  21278529.409   -23518759.940 9 -18305646.878 9  21278530.580    21278536.586
  21299740.394   -18602270.80849 -14472808.70649  21299741.9694   21299748.9804
  21659604.443     4531301.67149   3525589.12749  21659604.4854   21659611.1124
 96  2 11 19  1 59.9930000  0  8 19 29 27 22 18 28 31 14
  19397291.258   -25891818.88849 -20145126.99949  19397291.9454   19397297.4504
  18753269.925   -11998574.49249  -9328125.91049  18753271.4584   18753275.6054
  22000429.432   -18869510.43049 -14328283.25349  22000430.6884   22000436.0584
  21830643.958     1932188.17149   1511400.48749  21830645.5614   21830652.3164
  18157970.071   -23658204.57449 -18135852.57149  18157970.5844   18157975.1594
  21257810.989   -23627642.467 9 -18390490.400 9  21257811.203    21257817.010
  21270473.891   -18756055.21049 -14592640.68649  21270477.5204   21270483.8364
  21667508.947     4572838.14749   3557955.07549  21667510.8244   21667518.8404
 96  2 11 19  2 29.9930000  0  8 19 29 27 22 18 28 31 14
  19374930.665   -26009321.06249 -20236687.12349  19374932.1364   19374937.5714
  18747459.468   -12029107.29549  -9351917.72449  18747461.1024   18747465.5924
  21972446.832   -19016565.46449 -14442871.54749  21972448.1524   21972453.5264
  21837237.224     1966826.85349   1538391.62849  21837237.3694   21837244.1664
  18140082.989   -23752199.70749 -18209095.53249  18140083.9084   18140088.4924
  21237169.137   -23736106.203 9 -18475007.594 9  21237171.300    21237176.923
  21241251.449   -18909637.29949 -14712315.05849  21241251.3444   21241259.5104
  21675425.453     4614443.24149   3590374.50349  21675426.8914   21675435.1494
 96  2 11 19  2 59.9930000  0  8 19 29 27 22 18 28 31 14
  19352601.160   -26126663.49949 -20328122.77549  19352602.5544   19352608.0644
  18741717.251   -12059283.86649  -9375431.96049  18741718.5804   18741722.8414
  21944470.172   -19163573.54849 -14557423.27149  21944472.4514   21944477.5684
  21843851.940     2001588.50349   1565478.59649  21843853.2644   21843858.9884
  18122274.085   -23845786.34149 -18282020.18549  18122274.9934   18122279.5514
  21216610.681   -23844151.043 9 -18559198.382 9  21216610.507    21216617.116
  21212062.550   -19063021.22749 -14831834.99849  21212062.7514   21212071.2894
  21683353.619     4656108.79749   3622841.05449  21683354.9874   21683361.3864
 96  2 11 19  3 29.9930000  0  8 19 29 27 22 18 28 31 14
  19330304.237   -26243839.17249 -20419428.48349  19330304.9774   19330310.1434
  18736045.563   -12089089.15149  -9398656.88249  18736046.8484   18736051.4004
  21916502.804   -19310545.31649 -14671946.68949  21916503.8684   21916510.5144
  21850489.857     2036469.83849   1592658.83449  21850490.1354   21850496.1514
  18104544.516   -23938956.90049 -18354620.62149  18104545.3294   18104549.7204
  21196129.060   -23951776.926 9 -18643062.705 9  21196129.900    21196136.439
  21182910.078   -19216219.10749 -14951209.95949  21182911.5514   21182917.5444
  21691294.583     4697840.21849   3655358.91549  21691295.9784   21691305.4744
 96  2 11 19  3 59.9930000  0  8 19 29 27 22 18 28 31 14
  19308036.613   -26360851.89549 -20510607.21949  19308037.7724   19308043.6644
  18730445.055   -12118521.24749  -9421591.00849  18730446.4314   18730450.3304
  21888537.463   -19457502.73949 -14786458.91249  21888538.9204   21888545.5184
  21857148.477     2071465.67449   1619928.26849  21857149.5584   21857156.1524
  18086891.690   -24031723.64349 -18426906.39649  18086892.4164   18086896.9194
  21175730.745   -24058984.576 9 -18726601.131 9  21175729.742    21175735.026
  21153794.170   -19369244.08049 -15070450.20249  21153791.6754   21153798.1224
  21699244.500     4739628.48749   3687921.08049  21699248.9964   21699255.6304
 96  2 11 19  4 29.9920000  0  8 19 29 27 22 18 28 31 14
  19285801.183   -26477699.05249 -20601656.93849  19285802.8324   19285808.1964
  18724915.016   -12147578.44949  -9444233.00449  18724916.7634   18724921.2114
  21860577.184   -19604443.43449 -14900958.11449  21860577.3914   21860583.5664
  21863828.920     2106566.43149   1647279.49849  21863829.1504   21863835.7784
  18069311.370   -24124106.58049 -18498893.10249  18069312.3044   18069317.0334
  21155408.317   -24165764.907 9 -18809806.579 9  21155409.530    21155415.328
  21124706.911   -19522087.96949 -15189549.34649  21124706.7354   21124713.3394
  21707209.218     4781468.37549   3720523.46649  21707211.1384   21707218.3904
 96  2 11 19  4 59.9920000  0  8 19 29 27 22 18 28 31 14
  19263599.229   -26594373.01049 -20692571.70349  19263600.2984   19263605.7594
  18719458.591   -12176254.53349  -9466578.02149  18719460.0584   18719464.3804
  21832616.696   -19751376.07849 -15015451.03449  21832617.3784   21832623.6184
  21870529.033     2141764.02349   1674706.17649  21870526.8424   21870532.7744
  18051803.510   -24216110.76749 -18570584.67249  18051804.6354   18051809.0134
  21135170.392   -24272119.196 9 -18892680.057 9  21135171.221    21135177.210
  21095653.728   -19674755.05649 -15308510.70149  21095654.8804   21095661.9644
  21715181.152     4823358.34149   3753164.89649  21715181.6064   21715188.7954
 96  2 11 19  5 29.9920000  0  8 19 29 27 22 18 28 31 14
  19241432.484   -26710862.24949 -20783342.53249  19241433.4054   19241438.3984
  18714077.658   -12204532.52949  -9488612.84249  18714078.7614   18714083.0084
  21804664.226   -19898265.26449 -15129910.08349  21804664.9404   21804671.4254
  21877243.944     2177065.39449   1702213.70849  21877245.1274   21877250.6454
  18034371.596   -24307717.30949 -18641966.39649  18034372.5134   18034376.9724
  21115017.330   -24378032.419 9 -18975209.833 9  21115016.739    21115022.708
  21066636.271   -19827231.57149 -15427323.56549  21066639.0634   21066646.2884
  21723162.687     4865295.11249   3785842.77649  21723163.1904   21723172.0984
 96  2 11 19  5 59.9920000  0  8 19 29 27 22 18 28 31 14
  19219296.829   -26827183.74249 -20873982.65049  19219297.9534   19219303.2984
  18708770.652   -12232420.20649  -9510343.52049  18708772.2864   18708776.3004
  21776723.183   -20045099.64449 -15244326.44349  21776723.7204   21776730.1404
  21883983.166     2212476.34249   1729806.63349  21883983.7754   21883989.7144
  18017013.030   -24398937.73849 -18713047.25149  18017013.9184   18017018.5074
  21094945.148   -24483508.388 9 -19057398.905 9  21094945.492    21094950.887
  21037660.698   -19979513.00249 -15545984.42249  21037661.1534   21037668.6654
  21731142.852     4907246.68849   3818532.19249  21731145.9634   21731154.5754
 96  2 11 19  6 29.9920000  0  8 19 29 27 22 18 28 31 14
  19197192.958   -26943337.18349 -20964491.81949  19197194.9064   19197199.9424
  18703536.087   -12259927.48249  -9531777.78349  18703537.6684   18703541.8964
  21748792.349   -20191870.24649 -15358693.11749  21748794.6694   21748799.7654
  21890741.493     2247991.91949   1757481.09949  21890741.9514   21890747.9664
  17999731.700   -24489750.44249 -18783810.40049  17999732.7774   17999737.3224
  21074957.507   -24588544.782 9 -19139245.433 9  21074957.529    21074963.235
  21008720.655   -20131596.95449 -15664491.41149  21008721.4884   21008727.3944
  21739129.834     4949199.40649   3851222.50849  21739128.8874   21739134.9194
 96  2 11 19  6 59.9920000  0  8 19 29 27 22 18 28 31 14
  19175121.687   -27059326.29349 -21054872.93749  19175122.7764   19175127.9924
  18698375.181   -12287049.86849  -9552912.12849  18698376.3554   18698380.6994
  21720876.888   -20338569.54849 -15473004.18149  21720877.1554   21720883.4954
  21897519.965     2283611.30649   1785236.44949  21897519.6284   21897526.1414
  17982533.481   -24580129.22349 -18854235.42649  17982534.1974   17982538.7124
  21055053.777   -24693141.130 9 -19220749.077 9  21055053.376    21055059.590
  20979815.154   -20283493.24749 -15782852.17249  20979815.9324   20979821.4554
  21747111.400     4991144.26449   3883906.69749  21747110.7734   21747117.7764
 96  2 11 19  7 29.9920000  0  8 19 29 27 22 18 28 31 14
  19153081.255   -27175151.16749 -21145126.07549  19153082.2254   19153087.3204
  18693288.022   -12313782.62149  -9573742.86549  18693289.3604   18693293.6264
  21692976.087   -20485188.46449 -15587252.63949  21692976.9894   21692982.5634
  21904316.734     2319337.58949   1813075.10249  21904317.5604   21904323.2034
  17965418.371   -24670069.45749 -18924318.72949  17965419.2854   17965423.8754
  21035233.983   -24797287.567 9 -19301902.144 9  21035234.916    21035240.970
  20950947.822   -20435194.38049 -15901060.83349  20950948.3234   20950955.1464
  21755094.413     5033093.60359   3916594.38249  21755095.0034   21755102.2724
 96  2 11 19  7 59.9920000  0  8 19 29 27 22 18 28 31 14
  19131070.207   -27290816.91549 -21235255.21549  19131071.6534   19131076.6514
  18688271.971   -12340141.78749  -9594282.49749  18688273.4504   18688277.7414
  21665086.997   -20631749.52349 -15701456.00049  21665087.4214   21665093.3514
  21911133.995     2355155.33749   1840984.99249  21911134.3154   21911139.2564
  17948385.216   -24759579.61149 -18994066.90049  17948386.1364   17948390.5324
  21015501.928   -24900987.078 9 -19382706.942 9  21015502.021    21015507.539
  20922117.239   -20586698.90549 -16019116.29549  20922117.8044   20922123.9354
  21763076.038     5075046.52049   3949284.85649  21763077.6694   21763086.5574
 96  2 11 19  8 29.9920000  0  8 19 29 27 22 18 28 31 14
  19109088.204   -27406334.94449 -21325269.25549  19109089.2964   19109094.5474
  18683325.558   -12366135.21449  -9614537.14449  18683327.3204   18683331.6134
  21637203.997   -20778278.17549 -15815634.12349  21637203.8174   21637209.4424
  21917962.517     2391038.30349   1868945.72949  21917962.7144   21917967.2884
  17931432.234   -24848667.82249 -19063486.29349  17931433.0624   17931437.6454
  20995850.889   -25004249.029 9 -19463170.795 9  20995852.109    20995857.718
  20893324.148   -20738006.40549 -16137018.24949  20893325.9794   20893331.3394
  21771059.910     5117005.46949   3981980.02149  21771062.1074   21771072.5374
 96  2 11 19  8 59.9920000  0  8 19 29 27 22 18 28 31 14
  19087133.433   -27521706.50949 -21415169.17149  19087134.7004   19087139.7404
  18678450.916   -12391754.34749  -9634500.13349  18678452.1864   18678456.3504
  21609323.527   -20924774.75149 -15929787.24749  21609325.5324   21609331.7824
  21924803.449     2426989.20449   1896959.41749  21924803.3234   21924808.6734
  17914558.106   -24937342.62549 -19132583.54349  17914558.9104   17914563.4264
  20976283.718   -25107072.389 9 -19543292.876 9  20976285.140    20976290.931
  20864571.836   -20889104.85149 -16254757.29249  20864572.1234   20864578.8394
  21779048.023     5158976.04649   4014684.25149  21779048.5354   21779058.7624
 96  2 11 19  9 29.9920000  0  8 19 29 27 22 18 28 31 14
  19065209.095   -27636918.67349 -21504944.87249  19065210.7954   19065215.6724
  18673646.376   -12417000.24949  -9654172.28849  18673647.6324   18673652.1354
  21581453.230   -21071243.00349 -16043918.30349  21581454.4194   21581459.0464
  21931659.219     2463018.66349   1925034.30249  21931659.5214   21931665.6634
  17897763.314   -25025598.99149 -19201354.74049  17897764.1284   17897768.6764
  20956802.928   -25209447.142 9 -19623065.400 9  20956803.624    20956809.598
  20835862.481   -21039966.25749 -16372311.62549  20835863.6884   20835870.6984
  21787038.763     5200971.28249   4047407.67549  21787041.1634   21787049.1474
 96  2 11 19  9 59.9920000  0  8 19 29 27 22 18 28 31 14
  19043317.284   -27751961.97049 -21594588.99549  19043318.6364   19043323.9134
  18668915.375   -12441865.09249  -9673547.51349  18668916.4574   18668920.9134
  21553585.930   -21217692.30949 -16158034.61049  21553586.3184   21553590.7974
  21938532.155     2499130.48849   1953173.35449  21938532.3614   21938537.6404
  17881051.260   -25113421.73249 -19269788.05149  17881052.2074   17881056.7524
  20937407.562   -25311369.409 9 -19702485.323 9  20937408.471    20937414.073
  20807204.536   -21190566.94249 -16489662.81149  20807205.3754   20807211.5974
  21795034.084     5242981.48649   4080142.76549  21795034.2124   21795042.4634
 96  2 11 19 10 29.9920000  0  8 19 29 27 22 18 28 31 14
  19021463.172   -27866808.96449 -21684080.15749  19021463.8944   19021469.0794
  18664257.495   -12466337.29349  -9692616.78549  18664259.3284   18664263.8174
  21525721.797   -21364108.99549 -16272125.47049  21525724.0174   21525728.3534
  21945419.558     2535336.68849   1981385.93549  21945421.3334   21945428.0524
  17864426.002   -25200789.14349 -19337866.55949  17864426.7094   17864431.2654
  20918101.541   -25412826.627 9 -19781542.859 9  20918101.403    20918107.468
  20778599.015   -21340896.59349 -16606802.81049  20778599.8634   20778605.1554
  21803034.862     5285020.20249   4112900.07249  21803034.7954   21803041.6414
 96  2 11 19 10 59.9920000  0  8 19 29 27 22 18 28 31 14
  18999644.269   -27981460.22249 -21773418.79149  18999646.3004   18999651.8304
  18659673.690   -12490427.97649  -9711388.76449  18659675.2684   18659679.3454
  21497866.114   -21510497.15249 -16386194.13349  21497867.4984   21497872.5884
  21952327.458     2571633.12149   2009668.82549  21952328.7384   21952335.6694
  17847886.540   -25287704.94649 -19405593.16549  17847886.9354   17847891.5554
  20898880.619   -25513824.429 9 -19860242.415 9  20898882.117    20898888.040
  20750037.101   -21490979.54549 -16723750.57349  20750039.3684   20750046.0494
  21811034.727     5327071.25149   4145666.99649  21811037.6054   21811044.8184
 96  2 11 19 11 29.9920000  0  8 19 29 27 22 18 28 31 14
  18977866.448   -28095906.04349 -21862597.34649  18977868.3924   18977873.4734
  18655161.825   -12514135.31049  -9729862.03949  18655163.9104   18655168.4794
  21470016.611   -21656847.79549 -16500233.54949  21470018.0084   21470022.9434
  21959252.394     2608011.79449   2038015.80349  21959251.5164   21959257.6094
  17831432.207   -25374171.28249 -19472969.53849  17831433.1504   17831437.7014
  20879751.695   -25614357.234 9 -19938579.613 9  20879752.063    20879757.472
  20721525.892   -21640819.75849 -16840509.18349  20721525.9804   20721531.2834
  21819039.681     5369129.47849   4178439.50749  21819040.5304   21819047.9254
 96  2 11 19 11 59.9920000  0  8 19 29 27 22 18 28 31 14
  18956125.156   -28210158.81049 -21951625.47249  18956126.6434   18956131.8874
  18650722.119   -12537470.21449  -9748045.10749  18650723.3794   18650727.4844
  21442176.040   -21803147.62049 -16614233.35349  21442178.2474   21442182.3594
  21966185.413     2644453.55149   2066411.93849  21966186.0194   21966192.5284
  17815061.298   -25460199.30049 -19540004.36849  17815062.4474   17815066.9914
  20860708.327   -25714427.112 9 -20016556.091 9  20860709.119    20860714.783
  20693051.481   -21790441.88349 -16957097.85949  20693053.1434   20693059.6884
  21827042.168     5411183.88549   4211209.04349  21827043.4104   21827051.5084
 96  2 11 19 12 29.9920000  0  8 19 29 27 22 18 28 31 14
  18934417.688   -28324235.87549 -22040516.68749  18934418.4794   18934423.5114
  18646352.119   -12560435.64049  -9765940.27649  18646352.9784   18646357.4774
  21414347.914   -21949375.58449 -16728177.18349  21414351.3334   21414356.4384
  21973131.977     2680964.78149   2094862.21949  21973133.3924   21973139.5134
  17798772.999   -25545797.28349 -19606704.10449  17798773.7034   17798778.3654
  20841754.435   -25814028.216 9 -20094167.291 9  20841755.706    20841761.386
  20664618.486   -21939863.26949 -17073530.10949  20664619.0724   20664625.7004
  21835040.433     5453230.29849   4243972.33849  21835044.3394   21835050.6064
 96  2 11 19 12 59.9920000  0  8 19 29 27 22 18 28 31 14
  18912738.344   -28438158.02649 -22129287.19649  18912739.7724   18912744.9784
  18642052.408   -12583026.06049  -9783543.22949  18642054.4864   18642058.7624
  21386538.575   -22095529.32749 -16842063.18149  21386538.7494   21386544.1004
  21980095.365     2717539.99349   2123362.36049  21980094.6134   21980100.2834
  17782561.790   -25630987.16949 -19673085.84149  17782562.5144   17782567.0384
  20822891.256   -25913158.563 9 -20171411.666 9  20822891.532    20822896.979
  20636226.280   -22089071.39349 -17189796.17449  20636226.2654   20636232.1884
  21843039.997     5495250.04149   4276714.85449  21843040.2964   21843049.3494
 96  2 11 19 13 29.9920000  0  8 19 29 27 22 18 28 31 14
  18891088.800   -28551925.51649 -22217937.18349  18891090.5884   18891096.0474
  18637824.466   -12605249.50749  -9800860.23249  18637825.3064   18637829.6274
  21358740.769   -22241599.18849 -16955883.80249  21358743.0794   21358747.9744
  21987068.070     2754179.19849   2151912.36249  21987067.0554   21987071.7884
  17766425.935   -25715779.63849 -19739157.90549  17766427.0794   17766431.7724
  20804117.083   -26011816.053 9 -20248287.590 9  20804117.864    20804123.110
  20607877.443   -22238037.67349 -17305873.81249  20607878.6464   20607885.9914
  21851029.931     5537240.49349   4309434.53349  21851031.5724   21851040.0044
 96  2 11 19 13 59.9920000  0  8 19 29 27 22 18 28 31 14
  18869467.992   -28665544.40049 -22306471.37349  18869469.5904   18869474.9134
  18633666.151   -12627097.36849  -9817884.55949  18633667.9784   18633672.2404
  21330959.046   -22387595.59949 -17069647.18849  21330960.7954   21330965.7924
  21994056.126     2790899.79649   2180525.78649  21994054.4864   21994060.6624
  17750367.312   -25800168.98649 -19804915.84549  17750368.4154   17750373.0274
  20785433.694   -26109996.935 9 -20324792.124 9  20785434.534    20785439.987
  20579580.032   -22386740.07349 -17421745.80549  20579581.7334   20579587.5924
  21859017.795     5579206.73149   4342135.34449  21859017.9104   21859025.5704
 96  2 11 19 14 29.9920000  0  8 19 29 27 22 18 28 31 14
  18847876.622   -28779010.52449 -22394886.53249  18847877.8964   18847882.9224
  18629582.936   -12648556.36449  -9834605.88649  18629584.5514   18629589.0294
  21303186.325   -22533544.34749 -17183373.43849  21303188.1964   21303192.9724
  22001059.938     2827710.46949   2209209.37249  22001058.9754   22001066.1094
  17734384.450   -25884161.75149 -19870364.76449  17734385.1824   17734389.6794
  20766841.058   -26207706.539 9 -20400929.428 9  20766841.298    20766846.683
  20551337.575   -22535159.17449 -17537397.03949  20551337.8064   20551344.5564
  21866998.180     5621145.60549   4374814.81249  21866999.1454   21867007.1594
 96  2 11 19 14 59.9920000  0  8 19 29 27 22 18 28 31 14
  18826318.029   -28892300.89749 -22483164.74049  18826319.2774   18826324.1974
  18625575.222   -12669616.64249  -9851016.51749  18625576.7194   18625581.0054
  21275421.765   -22679445.30349 -17297062.45549  21275423.1044   21275428.7484
  22008082.289     2864612.31749   2237964.01349  22008081.7474   22008087.5514
  17718478.878   -25967743.14449 -19935493.12849  17718479.9494   17718484.6864
  20748337.347   -26304940.343 9 -20476695.977 9  20748338.082    20748343.619
  20523151.742   -22683277.72949 -17652814.09049  20523151.6984   20523158.0454
  21874978.106     5663077.26349   4407488.68649  21874977.1904   21874985.0884
 96  2 11 19 15 29.9920000  0  8 19 29 27 22 18 28 31 14
  18804795.247   -29005405.20549 -22571297.96349  18804796.4074   18804801.3944
  18621644.576   -12690272.74349  -9867112.20449  18621646.1344   18621650.5184
  21247668.881   -22825293.61849 -17410710.44449  21247668.4234   21247674.1644
  22015122.848     2901617.95849   2266799.52749  22015122.7034   22015129.4844
  17702658.041   -26050882.73649 -20000277.23649  17702659.1374   17702663.9974
  20729925.899   -26401695.228 9 -20552089.348 9  20729926.323    20729931.724
  20495022.270   -22831099.22249 -17767999.64549  20495022.9914   20495029.0694
  21882959.518     5705022.12649   4440172.85649  21882959.8864   21882966.2934
 96  2 11 19 15 59.9910000  0  8 19 29 27 22 18 28 31 14
  18783306.377   -29118325.13849 -22659287.51149  18783308.1604   18783313.0924
  18617792.403   -12710517.60549  -9882887.44549  18617793.6294   18617798.0924
  21219924.412   -22971081.94449 -17524311.70749  21219927.1144   21219932.7694
  22022181.933     2938724.89449   2295713.98449  22022184.9574   22022190.4514
  17686926.383   -26133554.36049 -20064696.69049  17686927.2034   17686931.8984
  20711607.798   -26497962.006 9 -20627102.371 9  20711607.371    20711612.801
  20466946.921   -22978636.40749 -17882963.65049  20466947.2434   20466953.7414
  21890943.543     5746985.74049   4472871.66249  21890945.1044   21890952.5734
 96  2 11 19 16 29.9910000  0  8 19 29 27 22 18 28 31 14
  18761852.558   -29231068.42749 -22747139.42249  18761854.0224   18761858.9424
  18614015.744   -12730363.45449  -9898351.76849  18614017.2264   18614021.5714
  21192195.067   -23116806.25549 -17637863.08049  21192195.4794   21192201.7264
  22029259.110     2975912.08949   2324690.97849  22029261.0794   22029267.0244
  17671283.886   -26215755.69049 -20128749.67949  17671284.9704   17671289.4134
  20693378.699   -26593746.935 9 -20701739.929 9  20693379.995    20693385.485
  20438918.448   -23125916.90849 -17997727.65749  20438920.6804   20438927.0714
  21898934.009     5788959.98749   4505578.74759  21898933.8114   21898939.5494
 96  2 11 19 16 59.9910000  0  8 19 29 27 22 18 28 31 14
  18740431.045   -29343637.36149 -22834855.47249  18740432.7234   18740437.9834
  18610312.601   -12749819.59449  -9913512.42949  18610314.6854   18610319.0824
  21164479.248   -23262449.66549 -17751351.42049  21164480.8104   21164486.7504
  22036346.825     3013158.31549   2353713.98249  22036348.9944   22036355.5024
  17655732.657   -26297478.87549 -20192430.09549  17655733.5374   17655738.0344
  20675244.627   -26689049.524 9 -20776001.641 9  20675244.318    20675250.312
  20410941.757   -23272945.90249 -18112295.69149  20410942.4404   20410948.2964
  21906919.835     5830934.849 9   4538286.30959                  21906929.1204
 96  2 11 19 17 29.9910000  0  8 19 29 27 22 18 28 31 14
  18719042.967   -29456036.01149 -22922438.83349  18719043.9234   18719048.8104
  18606682.526   -12768901.96249  -9928381.83249  18606683.6004   18606687.7244
  21136776.600   -23408023.54949 -17864785.57549  21136779.8054   21136784.9574
  22043442.048     3050441.61249   2382765.86649  22043443.7194   22043449.8944
  17640270.694   -26378733.53649 -20255745.41949  17640271.1434   17640275.6184
  20657199.327   -26783869.194 9 -20849887.054 9  20657200.682    20657205.953
  20383011.180   -23419719.87249 -18226664.99449  20383012.3104   20383018.6794
  21914902.498     5872889.95159   4570978.44659  21914904.0294   21914912.7074
 96  2 11 19 17 59.9910000  0  8 19 29 27 22 18 28 31 14
  18697687.213   -29568255.86149 -23009882.86749  18697689.5294   18697694.5804
  18603121.661   -12787610.91849  -9942960.26849  18603123.2674   18603127.7164
  21109087.893   -23553540.36449 -17978175.26149  21109088.2634   21109094.2964
  22050539.598     3087742.86449   2411831.73549  22050541.8084   22050548.5564
  17624895.272   -26459531.07449 -20318704.54549  17624896.0304   17624900.4774
  20639250.176   -26878199.281 9 -20923390.969 9  20639250.639    20639255.863
  20355131.829   -23566225.53949 -18340825.24349  20355131.7844   20355139.4524
  21922880.576     5914805.412 9   4603639.72559                  21922889.2474
 96  2 11 19 18 29.9910000  0  8 19 29 27 22 18 28 31 14
  18676369.447   -29680285.70049 -23097178.83449  18676370.9604   18676375.7464
  18599633.043   -12805944.21449  -9957245.97849  18599634.5574   18599639.0934
  21081402.630   -23699024.63649 -18091539.59949  21081404.2844   21081409.2354
  22057642.308     3125056.57749   2440907.33149  22057642.2504   22057648.2424
  17609604.004   -26539886.90549 -20381319.47549  17609604.9004   17609609.4124
  20621391.310   -26972043.946 9 -20996516.630 9  20621392.371    20621397.801
  20327306.928   -23712444.89149 -18454762.37249  20327308.4244   20327314.3024
  21930846.326     5956668.41259   4636260.15859  21930846.3694   21930856.4104
 96  2 11 19 18 59.9910000  0  8 19 29 27 22 18 28 31 14
  18655088.797   -29792115.07849 -23184318.60949  18655090.3234   18655095.4104
  18596216.026   -12823899.50049  -9971237.13049  18596217.8374   18596222.5254
  21053721.694   -23844488.06949 -18204887.71449  21053722.4614   21053727.9764
  22064745.525     3162386.73149   2469995.72049  22064745.6704   22064752.8534
  17594395.444   -26619808.51049 -20443596.06249  17594396.3974   17594400.7634
  20603626.707   -27065401.707 9 -21069262.898 9  20603627.312    20603632.323
  20299541.090   -23858360.78949 -18568463.07349  20299541.4704   20299546.8964
  21938801.351     5998478.324 9   4668839.18859                  21938812.4034
 96  2 11 19 19 29.9910000  0  8 19 29 27 22 18 28 31 14
  18633848.534   -29903735.96749 -23271295.91649  18633849.6824   18633854.6814
  18592871.382   -12841473.48749  -9984931.15949  18592873.6674   18592878.1944
  21026044.378   -23989934.24849 -18318222.36549  21026045.8054   21026050.7834
  22071855.819     3199744.89349   2499105.91749  22071854.5264   22071861.4974
  17579271.677   -26699282.84149 -20505524.11149  17579272.7414   17579277.1684
  20585955.679   -27158259.639 9 -21141619.684 9  20585956.797    20585961.334
  20271834.112   -24003957.49249 -18681915.01449  20271835.2974   20271841.8754
  21946747.377     6040235.058 9   4701376.75559                  21946757.9884
 96  2 11 19 19 59.9910000  0  8 19 29 27 22 18 28 31 14
  18612646.268   -30015152.96249 -23358114.35049  18612647.8194   18612652.7064
  18589604.327   -12858647.86749  -9998313.81849  18589605.4884   18589610.0214
  20998369.407   -24135360.72349 -18431541.66749  20998371.1684   20998377.4964
  22078970.558     3237140.32649   2528245.14249  22078970.2494   22078977.4304
  17564234.721   -26778304.41349 -20567099.36949  17564235.5184   17564240.0884
  20568380.961   -27250619.933 9 -21213588.701 9  20568381.318    20568385.955
  20244187.613   -24149243.98149 -18795125.25649  20244188.3074   20244193.1304
  21954686.773     6081938.31759   4733872.64059  21954685.6704   21954694.8874
 96  2 11 19 20 29.9910000  0  8 19 29 27 22 18 28 31 14
  18591480.433   -30126382.73849 -23444786.89449  18591481.2864   18591486.5064
  18586411.632   -12875422.34949 -10011384.86449  18586413.5094   18586418.0174
  20970706.017   -24280741.91849 -18544825.68349  20970705.9074   20970711.6384
  22086096.536     3274586.31149   2557423.77249  22086096.5004   22086103.0034
  17549286.216   -26856860.50449 -20628311.90949  17549286.9204   17549291.1844
  20550899.083   -27342481.926 9 -21285169.427 9  20550900.247    20550905.660
  20216599.472   -24294222.77549 -18908095.71849  20216599.5264   20216605.2114
  21962612.840     6123594.47359   4766331.87659  21962612.5644   21962621.4194
 96  2 11 19 20 59.9910000  0  8 19 29 27 22 18 28 31 14
  18570346.190   -30237440.67549 -23531325.54249  18570347.6354   18570352.6884
  18583294.700   -12891802.60549 -10024148.72449  18583296.4804   18583301.1064
  20943052.584   -24426053.52249 -18658055.45949  20943054.2834   20943060.2184
  22093229.935     3312076.79949   2586637.09649  22093230.8594   22093237.2414
  17534427.814   -26934938.82349 -20689152.16149  17534429.0024   17534433.3794
  20533513.886   -27433840.359 9 -21356357.777 9  20533515.273    20533520.258
  20189066.067   -24438908.27049 -19020837.63549  20189067.1104   20189073.4884
  21970529.253     6165199.81349   4798751.44649  21970530.1634   21970537.6104
 96  2 11 19 21 29.9910000  0  8 19 29 27 22 18 28 31 14
  18549242.429   -30348339.66149 -23617740.33449  18549244.3224   18549249.4014
  18580253.168   -12907789.20049 -10036605.83849  18580254.3984   18580259.1054
  20915414.249   -24571290.10849 -18771226.79049  20915416.7214   20915423.0214
  22100373.922     3349616.42749   2615888.71349  22100374.8914   22100381.2794
  17519662.231   -27012536.06649 -20749617.54749  17519662.9334   17519667.2764
  20516227.537   -27524689.330 9 -21427149.140 9  20516227.561    20516232.194
  20161587.157   -24583310.88549 -19133359.13149  20161587.7674   20161594.1774
  21978436.287     6206751.60349   4831129.28249  21978436.9144   21978444.8714
 96  2 11 19 21 59.9910000  0  8 19 29 27 22 18 28 31 14
  18528167.297   -30459092.43849 -23704041.19049  18528169.0224   18528173.8104
  18577284.735   -12923384.88949 -10048758.35249  18577286.6034   18577291.3294
  20887796.463   -24716437.90149 -18884328.92249  20887796.0124   20887801.8064
  22107527.542     3387204.55449   2645178.14349  22107526.9674   22107533.7364
  17504985.764   -27089657.82749 -20809712.42949  17504986.7974   17504991.4064
  20499035.387   -27615028.909 9 -21497543.574 9  20499036.202    20499041.591
  20134160.840   -24727431.67449 -19245661.01249  20134161.7864   20134168.8934
  21986331.405     6248250.72349   4863466.09949  21986333.7124   21986342.5404
 96  2 11 19 22 29.9910000  0  7 19 29 27 18 28 31 14
  18507116.684   -30569711.13349 -23790237.58049  18507118.4814   18507123.7714
  18574388.129   -12938609.55649 -10060621.76449  18574389.5914   18574393.8194
  20860190.515   -24861502.08049 -18997365.91349  20860190.9954   20860197.4114
  17490398.996   -27166313.18549 -20869443.88349  17490399.9074   17490404.4884
  20481940.533   -27704864.033 9 -21567544.931 9  20481941.382    20481946.447
  20106790.771   -24871267.76249 -19357741.04149  20106791.5994   20106797.9934
  21994217.044     6289688.25749   4895754.91449  21994218.6954   21994228.4734
 96  2 11 19 22 59.9910000  0  7 19 29 27 18 28 31 14
  18486094.180   -30680187.69649 -23876323.20649  18486095.4584   18486100.4364
  18571559.994   -12953469.67149 -10072201.10549  18571561.6834   18571566.1184
  20832598.925   -25006500.90649 -19110351.97949  20832598.7954   20832604.8044
  17475897.947   -27242516.79549 -20928823.32349  17475898.8824   17475903.4754
  20464941.397   -27794196.502 9 -21637154.600 9  20464941.817    20464946.656
  20079475.563   -25014814.47249 -19469595.57049  20079475.9464   20079481.6614
  22002094.935     6331060.44649   4927992.77249  22002091.8964   22002099.8904
 96  2 11 19 23 29.9910000  0  7 19 29 27 18 28 31 14
  18465102.051   -30790503.40649 -23962283.49749  18465103.4704   18465108.4804
  18568805.230   -12967947.38349 -10083482.47549  18568806.5584   18568811.4454
  20805015.956   -25151440.89349 -19223292.17349  20805017.5374   20805023.5964
  17461483.771   -27318264.54749 -20987847.55249  17461484.6734   17461489.2534
  20448039.402   -27883016.529 9 -21706364.979 9  20448039.886    20448045.303
  20052219.658   -25158039.92849 -19581199.77349  20052221.4274   20052225.9814
  22009952.758     6372379.58649   4960189.36649  22009954.5334   22009964.1234
 96  2 11 19 23 59.9910000  0  6 19 29 27 18 28 31
  18444141.716   -30900650.29749 -24048112.24049  18444143.1824   18444148.2854
  18566124.185   -12982035.59649 -10094460.33349  18566125.5734   18566130.2674
  20777444.443   -25296331.50649 -19336193.92249  20777445.6384   20777451.8654
  17447158.284   -27393545.23949 -21046507.83849  17447159.2414   17447163.7564
  20431234.306   -27971326.557 9 -21775177.946 9  20431235.264    20431240.394
  20025030.769   -25300925.78649 -19692539.36649  20025031.3534   20025036.1424
 96  2 11 19 24 29.9910000  0  6 19 29 27 18 28 31
  18423217.552   -31010604.43249 -24133790.78849  18423219.5044   18423224.4694
  18563520.281   -12995721.82349 -10105124.96049  18563521.5624   18563526.1114
  20749881.859   -25441180.08449 -19449062.90049  20749882.5634   20749887.8944
  17432923.509   -27468349.94649 -21104797.22349  17432924.3454   17432928.9004
  20414528.289   -28059122.735 9 -21843590.513 9  20414528.049    20414533.206
  19997905.200   -25443464.33649 -19803608.32149  19997905.7604   19997913.3254
 96  2 11 19 24 59.9910000  0  6 19 29 27 18 28 31
  18402331.974   -31120361.61549 -24219315.86149  18402333.4184   18402338.5504
  18560992.249   -13009003.83849 -10115474.62249  18560993.7404   18560998.3854
  20722323.665   -25585995.38349 -19561905.96449  20722324.6394   20722330.1084
  17418778.312   -27542682.82149 -21162718.95349  17418779.3724   17418783.8244
  20397917.948   -28146407.279 9 -21911604.402 9  20397918.361    20397923.183
  19970847.782   -25585655.30149 -19914406.44049  19970848.4124   19970853.8894
 96  2 11 19 25 29.9910000  0  6 19 29 27 18 28 31
  18381485.274   -31229911.67949 -24304679.55049  18381486.8954   18381491.7434
  18558542.800   -13021877.92549 -10125506.40549  18558543.8504   18558548.2534
  20694772.737   -25730767.37249 -19674715.27349  20694775.2784   20694781.2814
  17404725.828   -27616531.21449 -21220263.16649  17404726.5444   17404730.9534
  20381405.432   -28233173.466 9 -21979214.381 9  20381406.854    20381412.313
  19943857.043   -25727487.50049 -20024924.97949  19943857.8544   19943865.1064
 96  2 11 19 25 59.9910000  0  6 19 29 27 18 28 31
  18360679.227   -31339251.23349 -24389879.20149  18360680.1564   18360685.0454
  18556168.725   -13034347.65149 -10135223.10849  18556171.3744   18556176.2234
  20667238.419   -25875474.50549 -19787474.05849  20667237.9944   20667243.7184
  17390765.849   -27689889.28849 -21277425.30849  17390766.9534   17390771.5794
  20364994.136   -28319417.433 9 -22046417.433 9  20364995.243    20365000.588
  19916936.052   -25868956.51049 -20135160.52549  19916936.9114   19916944.3304
 96  2 11 19 26 29.9910000  0  6 19 29 27 18 28 31
  18339912.056   -31448378.36949 -24474913.33049  18339913.8784   18339918.7564
  18553870.763   -13046431.44849 -10144639.08149  18553871.7024   18553876.3524
  20639716.014   -26020099.76549 -19900169.01849  20639717.5514   20639722.7934
  17376897.563   -27762769.30249 -21334214.92949  17376898.2874   17376902.6544
  20348683.279   -28405135.348 9 -22113210.570 9  20348683.618    20348688.960
  19890082.065   -26010068.99749 -20245118.26049  19890084.9974   19890090.8984
 96  2 11 19 26 59.9900000  0  6 19 29 27 18 28 31
  18319187.291   -31557289.28149 -24559778.97649  18319188.6944   18319193.8544
  18551641.146   -13058143.82849 -10153765.62949  18551642.7004   18551647.7064
  20612210.678   -26164631.11849 -20012790.82649  20612213.7864   20612218.2904
  17363119.086   -27835171.97949 -21390632.60649  17363120.2604   17363124.6424
  20332472.850   -28490319.874 9 -22179588.076 9  20332473.630    20332478.571
  19863300.683   -26150814.71449 -20354790.18749  19863300.5604   19863307.2574
 96  2 11 19 27 29.9900000  0  6 19 29 27 18 28 31
  18298501.734   -31665990.78849 -24644481.45149  18298503.7754   18298508.7854
  18549481.057   -13069498.09249 -10162613.13249  18549482.4214   18549487.0804
  20584726.706   -26309071.62849 -20125341.84349  20584727.7344   20584732.4034
  17349433.227   -27907094.79149 -21446676.36449  17349434.0044   17349438.6044
  20316363.687   -28574975.922 9 -22245553.782 9  20316364.002    20316369.060
  19836583.937   -26291206.54049 -20464186.35849  19836586.3364   19836592.8734
 96  2 11 19 27 59.9900000  0  6 19 29 27 18 28 31
  18277854.380   -31774496.26449 -24729031.17049  18277855.8444   18277860.8394
  18547386.639   -13080501.57149 -10171187.30449  18547388.6024   18547393.3894
  20557257.194   -26453425.21749 -20237825.12349  20557257.7054   20557263.9144
  17335837.515   -27978539.85549 -21502347.84949  17335838.4234   17335843.0944
  20300352.965   -28659109.207 9 -22311112.152 9  20300353.757    20300359.232
  19809934.512   -26431258.60749 -20573317.80649  19809934.7174   19809941.6474
 96  2 11 19 28 29.9900000  0  6 19 29 27 18 28 31
  18257244.920   -31882797.63249 -24813421.84349  18257246.7774   18257251.8174
  18545362.397   -13091143.12449 -10179479.45949  18545363.5074   18545368.5034
  20529801.820   -26597707.53449 -20350252.87449  20529802.6844   20529807.1514
  17322333.376   -28049506.85949 -21557646.82149  17322333.9584   17322338.4374
  20284444.913   -28742710.768 9 -22376256.185 9  20284444.789    20284449.773
  19783346.374   -26570969.19649 -20682183.15749  19783349.0014   19783355.0214
 96  2 11 19 28 59.9900000  0  6 19 29 27 18 28 31
  18236671.070   -31990916.08249 -24897669.98849  18236672.4914   18236677.5864
  18543409.995   -13101404.73749 -10187475.55949  18543410.9984   18543415.7454
  20502357.116   -26741931.62049 -20462635.24749  20502357.6324   20502361.8554
  17308920.031   -28119992.93749 -21612571.04649  17308920.9094   17308925.5164
  20268636.135   -28825785.422 9 -22440989.641 9  20268636.416    20268641.201
  19756827.405   -26710330.26549 -20790776.15349  19756828.2224   19756834.7204
 96  2 11 19 29 29.9900000  0  6 19 29 27 18 28 31
  18216128.037   -32098869.78649 -24981789.75749  18216129.6254   18216134.8474
  18541531.021   -13111275.61249 -10195167.17749  18541532.5714   18541537.2994
  20474922.468   -26886100.26449 -20574974.40749  20474923.3874   20474928.7864
  17295599.514   -28189991.91049 -21667115.70549  17295600.4424   17295605.1214
  20252927.794   -28908332.338 9 -22505311.874 9  20252928.375    20252933.362
  19730375.169   -26849341.23349 -20899096.33249  19730375.9954   19730381.8514
 96  2 11 19 29 59.9900000  0  6 19 29 27 18 28 31
  18195613.870   -32206672.31749 -25065791.72749  18195615.2514   18195620.3444
  18539728.777   -13120745.48649 -10202546.33049  18539730.1484   18539735.0764
  20447495.567   -27030219.78249 -20687275.31549  20447498.6174   20447502.9414
  17282368.664   -28259519.84349 -21721293.32349  17282369.8564   17282374.1834
  20237319.545   -28990351.432 9 -22569222.823 9  20237320.517    20237325.354
  19703990.411   -26987995.91549 -21007138.88049  19703991.2034   19703996.6584
 96  2 11 19 30 29.9900000  0  6 19 29 27 18 28 31
  18175127.373   -32314329.91849 -25149680.76649  18175128.9384   18175133.9474
  18538003.532   -13129810.72749 -10209610.18549  18538005.6454   18538010.0694
  20420080.153   -27174295.80949 -20799542.31349  20420081.0354   20420087.0904
  17269226.621   -28328584.51449 -21775109.95649  17269227.2504   17269231.8084
  20221812.760   -29071844.058 9 -22632723.538 9  20221812.981    20221817.754
  19677673.787   -27126290.17249 -21114900.58849  19677674.0764   19677681.1264
 96  2 11 19 30 59.9900000  0  6 19 29 27 18 28 31
  18154667.570   -32421845.17749 -25233458.88949  18154669.4344   18154674.1704
  18536353.633   -13138480.12749 -10216365.59749  18536355.3344   18536360.4894
  20392675.525   -27318304.44449 -20911756.80449  20392677.2134   20392682.3164
  17256175.134   -28397167.41349 -21828551.18449  17256176.1234   17256180.6424
  20206406.272   -29152805.515 9 -22695810.365 9  20206406.538    20206411.758
  19651426.635   -27264213.75849 -21222373.44449  19651428.9294   19651434.0934
 96  2 11 19 31 29.9900000  0  6 19 29 27 18 28 31
  18134238.750   -32529203.35549 -25317114.61649  18134239.7984   18134244.9054
  18534775.779   -13146771.86849 -10222826.72849  18534777.4484   18534782.5984
  20365283.000   -27462254.66449 -21023925.77749  20365283.6734   20365290.1604
  17243214.919   -28465274.64949 -21881621.76749  17243215.7524   17243220.3714
  20191098.838   -29233237.120 9 -22758484.321 9  20191100.488    20191105.920
  19625250.597   -27401774.91349 -21329563.90049  19625251.9194   19625258.5584
 96  2 11 19 31 59.9900000  0  6 19 29 27 18 28 31
  18113840.993   -32636390.72449 -25400637.23649  18113842.6944   18113847.7524
  18533269.833   -13154688.66349 -10228995.69649  18533271.1654   18533276.2114
  20337900.496   -27606152.16449 -21136053.67249  20337901.4194   20337907.0844
  17230345.093   -28532904.56749 -21934320.40749  17230346.1064   17230350.9544
  20175895.411   -29313141.525 9 -22820747.466 9  20175895.430    20175900.573
  19599144.185   -27538967.19249 -21436466.91149  19599145.0684   19599151.4684
 96  2 11 19 32 29.9900000  0  7 19 29 27  2 18 28 31
  18093481.349   -32743383.54349 -25484008.26249  18093482.8454   18093487.9404
  18531832.387   -13162243.49249 -10234882.59949  18531833.7204   18531838.8304
  20310526.697   -27749990.78649 -21248135.69049  20310529.8834   20310534.1254
  22105393.500    -3475104.76959  -2287941.08959  22105395.4354   22105404.1994
  17217570.447   -28600038.31749 -21986632.42549  17217571.3064   17217575.8914
  20160789.830   -29392518.049 9 -22882599.277 9  20160790.339    20160795.755
  19573111.235   -27675772.65249 -21543068.51049  19573111.5194   19573116.9274
 96  2 11 19 32 59.9900000  0  7 19 29 27  2 18 28 31
  18073160.180   -32850168.47049 -25567217.29349  18073161.9504   18073167.1524
  18530459.235   -13169456.00549 -10240502.76249  18530461.0584   18530466.2434
  20283169.405   -27893766.22949 -21360168.47349  20283170.5924   20283176.0864
  22073822.490    -3640999.10649  -2417209.27749  22073826.2464   22073834.6554
  17204888.443   -28666681.82749 -22038562.44349  17204889.3164   17204894.0714
  20145785.634   -29471367.415 9 -22944040.322 9  20145785.886    20145791.116
  19547152.067   -27812181.20849 -21649360.81949  19547153.7394   19547159.4164
 96  2 11 19 33 29.9900000  0  7 19 29 27  2 18 28 31
  18052881.691   -32956733.42449 -25650254.91049  18052883.5194   18052888.5274
  18529154.094   -13176315.79849 -10245848.07949  18529155.8394   18529160.6764
  20255818.442   -28037489.40949 -21472160.52749  20255819.9404   20255825.7924
  22042276.678    -3806795.44449  -2546401.08749  22042276.4704   22042285.3594
  17192298.264   -28732842.37049 -22090116.12049  17192299.3484   17192304.2134
  20130880.825   -29549691.383 9 -23005071.965 9  20130881.166    20130886.482
  19521270.281   -27948192.53149 -21755343.59849  19521271.5504   19521277.2854
 96  2 11 19 33 59.9900000  0  7 19 29 27  2 18 28 31
  18032645.534   -33063076.90849 -25733119.95549  18032646.8754   18032651.8394
  18527917.853   -13182813.96649 -10250911.61349  18527919.2424   18527924.4964
  20228482.889   -28181140.89249 -21584096.72649  20228484.4474   20228490.8084
  22010741.411    -3972498.00549  -2675519.85349  22010742.8394   22010750.7394
  17179802.356   -28798510.85049 -22141286.37249  17179803.2654   17179807.8064
  20116076.482   -29627484.773 9 -23065690.174 9  20116077.646    20116082.997
  19495468.118   -28083787.52549 -21861001.97249  19495469.2954   19495474.4624
 96  2 11 19 34 29.9900000  0  7 19 29 27  2 18 28 31
  18012451.410   -33169197.71849 -25815811.49049  18012453.1554   18012457.7604
  18526751.812   -13188940.73449 -10255685.74949  18526753.5104   18526758.5374
  20201163.735   -28324705.28849 -21695965.06249  20201166.0544   20201170.8674
  21979228.704    -4138105.06649  -2804564.20949  21979229.1884   21979236.9874
  17167399.650   -28863687.40049 -22192073.30449  17167400.4844   17167405.1574
  20101375.436   -29704740.421 9 -23125889.367 9  20101376.319    20101381.712
  19469744.359   -28218965.33349 -21966335.24249  19469745.2074   19469751.3244
 96  2 11 19 34 59.9900000  0  7 19 29 27  2 18 28 31
  17992295.195   -33275120.78849 -25898348.93549  17992296.4094   17992301.5314
  18525659.759   -13194682.69549 -10260160.03449  18525660.9354   18525665.4854
  20173856.542   -28468196.98049 -21807776.73849  20173859.1044   20173865.6744
  21947734.668    -4303618.37549  -2933535.49549  21947733.1924   21947742.1414
  17155088.474   -28928382.78049 -22242485.29349  17155089.4574   17155094.0414
  20086776.466   -29781463.857 9 -23185673.841 9  20086776.506    20086781.656
  19444094.698   -28353750.82849 -22071362.82149  19444096.4124   19444102.7404
 96  2 11 19 35 29.9900000  0  7 19 29 27  2 18 28 31
  17972174.445   -33380852.38149 -25980737.18349  17972176.3954   17972181.1904
  18524644.299   -13200019.84249 -10264318.88249  18524645.3324   18524650.3014
  20146566.690   -28611614.86449 -21919530.91149  20146567.2184   20146573.3874
  21916258.968    -4469022.98949  -3062422.07049  21916257.1234   21916267.3784
  17142871.469   -28992581.15449 -22292510.00849  17142872.8024   17142877.5074
  20072277.918   -29857648.477 9 -23245038.462 9  20072279.064    20072284.510
  19418520.134   -28488146.66849 -22176086.77349  19418522.0534   19418527.6314
 96  2 11 19 35 59.9900000  0  7 19 29 27  2 18 28 31
  17952088.218   -33486408.11649 -26062988.39349  17952089.9364   17952094.7834
  18523701.891   -13204965.07249 -10268172.33249  18523703.9354   18523709.2124
  20119289.531   -28754956.64149 -22031225.77549  20119290.3734   20119297.2104
  21884798.958    -4634316.71549  -3191222.29149  21884803.0624   21884809.4414
  17130749.633   -29056284.28449 -22342148.82149  17130750.6014   17130755.3394
  20057884.460   -29933292.700 9 -23303981.986 9  20057884.839    20057889.479
  19393017.895   -28622160.68249 -22280513.19449  19393019.7194   19393025.3914
 96  2 11 19 36 29.9900000  0  7 19 29 27  2 18 28 31
  17932033.185   -33591796.69049 -26145109.35249  17932034.9634   17932040.1984
  18522833.792   -13209533.38349 -10271732.08449  18522834.6234   18522839.5004
  20092024.899   -28898231.04049 -22142868.13349  20092026.9984   20092032.1134
  21853371.772    -4799484.13449  -3319924.05349  21853372.6714   21853381.5614
  17118720.578   -29119498.94049 -22391407.00849  17118721.3944   17118725.8924
  20043591.219   -30008398.937 9 -23362506.315 9  20043592.331    20043597.396
  19367585.842   -28755807.50449 -22384653.47949  19367585.9444   19367592.8314
 96  2 11 19 36 59.9900000  0  7 19 29 27  2 18 28 31
  17912010.699   -33697019.68549 -26227101.28849  17912011.6534   17912016.8934
  18522031.701   -13213745.07149 -10275013.95949  18522033.3014   18522038.1224
  20064773.408   -29041442.04549 -22254461.09849  20064773.5104   20064779.9494
  21821967.519    -4964505.68349  -3448512.13249  21821970.6994   21821977.9574
  17106783.572   -29182225.96649 -22440285.22349  17106784.7174   17106789.1724
  20029401.696   -30082964.908 9 -23420609.659 9  20029402.945    20029407.790
  19342224.525   -28889078.53749 -22488500.94549  19342226.1604   19342231.6014
 96  2 11 19 37 29.9900000  0  7 19 29 27  2 18 28 31
  17892019.095   -33802075.96149 -26308963.31349  17892020.3904   17892025.3064
  18521295.008   -13217619.37749 -10278032.93849  18521296.4974   18521301.2584
  20037534.591   -29184578.66949 -22365996.09849  20037536.5294   20037542.3694
  21790596.931    -5129382.32349  -3576987.32549  21790594.0254   21790603.7994
  17094939.303   -29244469.06849 -22488786.34849  17094940.2794   17094945.0094
  20015315.323   -30156991.114 9 -23478292.411 9  20015316.224    20015321.220
  19316938.590   -29021955.82149 -22592041.59149  19316940.6334   19316946.4694
 96  2 11 19 37 59.9900000  0  7 19 29 27  2 18 28 31
  17872060.327   -33906959.58849 -26390690.80649  17872061.4774   17872066.3324
  18520622.000   -13221158.26049 -10280790.55449  18520623.2074   18520628.0864
  20010312.403   -29327632.10049 -22477466.27349  20010314.5904   20010319.8074
  21759244.576    -5294115.98949  -3705351.09649  21759246.7594   21759254.9204
  17083185.886   -29306234.08249 -22536914.94349  17083186.7244   17083191.4144
  20001331.301   -30230475.273 9 -23535552.788 9  20001332.388    20001337.492
  19291732.090   -29154418.22749 -22695258.95949  19291733.2044   19291739.4554
 96  2 11 19 38 29.9890000  0  7 19 29 27  2 18 28 31
  17852135.914   -34011663.21149 -26472278.03249  17852137.0964   17852142.0514
  18520013.365   -13224352.66349 -10283279.75449  18520015.1344   18520019.8824
  19983104.503   -29470610.82549 -22588878.24849  19983106.3404   19983112.1144
  21727925.318    -5458705.24549  -3833602.33749  21727926.6344   21727934.7594
  17071523.358   -29367521.09449 -22584671.06949  17071524.3474   17071528.9244
  19987450.973   -30303420.130 9 -23592392.916 9  19987451.695    19987456.414
  19266609.864   -29286443.67249 -22798135.83549  19266610.5264   19266616.1244
 96  2 11 19 38 59.9890000  0  7 19 29 27  2 18 28 31
  17832246.576   -34116180.41049 -26553720.00249  17832247.9194   17832252.9554
  18519475.062   -13227185.41149 -10285487.15149  18519476.1764   18519481.0114
  19955908.521   -29613529.49649 -22700243.41549  19955909.5904   19955915.6154
  21696626.513    -5623177.91749  -3961762.74849  21696628.6194   21696635.8374
  17059952.019   -29428326.78849 -22632052.13949  17059953.3244   17059957.9344
  19973671.349   -30375827.897 9 -23648814.549 9  19973672.831    19973677.924
  19241569.211   -29418031.70449 -22900671.89149  19241569.4694   19241575.8324
 96  2 11 19 39 29.9890000  0  7 19 29 27  2 18 28 31
  17812394.915   -34220499.98049 -26635007.97249  17812396.5654   17812401.7524
  18519009.479   -13229630.30549 -10287392.30649  18519010.2844   18519015.7514
  19928724.416   -29756384.31949 -22811558.83449  19928725.4014   19928730.7424
  21665348.651    -5787543.90949  -4089840.03349  21665350.9734   21665359.4014
  17048475.269   -29488640.14949 -22679049.57549  17048476.1044   17048480.6924
  19959997.127   -30447693.962 9 -23704814.072 9  19959997.308    19960002.220
  19216610.483   -29549180.47949 -23002865.65249  19216612.6184   19216618.4654
 96  2 11 19 39 59.9890000  0  7 19 29 27  2 18 28 31
  17792580.323   -34324628.96649 -26716147.43649  17792581.6524   17792586.4834
  18518617.858   -13231685.94649 -10288994.15249  18518619.3914   18518624.5304
  19901548.038   -29899196.79349 -22922841.24549  19901549.0694   19901555.0464
  21634090.533    -5951818.93949  -4217846.44749  21634089.6894   21634098.0484
  17037091.167   -29548462.15149 -22725664.13249  17037092.3644   17037096.8054
  19946423.337   -30519018.076 9 -23760391.299 9  19946424.334    19946429.584
  19191736.870   -29679903.84849 -23104727.92949  19191736.7504   19191741.9204
 96  2 11 19 40 29.9890000  0  7 19 29 27  2 18 28 31
  17772800.642   -34428572.24749 -26797142.19549  17772801.9354   17772806.7584
  18518301.994   -13233347.22149 -10290288.69449  18518303.8634   18518308.7584
  19874377.916   -30041974.50749 -23034096.57949  19874378.9464   19874384.9214
  21602842.177    -6116005.31149  -4345783.79549  21602845.3554   21602854.3254
  17025802.862   -29607782.58649 -22771887.85949  17025803.9334   17025808.6994
  19932955.783   -30589794.564 9 -23815541.806 9  19932956.287    19932961.535
  19166939.375   -29810215.49349 -23206269.39149  19166939.7714   19166945.5224
 96  2 11 19 40 59.9890000  0  7 19 29 27  2 18 28 31
  17753054.223   -34532338.55649 -26877999.05249  17753055.9584   17753060.9074
  18518059.397   -13234620.63949 -10291280.99849  18518061.4264   18518066.2394
  19847214.158   -30184718.03049 -23145325.26149  19847216.0914   19847222.0234
  21571616.230    -6280115.18349  -4473661.50949  21571618.2064   21571625.4684
  17014609.569   -29666603.97849 -22817722.72049  17014610.7444   17014615.5154
  19919589.710   -30660028.672 9 -23870269.683 9  19919591.266    19919596.225
  19142216.631   -29940128.02749 -23307499.87249  19142217.7964   19142223.1174
 96  2 11 19 41 29.9890000  0  7 19 29 27  2 18 28 31
  17733339.486   -34635943.54349 -26958730.20749  17733340.4124   17733345.2244
  18517887.485   -13235528.55649 -10291988.52049  18517888.9444   18517893.5494
  19820058.020   -30327426.29649 -23256526.47749  19820059.3634   19820064.7694
  21540403.562    -6444142.77749  -4601475.12049  21540404.4814   21540412.0484
  17003510.807   -29724930.14249 -22863171.69049  17003511.6334   17003516.3424
  19906328.876   -30729721.771 9 -23924575.995 9  19906329.439    19906333.986
  19117574.425   -30069620.06049 -23408402.68449  19117576.0134   19117581.6234
 96  2 11 19 41 59.9890000  0  7 19 29 27  2 18 28 31
  17713655.928   -34739379.87549 -27039329.94249  17713657.1894   17713661.9514
  18517781.018   -13236084.07049 -10292421.44349  18517783.1264   18517788.2544
  19792910.009   -30470091.09349 -23367693.82449  19792911.6284   19792916.8144
  21509212.233    -6608072.45949  -4729212.45249  21509208.9144   21509217.5194
  16992509.381   -29782742.38449 -22908220.19949  16992510.2814   16992515.0764
  19893170.036   -30798870.235 9 -23978457.909 9  19893170.947    19893175.647
  19093017.650   -30198672.22649 -23508962.74149  19093018.3994   19093023.7594
 96  2 11 19 42 29.9890000  0  7 19 29 27  2 18 28 31
  17694008.058   -34842627.62549 -27119782.73149  17694009.6744   17694014.4154
  18517742.482   -13236288.90549 -10292581.11449  18517743.5464   18517749.0004
  19765774.970   -30612691.75349 -23478811.19049  19765775.5504   19765780.8234
  21478034.053    -6771883.27249  -4856857.12849  21478036.4564   21478045.0074
  16981607.320   -29840032.50149 -22952861.85649  16981608.4514   16981612.9874
  19880114.277   -30867475.966 9 -24031916.927 9  19880115.304    19880120.367
  19068545.698   -30327265.12649 -23609164.93449  19068547.6464   19068552.4044
 96  2 11 19 42 59.9890000  0  7 19 29 27  2 18 28 31
  17674399.693   -34945672.56849 -27200077.48949  17674400.8634   17674405.8314
  18517766.151   -13236163.07249 -10292483.09149  18517768.0384   18517772.9284
  19738654.351   -30755206.31649 -23589861.46549  19738655.5384   19738661.2654
  21446886.102    -6935556.81149  -4984394.81649  21446889.6664   21446898.6784
  16970806.413   -29896794.64449 -22997092.10649  16970806.7384   16970811.4794
  19867162.719   -30935538.808 9 -24084952.902 9  19867163.482    19867168.263
  19044167.285   -30455378.67349 -23708993.60249  19044168.6744   19044174.4144
 96  2 11 19 43 29.9890000  0  8 19 29 27  2 18 28 31 16
  17654831.755   -35048502.36249 -27280204.59749  17654833.1164   17654838.0504
  18517853.039   -13235708.87149 -10292129.21249  18517854.7084   18517859.3794
  19711553.280   -30897619.60849 -23700832.84249  19711555.3094   19711561.9924
  21415773.103    -7099069.52049  -5111807.19449  21415774.5904   21415783.6334
  16960105.558   -29953025.27749 -23040908.19449  16960106.8194   16960111.6664
  19854315.591   -31003049.721 9 -24137558.815 9  19854316.431    19854321.714
  19019879.410   -30583012.45949 -23808448.44249  19019879.8584   19019885.7744
  21629181.286    -6526747.43559  -5067078.52959  21629183.1404   21629187.7424
 96  2 11 19 43 59.9890000  0  8 19 29 27  2 18 28 31 16
  17635304.703   -35151116.66949 -27360163.79849  17635306.1314   17635311.3594
  18518006.013   -13234907.98449 -10291505.20049  18518006.9864   18518011.9964
  19684474.538   -31039925.69349 -23811720.67649  19684475.2264   19684480.4734
  21384688.558    -7262416.46349  -5239090.39349  21384690.7434   21384698.8944
  16949504.361   -30008733.02349 -23084316.83649  16949505.7654   16949510.5274
  19841574.396   -31070007.153 9 -24189733.440 9  19841574.932    19841579.872
  18995676.060   -30710200.46249 -23907555.91849  18995677.2784   18995683.3844
  21602523.672    -6666843.18049  -5176244.03049  21602523.7764   21602529.8824
 96  2 11 19 44 29.9890000  0  8 19 29 27  2 18 28 31 16
  17615816.213   -35253529.91949 -27439966.32849  17615817.5484   17615822.6184
  18518225.175   -13233749.51649 -10290602.53749  18518227.6274   18518232.2874
  19657413.673   -31182130.37049 -23922529.49449  19657414.8824   19657420.3294
  21353632.971    -7425604.70049  -5366249.92149  21353636.8774   21353645.4874
  16938996.736   -30063954.88049 -23127346.86749  16938997.5054   16939002.1404
  19828937.913   -31136414.623 9 -24241479.528 9  19828938.014    19828942.835
  18971555.007   -30836952.23649 -24006323.47049  18971557.3894   18971563.2014
  21575938.108    -6806535.43349  -5285095.10149  21575940.9784   21575946.3634
 96  2 11 19 44 59.9890000  0  8 19 29 27  2 18 28 31 16
  17596361.886   -35355762.38349 -27519627.98849  17596363.4444   17596368.5134
  18518516.098   -13232230.87949 -10289419.21749  18518516.7364   18518521.4094
  19630367.340   -31324258.67249 -24033278.79349  19630368.6674   19630373.3034
  21322605.835    -7588657.99849  -5493304.30049  21322608.6384   21322617.5544
  16928578.343   -30118703.41449 -23170008.07149  16928579.2524   16928583.8644
  19816403.249   -31202275.711 9 -24292799.853 9  19816404.607    19816410.019
  18947516.026   -30963290.79349 -24104769.04749  18947516.0544   18947521.7054
  21549434.843    -6945828.55449  -5393635.16549  21549433.5254   21549439.8574
 96  2 11 19 45 29.9890000  0  8 19 29 27  2 18 28 31 16
  17576942.992   -35457810.00249 -27599145.61549  17576944.4574   17576949.6704
  18518878.226   -13230321.38149 -10287931.33349  18518879.7024   18518884.6934
  19603331.714   -31466321.61049 -24143977.17049  19603335.7724   19603340.1444
  21291602.347    -7751587.19249  -5620261.97349  21291604.3714   21291612.5634
  16918249.274   -30172982.72949 -23212303.65249  16918250.3314   16918254.9184
  19803978.072   -31267579.499 9 -24343685.924 9  19803978.378    19803983.426
  18923553.288   -31089210.79949 -24202888.48749  18923553.8334   18923559.6554
  21523003.036    -7084724.20849  -5501865.53349  21523002.5254   21523009.6724
 96  2 11 19 45 59.9890000  0  8 19 29 27  2 18 28 31 16
  17557559.927   -35559669.79349 -27678516.87849  17557561.2344   17557566.2674
  18519316.471   -13228019.84449 -10286137.96949  18519317.6934   18519322.5584
  19576314.000   -31608311.34849 -24254618.50049  19576315.2444   19576320.1854
  21260623.338    -7914389.89649  -5747121.08249  21260623.5584   21260632.0064
  16908013.029   -30226775.11349 -23254219.80949  16908013.8174   16908018.4554
  19791656.977   -31332319.144 9 -24394132.398 9  19791658.257    19791664.013
  18899677.196   -31214679.45149 -24300656.20449  18899677.6234   18899683.6154
  21496650.482    -7223214.02249  -5609779.66449  21496648.7824   21496655.7444
 96  2 11 19 46 29.9890000  0  8 19 29 27  2 18 28 31 16
  17538214.181   -35661329.73549 -27757732.41849  17538216.0234   17538221.0504
  18519823.946   -13225355.35649 -10284061.78549  18519824.7124   18519829.4984
  19549308.425   -31750228.17449 -24365203.02749  19549308.8374   19549315.1174
  21229663.688    -8077072.40049  -5873886.53349  21229667.0404   21229675.0504
  16897870.910   -30280071.66149 -23295749.59849  16897872.0524   16897876.4214
  19779444.566   -31396500.998 9 -24444144.227 9  19779445.231    19779450.139
  18875890.261   -31339680.40749 -24398059.50149  18875891.3854   18875896.3554
  21470372.448    -7361297.76549  -5717377.37449  21470372.4294   21470379.3304
 96  2 11 19 46 59.9890000  0  8 19 29 27  2 18 28 31 16
  17518907.851   -35762786.79249 -27836789.86749  17518909.4114   17518914.2314
  18520394.649   -13222348.30849 -10281718.67749  18520397.0044   18520402.0844
  19522315.061   -31892065.66849 -24475725.73549  19522318.8074   19522324.0244
  21198731.399    -8239626.51749  -6000551.95249  21198733.3644   21198741.8074
  16887828.159   -30332846.70549 -23336873.01949  16887829.0794   16887833.4244
  19767336.761   -31460125.161 9 -24493721.488 9  19767338.105    19767342.964
  18852193.322   -31464210.77149 -24495096.09149  18852194.2954   18852199.4374
  21444168.698    -7498990.38249  -5824670.31649  21444170.2104   21444176.1184
 96  2 11 19 47 29.9890000  0  8 19 29 27  2 18 28 31 16
  17499641.724   -35864032.30649 -27915682.47049  17499642.9614   17499648.0234
  18521030.303   -13219013.60649 -10279120.25049  18521031.9254   18521036.1344
  19495345.369   -32033810.21749 -24586176.00749  19495345.0104   19495350.8074
  21167828.368    -8402027.18849  -6127097.81749  21167829.3474   21167837.6244
  16877884.368   -30385100.51949 -23377590.28449  16877885.5084   16877890.1134
  19755335.868   -31523190.355 9 -24542863.183 9  19755336.756    19755342.151
  18828588.947   -31588251.98949 -24591751.53249  18828589.6004   18828595.3644
  21418045.085    -7636284.55849  -5931652.76649  21418044.5294   21418050.2584
 96  2 11 19 47 59.9890000  0  8 19 29 27  2 18 28 31 16
  17480415.574   -35965064.42949 -27994408.80249  17480417.0054   17480422.2414
  18521726.747   -13215349.47649 -10276265.12649  18521728.9524   18521734.0094
  19468387.315   -32175464.67749 -24696556.09549  19468389.3194   19468394.4944
  21136957.904    -8564257.18149  -6253510.69849  21136958.5154   21136966.8874
  16868042.812   -30436818.83749 -23417890.28449  16868043.8964   16868048.3464
  19743441.718   -31585695.856 9 -24591568.755 9  19743442.381    19743447.788
  18805078.071   -31711800.13949 -24688022.76349  18805078.9774   18805084.4314
  21391995.758    -7773169.41149  -6038316.31449  21391996.4544   21392002.6444
 96  2 11 19 48 29.9890000  0  8 19 29 27  2 18 28 31 16
  17461230.503   -36065882.53449 -28072968.36349  17461231.9184   17461237.0054
  18522490.238   -13211336.92249 -10273138.50249  18522492.7154   18522497.3514
  19441448.398   -32317036.27349 -24806871.61349  19441449.3164   19441453.9644
  21106121.440    -8726301.42149  -6379778.81449  21106121.9824   21106129.5964
  16858301.461   -30488010.10049 -23457779.58949  16858302.6584   16858307.1094
  19731653.875   -31647635.034 9 -24639833.040 9  19731655.684    19731661.242
  18781660.676   -31834859.44249 -24783913.08349  18781662.0354   18781667.4094
  21366028.365    -7909638.45549  -6144655.84149  21366027.3944   21366033.1844
 96  2 11 19 48 59.9890000  0  8 19 29 27  2 18 28 31 16
  17442082.737   -36166506.98749 -28151377.02749  17442083.9804   17442088.8964
  18523324.050   -13206964.18849 -10269731.22749  18523324.6754   18523329.8504
  19414519.485   -32458544.61849 -24917137.84749  19414521.1854   19414526.3324
  21075318.202    -8888156.86149  -6505899.85349  21075321.0394   21075330.6294
  16848657.692   -30538688.39449 -23497269.18549  16848659.0054   16848663.3604
  19719975.579   -31709011.384 9 -24687658.751 9  19719975.891    19719981.455
  18758337.796   -31957423.53549 -24879417.52549  18758338.3184   18758344.4004
  21340130.855    -8045702.56149  -6250679.80549  21340135.4364   21340141.3064
 96  2 11 19 49 29.9880000  0  8 19 29 27  2 18 28 31 16
  17422973.210   -36266928.41749 -28229627.49549  17422974.2954   17422979.1874
  18524226.457   -13202216.70849 -10266031.94049  18524228.3054   18524233.5364
  19387602.538   -32599982.54449 -25027349.20549  19387606.2334   19387611.3754
  21044557.065    -9049827.62049  -6631876.97949  21044556.8844   21044564.7414
  16839112.464   -30588851.33149 -23536357.20449  16839113.2294   16839117.8704
  19708404.508   -31769817.282 9 -24735039.955 9  19708405.392    19708410.232
  18735110.203   -32079481.48949 -24974527.58249  18735111.2904   18735117.4354
  21314325.579    -8181326.10049  -6356360.48049  21314326.4924   21314331.9954
 96  2 11 19 49 59.9880000  0  8 19 29 27  2 18 28 31 16
  17403895.470   -36367181.57849 -28307746.83949  17403896.8624   17403901.5774
  18525200.446   -13197101.68349 -10262046.25149  18525201.7174   18525206.7894
  19360702.815   -32741355.30249 -25137509.77849  19360703.4034   19360709.9014
  21013818.790    -9211346.41549  -6757735.72349  21013820.7614   21013828.5314
  16829661.971   -30638509.90049 -23575052.20349  16829663.3454   16829668.1654
  19696938.471   -31830068.938 9 -24781989.278 9  19696940.044    19696945.176
  18711976.115   -32201055.90749 -25069260.85649  18711977.1984   18711982.2114
  21288600.062    -8316518.19449  -6461704.97349  21288600.3884   21288606.6294
 96  2 11 19 50 29.9880000  0  8 19 29 27  2 18 28 31 16
  17384850.860   -36467259.15849 -28385729.37049  17384852.4844   17384857.4674
  18526241.537   -13191629.08849 -10257781.94549  18526243.2774   18526247.8094
  19333819.268   -32882629.16849 -25247593.29949  19333820.3684   19333826.0804
  20983109.223    -9372714.84049  -6883477.29549  20983113.6154   20983121.4604
  16820308.739   -30687662.86849 -23613353.23149  16820309.9104   16820314.7204
  19685581.329   -31889758.176 9 -24828500.354 9  19685581.620    19685586.339
  18688933.325   -32322143.20249 -25163614.55449  18688934.1174   18688939.6014
  21262960.635    -8451262.18949  -6566700.30649  21262959.4434   21262966.1864
 96  2 11 19 50 59.9880000  0  8 19 29 27  2 18 28 31 16
  17365843.579   -36567146.60749 -28463563.74549  17365844.5924   17365849.6424
  18527350.845   -13185798.92349 -10253239.01749  18527352.0694   18527357.2844
  19306955.722   -33023790.97049 -25357589.49749  19306958.2934   19306963.6174
  20952434.162    -9533940.10749  -7009107.32549  20952432.9944   20952440.7854
  16811054.743   -30736292.84449 -23651246.73549  16811056.0554   16811060.6864
  19674329.681   -31948880.042 9 -24874569.326 9  19674330.799    19674335.942
  18665985.834   -32442738.38149 -25257584.79549  18665986.5114   18665991.3334
  21237405.306    -8585547.41649  -6671338.14149  21237406.0064   21237412.8324
 96  2 11 19 51 29.9880000  0  8 19 29 27  2 18 28 31 16
  17346870.797   -36666848.13549 -28541253.24449  17346872.0604   17346877.0304
  18528525.557   -13179623.33249 -10248426.90849  18528527.9144   18528532.2974
  19280116.043   -33164834.41249 -25467493.46449  19280118.7944   19280123.7294
  20921778.656    -9695037.18149  -7134637.42749  20921777.3274   20921786.5574
  16801898.977   -30784405.98049 -23688737.49949  16801900.1534   16801904.9244
  19663185.805   -32007443.785 9 -24920203.396 9  19663186.691    19663191.815
  18643126.679   -32562856.81849 -25351183.54149  18643127.7154   18643133.2144
  21211940.150    -8719377.66749  -6775621.45149  21211938.1134   21211945.1434
 96  2 11 19 51 59.9880000  0  8 19 29 27  2 18 28 31 16
  17327934.025   -36766360.85149 -28618795.61649  17327935.2624   17327940.1924
  18529764.547   -13173117.25649 -10243357.29149  18529765.8134   18529771.0554
  19253297.325   -33305772.49349 -25577315.33049  19253298.5764   19253304.0964
  20891146.563    -9855989.62649  -7260054.86949  20891148.8674   20891156.7554
  16792839.837   -30832013.03049 -23725833.91349  16792840.8144   16792845.5054
  19652146.547   -32065452.951 9 -24965405.328 9  19652147.835    19652152.993
  18620360.509   -32682494.22749 -25444407.45349  18620361.6054   18620367.5994
  21186552.237    -8852770.33449  -6879563.78449  21186554.1064   21186561.3014
 96  2 11 19 52 29.9880000  0  8 19 29 27  2 18 28 31 16
  17309038.200   -36865658.83549 -28696170.66649  17309039.6224   17309044.5854
  18531067.284   -13166271.39449 -10238022.88849  18531068.6464   18531073.9374
  19226492.136   -33446626.46049 -25687071.65549  19226495.3884   19226500.0164
  20860547.881   -10016791.04649  -7385354.62349  20860549.3934   20860557.9574
  16783876.844   -30879114.30549 -23762536.21649  16783877.9004   16783882.5984
  19641214.212   -32122907.322 9 -25010174.950 9  19641214.671    19641219.537
  18597685.883   -32801649.80249 -25537255.91049  18597687.8394   18597693.2374
  21161254.049    -8985729.18449  -6983168.08249  21161253.2284   21161258.8494
 96  2 11 19 52 59.9880000  0  8 19 29 27  2 18 28 31 16
  17290184.117   -36964736.50549 -28773374.04249  17290185.8784   17290190.7424
  18532436.603   -13159073.86349 -10232414.47149  18532438.4574   18532443.5554
  19199703.538   -33587407.42749 -25796771.09949  19199705.1434   19199710.6284
  20829981.212   -10177425.30549  -7510524.11749  20829981.9844   20829989.6284
  16775009.957   -30925710.72349 -23798845.12349  16775010.9344   16775015.4414
  19630386.894   -32179806.446 9 -25054511.920 9  19630387.163    19630392.054
  18575106.165   -32920309.82549 -25629718.22749  18575106.6414   18575112.5404
  21136034.620    -9118253.32649  -7086433.67349  21136035.0534   21136041.4694
 96  2 11 19 53 29.9880000  0  8 19 29 27  2 18 28 31 16
  17271373.545   -37063586.21749 -28850399.79049  17271375.3574   17271380.2844
  18533872.014   -13151533.75249 -10226539.12449  18533873.1494   18533878.3164
  19172930.480   -33728109.16849 -25906408.80349  19172931.0694   19172935.6404
  20799445.915   -10337892.72849  -7635563.58549  20799446.0564   20799453.2674
  16766236.350   -30971815.29749 -23834770.78249  16766237.6704   16766242.2614
  19619664.003   -32236152.626 9 -25098418.032 9  19619664.782    19619669.341
  18552617.208   -33038484.88349 -25721802.64149  18552619.0394   18552624.5584
  21110897.860    -9250347.45149  -7189364.14449  21110897.9524   21110904.2364
 96  2 11 19 53 59.9880000  0  8 19 29 27  2 18 28 31 16
  17252607.746   -37162201.86649 -28927243.15049  17252609.5864   17252614.3884
  18535370.876   -13143653.38549 -10220398.63049  18535372.5664   18535378.2604
  19146168.475   -33868735.82149 -26015987.99749  19146170.3024   19146175.6484
  20768942.825   -10498186.90949  -7760468.06849  20768942.6804   20768950.6034
  16757557.278   -31017423.02149 -23870309.28249  16757558.7244   16757563.1694
  19609046.575   -32291943.890 9 -25141891.744 9  19609047.945    19609052.816
  18530222.354   -33156177.10149 -25813510.82649  18530223.0214   18530228.3924
  21085842.727    -9382012.62249  -7291960.38849  21085843.4534   21085848.0874
 96  2 11 19 54 29.9880000  0  8 19 29 27  2 18 28 31 16
  17233885.892   -37260588.38349 -29003907.95749  17233887.0484   17233892.0694
  18536938.141   -13135421.57849 -10213984.28349  18536938.8504   18536944.6614
  19119423.951   -34009283.48049 -26125505.63249  19119424.7474   19119430.5584
  20738469.950   -10658318.12949  -7885245.56949  20738470.6684   20738478.4654
  16748974.061   -31062529.92949 -23905457.53049  16748975.3784   16748979.8504
  19598536.129   -32347180.931 9 -25184933.593 9  19598536.624    19598541.636
  18507918.616   -33273385.94849 -25904842.35049  18507918.8664   18507924.6314
  21060866.527    -9513248.20349  -7394221.89349  21060870.6304   21060875.6884
 96  2 11 19 54 59.9880000  0  8 19 29 27  2 18 28 31 16
  17215207.078   -37358744.98149 -29080393.61149  17215208.5524   17215213.4564
  18538571.214   -13126841.05949 -10207298.22549  18538572.5254   18538577.3214
  19092693.912   -34149742.84449 -26234954.47049  19092696.3964   19092701.8144
  20708027.871   -10818276.24649  -8009888.16949  20708031.0824   20708039.0584
  16740488.184   -31107126.11149 -23940207.81249  16740488.9074   16740493.1694
  19588132.407   -32401852.296 9 -25227534.663 9  19588133.157    19588138.196
  18485710.909   -33390084.53849 -25995776.26749  18485712.3434   18485716.5964
  21035980.487    -9644046.21149  -7496142.43049  21035981.2314   21035986.5804
 96  2 11 19 55 29.9880000  0  8 19 29 27  2 18 28 31 16
  17196569.314   -37456688.85149 -29156713.50649  17196570.2894   17196575.2204
  18540266.091   -13117931.33349 -10200355.65149  18540267.9714   18540272.8534
  19065979.353   -34290133.93749 -26344350.10949  19065981.2294   19065986.2264
  20677621.498   -10978067.40149  -8134400.66649  20677623.1344   20677631.0774
  16732099.115   -31151207.46149 -23974556.93149  16732100.3604   16732104.7554
  19577834.715   -32455967.812 9 -25269702.618 9  19577835.674    19577840.196
  18463599.691   -33506275.83049 -26086314.89649  18463601.2404   18463606.5324
  21011170.029    -9774416.11849  -7597729.37749  21011170.7834   21011178.0124
 96  2 11 19 55 59.9880000  0  8 19 29 27  2 18 28 31 16
  17177967.288   -37554441.64149 -29232884.50549  17177968.7774   17177973.5774
  18542025.825   -13108681.90949 -10193148.36349  18542027.7374   18542033.2274
  19039274.270   -34430480.01949 -26453710.67749  19039273.4754   19039279.2134
  20647249.124   -11137682.94649  -8258776.30549  20647250.0964   20647258.3444
  16723810.520   -31194764.04949 -24008497.14249  16723811.6454   16723816.4564
  19567643.929   -32509524.387 9 -25311435.021 9  19567644.313    19567648.356
  18441591.930   -33621932.48149 -26176436.91349  18441592.6674   18441597.8464
  20986447.573    -9904340.31849  -7698969.02649  20986446.9954   20986455.0684
 96  2 11 19 56 29.9880000  0  8 19 29 27  2 18 28 31 16
  17159398.033   -37652022.68449 -29308921.67849  17159399.6134   17159404.7854
  18543850.462   -13099092.67449 -10185676.30449  18543852.7624   18543857.5684
  19012572.908   -34570793.48049 -26563045.82349  19012573.0634   19012578.1734
  20616904.852   -11297136.35149  -8383025.60249  20616907.0424   20616915.8284
  16715621.281   -31237800.11649 -24042031.75549  16715622.3984   16715626.8094
  19557557.329   -32562528.474 9 -25352736.923 9  19557557.444    19557562.180
  18419685.477   -33737046.92849 -26266136.44249  18419686.9954   18419692.2544
  20961808.745   -10033812.84349  -7799856.73049  20961809.8014   20961814.6274
 96  2 11 19 56 59.9880000  0  8 19 29 27  2 18 28 31 16
  17140861.965   -37749431.88649 -29384824.94649  17140863.1414   17140868.2204
  18545741.433   -13089157.86549 -10177934.94849  18545743.1644   18545748.6644
  18985880.902   -34711059.75349 -26672344.20649  18985880.6654   18985886.8494
  20586592.472   -11456420.18949  -8507142.77249  20586596.2774   20586604.6434
  16707532.225   -31280307.67249 -24075154.53649  16707533.3834   16707537.8734
  19547576.598   -32614973.653 9 -25393603.312 9  19547577.437    19547582.458
  18397883.642   -33851617.96349 -26355412.52749  18397884.8224   18397890.2014
  20937260.192   -10162820.89449  -7900382.51059  20937260.1524   20937265.8154
 96  2 11 19 57 29.9880000  0  8 19 29 27  2 18 28 31 16
  17122357.819   -37846671.84849 -29460596.34049  17122359.4384   17122364.0224
  18547697.286   -13078880.84949 -10169926.95049  18547698.7244   18547704.0194
  18959200.387   -34851265.69849 -26781595.58449  18959201.0464   18959206.2124
  20556314.139   -11615543.67949  -8631134.98849  20556315.5774   20556324.8804
  16699544.023   -31322287.03849 -24107865.75149  16699545.1404   16699549.7244
  19537702.917   -32666861.137 9 -25434035.135 9  19537703.861    19537708.552
  18376183.443   -33965655.22549 -26444272.68149  18376184.2994   18376189.9714
  20912797.646   -10291362.49649  -8000544.79759  20912799.9824   20912806.4244
 96  2 11 19 57 59.9880000  0  8 19 29 27  2 18 28 31 16
  17103884.378   -37943748.67949 -29536240.62349  17103885.9074   17103890.8654
  18549717.599   -13068263.78549 -10161653.97249  18549719.2714   18549724.9934
  18932531.802   -34991403.29249 -26890793.69849  18932533.6054   18932538.5774
  20526062.157   -11774524.02649  -8755015.65749  20526063.3154   20526070.8554
  16691652.623   -31363756.71549 -24140179.80149  16691654.0334   16691658.3854
  19527934.492   -32718195.133 9 -25474035.666 9  19527935.642    19527939.787
  18354581.928   -34079168.72149 -26532724.71949  18354583.6764   18354588.5904
  20888426.696   -10419434.38349  -8100341.08859  20888428.2744   20888435.2214
 96  2 11 19 58 29.9880000  0  8 19 29 27  2 18 28 31 16
  17085444.364   -38040652.67449 -29611750.22349  17085445.8514   17085450.6964
  18551799.536   -13057327.02649 -10153131.86749  18551800.3324   18551805.8024
  18905884.389   -35131445.86449 -26999917.76449  18905884.3284   18905889.9924
  20495836.105   -11933356.31749  -8878780.95249  20495838.0944   20495846.2684
  16683856.731   -31404724.58549 -24172102.83049  16683857.8834   16683862.5144
  19518270.558   -32768981.739 9 -25513609.655 9  19518271.035    19518275.576
  18333078.137   -34192172.72549 -26620779.73849  18333079.3954   18333084.6244
  20864145.883   -10547052.74449  -8199783.98449  20864142.8164   20864149.6674
 96  2 11 19 58 59.9880000  0  8 19 29 27  2 18 28 31 16
  17067039.634   -38137371.14649 -29687115.26949  17067041.0604   17067045.8694
  18553936.361   -13046090.63349 -10144376.29849  18553938.7944   18553944.5404
  18879254.844   -35271375.57549 -27108953.89449  18879256.7814   18879261.8184
  20465643.096   -12092031.70149  -9002423.98249  20465643.5084   20465651.7754
  16676152.709   -31445209.07649 -24203649.20549  16676153.9434   16676158.3644
  19508708.377   -32819226.991 9 -25552761.806 9  19508709.327    19508713.965
  18311668.694   -34304678.19649 -26708446.30449  18311670.2134   18311675.3394
  20839943.228   -10674223.92949  -8298878.42249  20839942.8024   20839950.8274
 96  2 11 19 59 29.9880000  0  8 19 29 27  2 18 28 31 16
  17048670.632   -38233901.35449 -29762333.60849  17048671.9524   17048676.8084
  18556129.215   -13034574.38649 -10135402.65049  18556130.4934   18556135.8354
  18852649.859   -35411193.51449 -27217902.92449  18852650.8884   18852655.7214
  20435477.434   -12250548.32249  -9125943.30449  20435478.5114   20435485.5784
  16668540.495   -31485210.85749 -24234819.43549  16668541.7064   16668546.3404
  19499250.198   -32868928.901 9 -25591490.578 9  19499251.594    19499256.543
  18290356.603   -34416678.36049 -26795719.12249  18290357.4394   18290362.6844
  20815829.237   -10800943.13149  -8397620.66149  20815831.3494   20815836.7454
 96  2 11 19 59 59.9880000  0  8 19 29 27  2 18 28 31 16
  17030338.038   -38330239.84049 -29837402.55649  17030339.1574   17030343.9544
  18558377.844   -13022757.52349 -10126194.76149  18558378.9394   18558384.4784
  18826066.102   -35550881.28449 -27326750.52549  18826068.7584   18826074.3134
  20405347.795   -12408886.85749  -9249323.86349  20405347.5914   20405355.2714
  16661022.588   -31524719.35649 -24265605.29349  16661023.5774   16661028.1024
  19489897.461   -32918081.107 9 -25629791.012 9  19489898.050    19489902.936
  18269141.412   -34528164.90249 -26882591.70549  18269142.3394   18269147.4194
  20791802.850   -10927198.87249  -8496001.76649  20791804.3474   20791811.7634
 96  2 11 20  0 29.9870000  0  8 19 29 27  2 18 28 31 16
  17012047.075   -38426361.11449 -29912302.25649  17012048.0344   17012052.7744
  18560683.759   -13010635.87449 -10116749.37549  18560685.6124   18560690.8994
  18799513.496   -35690425.32849 -27435486.14449  18799514.6374   18799519.6744
  20375253.209   -12567032.46649  -9372554.07449  20375253.0914   20375261.5384
  16653601.338   -31563717.47649 -24295993.45749  16653602.4504   16653607.2124
  19480649.100   -32966679.930 9 -25667660.234 9  19480650.239    19480655.322
  18248025.067   -34639128.67849 -26969056.94449  18248026.3714   18248032.0234
  20767867.445   -11052996.32349  -8594025.76449  20767866.8064   20767871.6914
 96  2 11 20  0 59.9870000  0  8 19 29 27  2 18 28 31 16
  16993796.874   -38522264.53449 -29987032.19349  16993798.0854   16993802.9824
  18563054.178   -12998184.37949 -10107046.96949  18563055.0544   18563060.0734
  18772982.961   -35829841.53549 -27544122.13549  18772984.2774   18772989.1194
  20345192.135   -12725003.51749  -9495648.25249  20345192.9414   20345199.7344
  16646279.734   -31602190.86549 -24325972.73749  16646281.1984   16646285.7974
  19471509.111   -33014720.493 9 -25705094.447 9  19471508.554    19471513.205
  18227010.341   -34749562.39549 -27055109.15749  18227011.7904   18227016.8624
  20744012.046   -11178335.34449  -8691692.53949  20744014.2334   20744020.8614
 96  2 11 20  1 29.9870000  0  8 19 29 27  2 18 28 31 16
  16975587.603   -38617953.60049 -30061595.10449  16975588.9694   16975593.7794
  18565488.323   -12985385.36649 -10097073.75349  18565490.5614   18565496.0454
  18746473.335   -35969146.26449 -27652671.26849  18746475.6584   18746480.4494
  20315164.868   -12882797.68049  -9618604.63449  20315165.6584   20315171.8864
  16639061.434   -31640125.71949 -24355532.38149  16639062.4574   16639067.2464
  19462472.642   -33062201.340 9 -25742092.521 9  19462473.136    19462478.387
  18206099.212   -34859452.56249 -27140737.82749  18206100.1844   18206105.5704
  20720252.330   -11303221.53249  -8789006.46049  20720248.6584   20720254.7974
 96  2 11 20  1 59.9870000  0  8 19 29 27  2 18 28 31 16
  16957421.488   -38713418.74549 -30135983.53449  16957422.7964   16957427.5694
  18567995.499   -12972221.45349 -10086816.22149  18567995.6474   18568000.7244
  18719982.113   -36108357.87649 -27761147.83249  18719984.0264   18719989.6074
  20285170.017   -13040408.78649  -9741418.34749  20285172.1404   20285180.0434
  16631943.652   -31677529.27649 -24384678.02749  16631944.7934   16631949.4334
  19453540.417   -33109128.955 9 -25778659.510 9  19453542.807    19453548.022
  18185291.910   -34968800.47349 -27225943.94449  18185292.2124   18185296.7464
  20696572.051   -11427661.47549  -8885972.64449  20696569.7004   20696575.9894
 96  2 11 20  2 29.9870000  0  8 19 29 27  2 18 28 31 16
  16939299.979   -38808648.96349 -30210188.90249  16939301.1264   16939305.9094
  18570564.604   -12958712.38349 -10076289.72349  18570566.6174   18570571.6834
  18693504.025   -36247502.03849 -27869571.84349  18693505.8644   18693510.7914
  20255215.506   -13197832.84049  -9864086.32649  20255215.5434   20255223.8314
  16624924.680   -31714413.70149 -24413419.15649  16624925.9264   16624930.6684
  19444717.953   -33155500.364 9 -25814793.093 9  19444719.148    19444723.679
  18164588.962   -35077591.89649 -27310716.44549  18164589.5914   18164594.5804
  20672970.903   -11551655.82449  -8982591.62649  20672973.1894   20672980.3454
 96  2 11 20  2 59.9870000  0  8 19 29 27  2 18 28 31 16
  16921220.183   -38903655.55249 -30284220.01549  16921221.8164   16921226.6834
  18573196.847   -12944881.58949 -10065512.55249  18573198.4584   18573203.5644
  18667036.631   -36386591.54249 -27977953.26349  18667038.5684   18667043.1374
  20225294.221   -13355065.32749  -9986605.02249  20225294.9794   20225302.9714
  16617999.630   -31750805.98849 -24441776.79149  16618000.8194   16618005.3534
  19435999.493   -33201318.507 9 -25850495.551 9  19436000.005    19436004.880
  18143993.558   -35185815.52349 -27395046.50449  18143994.7844   18144000.9154
  20649465.236   -11675195.25849  -9078856.12549  20649465.4334   20649471.8714
 96  2 11 20  3 29.9870000  0  8 19 29 27  2 18 28 31 16
  16903183.937   -38998435.30149 -30358074.36949  16903185.8034   16903190.8004
  18575888.421   -12930737.82749 -10054491.50749  18575889.8134   18575895.0654
  18640579.530   -36525625.84849 -28086291.66649  18640580.7044   18640585.9494
  20195415.999   -13512082.25949 -10108955.77049  20195414.8464   20195423.9694
  16611166.468   -31786714.89449 -24469757.77249  16611167.6844   16611172.1844
  19427386.281   -33246577.155 9 -25885762.041 9  19427387.350    19427392.645
  18123509.259   -35293466.77049 -27478930.55149  18123510.0064   18123514.6034
  20626044.227   -11798259.95949  -9174750.70549  20626046.1464   20626052.6824
 96  2 11 20  3 59.9870000  0  8 19 29 27  2 18 28 31 16
  16885190.389   -39092993.23049 -30431755.87849  16885192.1554   16885196.9794
  18578636.590   -12916296.57649 -10043238.63049  18578638.4114   18578643.5944
  18614136.468   -36664585.92249 -28194572.23449  18614137.5224   18614142.6134
  20165581.991   -13668877.51349 -10231133.76449  20165578.4954   20165585.8614
  16604424.020   -31822146.78849 -24497367.05649  16604425.3014   16604429.7344
  19418882.293   -33291273.453 9 -25920590.337 9  19418882.289    19418886.713
  18103132.969   -35400541.88549 -27562365.67149  18103133.8284   18103139.2114
  20602719.944   -11920831.63549  -9270261.10749  20602721.1464   20602729.9894
 96  2 11 20  4 29.9870000  0  8 19 29 27  2 18 28 31 16
  16867234.405   -39187352.79249 -30505282.81049  16867235.9114   16867240.9324
  18581436.169   -12901585.97949 -10031775.87949  18581437.5924   18581442.9984
  18587710.176   -36803458.92449 -28302784.94849  18587711.2604   18587716.2264
  20135779.596   -13825469.32349 -10353153.24949  20135780.0244   20135787.5104
  16597769.514   -31857113.19349 -24524613.61749  16597771.0484   16597775.6784
  19410480.757   -33335416.658 9 -25954987.652 9  19410482.084    19410486.385
  18082866.368   -35507047.88749 -27645357.32449  18082867.1134   18082871.5344
  20579491.795   -12042920.71049  -9365395.45349  20579489.0454   20579495.9904
 96  2 11 20  4 59.9870000  0  8 19 29 27  2 18 28 31 16
  16849315.947   -39281515.41549 -30578656.28649  16849317.5084   16849322.3294
  18584290.284   -12886585.56549 -10020087.30249  18584292.2804   18584297.1594
  18561304.094   -36942225.45049 -28410914.69749  18561304.8614   18561309.7514
  20106015.235   -13981860.65849 -10475016.53149  20106019.1414   20106027.3674
  16591209.218   -31891591.09949 -24551479.52849  16591210.1354   16591214.7374
  19402186.449   -33379005.633 9 -25988953.097 9  19402187.550    19402192.077
  18062701.780   -35613006.74849 -27727922.63649  18062703.7154   18062708.3864
  20556349.815   -12164518.40049  -9460146.91849  20556350.0484   20556356.4144
 96  2 11 20  5 29.9870000  0  8 19 29 27  2 18 28 31 16
  16831433.308   -39375490.41049 -30651883.56349  16831434.6904   16831439.5394
  18587203.468   -12871276.72749 -10008158.39449  18587205.0564   18587210.5024
  18534918.122   -37080880.15649 -28518957.31749  18534919.5664   18534924.5404
  20076293.293   -14138061.14849 -10596731.09649  20076295.1194   20076302.9284
  16584743.772   -31925563.75349 -24577951.73949  16584745.4204   16584749.9204
  19393995.818   -33422043.717 9 -26022489.279 9  19393997.457    19394001.918
  18042639.404   -35718439.39749 -27810077.90749  18042640.1684   18042645.2454
  20533302.922   -12285624.88649  -9554515.62149  20533305.5894   20533309.8464
 96  2 11 20  5 59.9870000  0  8 19 29 27  2 18 28 31 16
  16813586.789   -39469273.10849 -30724960.99549  16813588.3764   16813593.3154
  18590174.195   -12855664.39449  -9995992.99649  18590176.6304   18590181.3404
  18508555.337   -37219415.74249 -28626907.11249  18508557.0364   18508562.2154
  20046603.570   -14294085.58149 -10718308.47849  20046604.2654   20046612.2194
  16578377.884   -31959021.12049 -24604022.42749  16578378.8844   16578383.0334
  19385911.919   -33464532.593 9 -26055597.503 9  19385912.155    19385916.704
  18022674.861   -35823349.47049 -27891825.98149  18022676.5694   18022681.5004
  20510352.887   -12406248.98549  -9648508.43349  20510350.5524   20510355.5884
 96  2 11 20  6 29.9870000  0  8 19 29 27  2 18 28 31 16
  16795780.904   -39562845.44049 -30797874.50349  16795782.1464   16795787.1074
  18593202.893   -12839750.67249  -9983592.74849  18593205.2184   18593210.3784
  18482211.891   -37357857.53549 -28734783.81649  18482212.7494   18482217.7354
  20016946.183   -14449944.28249 -10839756.72949  20016945.9434   20016953.7634
  16572110.581   -31991953.28049 -24629683.86149  16572111.8414   16572116.7574
  19377931.174   -33506476.876 9 -26088281.366 9  19377930.517    19377935.460
  18002808.416   -35927752.16449 -27973178.69549  18002808.7874   18002813.6334
  20487483.998   -12526396.27749  -9742129.71449  20487486.8464   20487493.5094
 96  2 11 20  6 59.9870000  0  8 19 29 27  2 18 28 31 16
  16778014.501   -39656205.52549 -30870622.62949  16778016.1664   16778021.1964
  18596292.347   -12823521.92849  -9970947.02149  18596293.6234   18596298.6024
  18455881.331   -37496218.78249 -28842597.76449  18455882.9124   18455888.2014
  19987317.142   -14605632.11849 -10961071.84449  19987318.7864   19987327.2414
  16565945.876   -32024348.97749 -24654927.26949  16565947.2644   16565952.0164
  19370050.275   -33547879.627 9 -26120543.260 9  19370051.951    19370056.456
  17983037.681   -36031645.14449 -28054134.22049  17983038.9924   17983043.3954
  20464719.681   -12646055.51849  -9835370.67549  20464717.2664   20464724.0554
 96  2 11 20  7 29.9870000  0  8 19 29 27  2 18 28 31 16
  16760288.797   -39749358.58049 -30943209.43049  16760289.9674   16760294.9344
  18599435.768   -12806994.08049  -9958068.23149  18599437.7904   18599443.1934
  18429566.361   -37634504.69049 -28950353.00849  18429567.9734   18429573.4194
  19957725.929   -14761143.89549 -11082249.77349  19957726.5174   19957734.1344
  16559881.886   -32056219.92249 -24679761.79149  16559882.5654   16559887.2194
  19362274.606   -33588745.864 9 -26152387.084 9  19362274.941    19362279.982
  17963369.084   -36135004.46449 -28134673.91849  17963370.0064   17963374.7204
  20442038.033   -12765236.19849  -9928238.74949  20442037.8864   20442044.4714
 96  2 11 20  7 59.9870000  0  8 19 29 27  2 18 28 31 16
  16742601.741   -39842303.92049 -31015634.37449  16742602.9434   16742607.8814
  18602637.228   -12790175.79149  -9944963.13149  18602638.7584   18602643.8974
  18403265.239   -37772725.56249 -29058057.57149  18403265.8444   18403271.1714
  19928166.127   -14916476.39449 -11203288.01949  19928167.5464   19928174.6764
  16553914.505   -32087575.80049 -24704194.95549  16553915.7844   16553920.2354
  19354599.290   -33629082.392 9 -26183818.150 9  19354599.521    19354603.849
  17943804.446   -36237820.82549 -28214790.51649  17943805.0644   17943809.7894
  20419448.168   -12883940.93249 -10020735.95949  20419448.1124   20419455.2934
 96  2 11 20  8 29.9870000  0  8 19 29 27  2 18 28 31 16
  16724955.613   -39935035.63849 -31087892.86349  16724956.9324   16724961.6474
  18605897.344   -12773043.92049  -9931613.69849  18605898.1954   18605904.2244
  18376975.818   -37910871.88049 -29165704.04349  18376977.2224   18376982.2164
  19898645.398   -15071605.55549 -11324167.81649  19898647.6604   19898654.6404
  16548047.021   -32118410.73849 -24728222.19449  16548047.9874   16548052.5314
  19347023.694   -33668882.823 9 -26214831.486 9  19347025.424    19347030.445
  17924346.975   -36340070.29349 -28294465.38949  17924347.4014   17924352.2004
  20396955.189   -13002152.63549 -10112848.96949  20396954.7704   20396959.7244
 96  2 11 20  8 59.9870000  0  8 19 29 27  2 18 28 31 16
  16707344.852   -40027580.33249 -31160005.61949  16707346.0644   16707351.1164
  18609214.741   -12755607.80949  -9918027.18749  18609216.6644   18609222.6994
  18350703.555   -38048933.79449 -29273284.75149  18350705.0904   18350710.1474
  19869167.311   -15226530.13549 -11444888.20349  19869166.2904   19869173.0314
  16542274.985   -32148742.13249 -24751857.06349  16542276.0794   16542280.9134
  19339553.106   -33708154.345 9 -26245432.692 9  19339552.696    19339557.228
  17904998.680   -36441740.09649 -28373688.57349  17905000.5004   17905005.3784
  20374550.571   -13119878.63649 -10204583.53749  20374550.8914   20374558.3384
 96  2 11 20  9 29.9870000  0  8 19 29 27  2 18 28 31 16
  16689771.436   -40119928.78649 -31231965.45949  16689772.7544   16689777.9474
  18612589.760   -12737876.23749  -9904210.43949  18612590.4644   18612596.6894
  18324448.316   -38186907.87349 -29380797.00249  18324449.8174   18324454.5764
  19839723.017   -15381251.30849 -11565450.10149  19839723.7174   19839731.4074
  16536595.901   -32178586.57849 -24775112.49049  16536597.1414   16536601.6914
  19332180.646   -33746890.498 9 -26275616.718 9  19332180.941    19332186.019
  17885762.170   -36542830.28149 -28452460.10249  17885763.6324   17885768.4104
  20352238.111   -13237116.38249 -10295937.63849  20352240.8464   20352247.8634
 96  2 11 20  9 59.9870000  0  8 19 29 27  2 18 28 31 16
  16672233.969   -40212087.61949 -31303777.54149  16672235.5414   16672240.6654
  18616019.751   -12719849.50549  -9890163.69649  18616021.5594   18616026.5204
  18298207.218   -38324800.86049 -29488246.07149  18298208.9264   18298214.0344
  19810315.870   -15535788.18949 -11685868.40249  19810316.6554   19810323.1384
  16531007.738   -32207954.55849 -24797996.64449  16531008.4344   16531013.3184
  19324910.544   -33785093.723 9 -26305385.484 9  19324911.432    19324916.405
  17866635.342   -36643346.21349 -28530784.16849  17866636.4714   17866641.1394
  20330025.169   -13353858.76949 -10386905.72749  20330026.1054   20330033.3474
 96  2 11 20 10 29.9870000  0  8 19 29 27  2 18 28 31 16
  16654731.515   -40304064.39249 -31375447.75849  16654732.6964   16654737.8654
  18619501.375   -12701546.98849  -9875902.05349  18619504.3464   18619510.2954
  18271983.502   -38462611.69849 -29595631.13149  18271984.9354   18271989.5794
  19780938.464   -15690157.55349 -11806156.15849  19780941.0914   19780948.4074
  16525508.221   -32236851.30649 -24820513.60849  16525509.3964   16525514.4154
  19317741.903   -33822768.337 9 -26334742.349 9  19317741.858    19317746.905
  17847614.323   -36743297.24449 -28608668.05449  17847615.7374   17847620.8534
  20307900.471   -13470122.01149 -10477500.47549  20307901.3584   20307909.2704
 96  2 11 20 10 59.9870000  0  8 19 29 27  2 18 28 31 16
  16637265.925   -40395846.77149 -31446966.49649  16637267.2044   16637272.1524
  18623036.725   -12682977.26249  -9861432.19249  18623038.2094   18623043.4084
  18245777.098   -38600329.04249 -29702943.33749  18245778.0764   18245783.2974
  19751593.341   -15844371.46249 -11926322.78749  19751594.6524   19751601.9564
  16520096.700   -32265287.25849 -24842671.50649  16520098.2764   16520103.2784
  19310673.345   -33859912.021 9 -26363685.502 9  19310673.929    19310678.578
  17828700.186   -36842697.18649 -28686122.51949  17828700.7114   17828705.6344
  20285864.452   -13585913.33249 -10567727.48449  20285868.4014   20285872.9364
 96  2 11 20 11 29.9870000  0  8 19 29 27  2 18 28 31 16
  16619839.841   -40487419.67249 -31518322.00849  16619841.6054   16619846.3394
  18626623.948   -12664125.73149  -9846742.76249  18626625.5094   18626630.9524
  18219587.524   -38737949.57849 -29810180.10849  18219589.6714   18219594.7464
  19722278.409   -15998425.94949 -12046365.18349  19722279.5124   19722286.4804
  16514774.725   -32293257.53049 -24864466.54349  16514776.0274   16514780.6154
  19303706.304   -33896522.135 9 -26392212.888 9  19303707.413    19303711.778
  17809887.748   -36941549.74049 -28763150.45649  17809889.1904   17809894.6834
  20263922.783   -13701233.56949 -10657587.42249  20263923.0114   20263929.6114
 96  2 11 20 11 59.9860000  0  8 19 29 27  2 18 28 31 16
  16602455.761   -40578776.78349 -31589509.37049  16602457.1694   16602461.7874
  18630264.892   -12644991.83449  -9831833.29249  18630266.6124   18630271.6034
  18193420.933   -38875455.26649 -29917327.38549  18193422.6104   18193428.1644
  19692998.637   -16152303.96049 -12166270.06949  19692997.4044   19693004.5964
  16509544.797   -32320739.99949 -24885881.47149  16509545.9024   16509551.0914
  19296840.001   -33932602.211 9 -26420327.266 9  19296841.117    19296845.896
  17791184.806   -37039834.89649 -28839736.26449  17791186.4984   17791191.9814
  20242065.780   -13816087.66649 -10747084.13549  20242067.4774   20242072.8754
 96  2 11 20 12 29.9860000  0  8 19 29 27  2 18 28 31 16
  16585113.027   -40669912.12249 -31660523.92049  16585114.6224   16585119.5634
  18633960.937   -12625572.01249  -9816701.02749  18633961.9614   18633967.3584
  18167277.703   -39012844.85449 -30024384.19449  18167278.8964   18167283.9984
  19663748.851   -16305993.11549 -12286027.81349  19663751.5234   19663758.6134
  16504408.523   -32347732.50249 -24906914.60749  16504409.7554   16504414.3904
  19290075.492   -33968155.584 9 -26448031.218 9  19290075.773    19290080.889
  17772590.638   -37137554.62649 -28915881.47249  17772591.0234   17772595.8254
  20220297.828   -13930487.46349 -10836226.82849  20220297.0604   20220305.1384
 96  2 11 20 12 59.9860000  0  8 19 29 27  2 18 28 31 16
  16567812.310   -40760826.13549 -31731366.01249  16567814.0814   16567818.8414
  18637713.311   -12605850.46149  -9801333.64749  18637715.3414   18637720.0004
  18141154.585   -39150116.56749 -30131349.15549  18141156.6334   18141161.5204
  19634546.980   -16459465.11649 -12405616.31949  19634546.4354   19634553.7024
  16499366.445   -32374228.74049 -24927561.04149  16499367.5404   16499372.3134
  19283411.818   -34003176.978 9 -26475320.642 9  19283411.775    19283416.476
  17754107.156   -37234680.33849 -28991563.82349  17754108.4914   17754113.1324
  20198617.114   -14044409.98649 -10924997.63549  20198618.6424   20198624.6564
 96  2 11 20 13 29.9860000  0  8 19 29 27  2 18 28 31 16
  16550554.012   -40851520.14849 -31802036.67349  16550555.5474   16550560.5514
  18641524.233   -12585821.59749  -9785726.80049  18641526.4054   18641531.9494
  18115055.705   -39287271.83149 -30238223.37149  18115056.9484   18115062.3644
  19605385.551   -16612698.90449 -12525019.20849  19605386.7354   19605394.1994
  16494422.968   -32400205.22749 -24947802.47749  16494424.2544   16494428.9894
  19276849.414   -34037657.361 9 -26502188.508 9  19276850.286    19276855.512
  17735742.880   -37331184.73449 -29066762.03049  17735744.2884   17735749.3014
  20177034.077   -14157828.70549 -11013375.87749  20177035.5984   20177042.1934
 96  2 11 20 13 59.9860000  0  8 19 29 27  2 18 28 31 16
  16533334.348   -40942007.40049 -31872546.22149  16533336.2874   16533341.1874
  18645390.305   -12565505.52849  -9769896.16649  18645393.0634   18645398.3864
  18088975.478   -39424325.65349 -30345018.54649  18088976.5184   18088981.6564
  19576269.916   -16765703.93149 -12644243.84349  19576271.2904   19576278.5354
  16489576.816   -32425673.58449 -24967647.96349  16489577.8084   16489582.7854
  19270389.174   -34071604.861 9 -26528641.133 9  19270390.371    19270395.462
  17717495.580   -37427074.72449 -29141481.47949  17717496.7724   17717502.0264
  20155548.326   -14270739.80949 -11101358.53149  20155550.5524   20155556.5654
 96  2 11 20 14 29.9860000  0  8 19 29 27  2 18 28 31 16
  16516152.700   -41032302.38449 -31942905.95549  16516153.8324   16516158.8034
  18649307.924   -12544919.77249  -9753855.39449  18649309.5874   18649315.4814
  18062908.798   -39561305.93249 -30451756.41149  18062910.1354   18062914.8674
  19547194.909   -16918498.72949 -12763304.66549  19547194.4584   19547202.2034
  16484823.381   -32450653.22549 -24987112.63849  16484824.6484   16484829.2544
  19264030.406   -34105024.079 9 -26554682.115 9  19264030.880    19264035.674
  17699360.193   -37522380.09649 -29215745.38549  17699361.1264   17699366.3874
  20134160.973   -14383138.81549 -11188942.18049  20134161.2714   20134168.6244
 96  2 11 20 14 59.9860000  0  8 19 29 27  2 18 28 31 16
  16499004.343   -41122413.50449 -32013122.41749  16499006.1884   16499011.2754
  18653271.651   -12524085.40049  -9737620.88449  18653274.8134   18653280.1244
  18036851.120   -39698234.43049 -30558453.93849  18036853.4684   18036858.6594
  19518155.867   -17071095.91149 -12882211.49049  19518156.7534   19518163.4034
  16480160.774   -32475153.11349 -25006203.48049  16480162.2784   16480166.9034
  19257769.942   -34137920.973 9 -26580316.089 9  19257770.618    19257775.923
  17681330.544   -37617121.73449 -29289570.02349  17681332.2024   17681336.9904
  20112867.296   -14495027.51149 -11276128.17949  20112869.3104   20112876.6804
 96  2 11 20 15 29.9860000  0  8 19 29 27  2 18 28 31 16
  16481895.195   -41212323.86049 -32083182.43549  16481896.8064   16481902.0204
  18657284.274   -12503009.37749  -9721198.08649  18657284.9884   18657290.9834
  18010806.626   -39835101.81549 -30665103.83049  18010808.4354   18010813.4664
  19489151.630   -17223509.29449 -13000975.09549  19489153.8574   19489160.0914
  16475590.926   -32499170.70049 -25024918.50149  16475591.9184   16475596.4184
  19251610.164   -34170291.542 9 -26605539.940 9  19251610.775    19251616.553
  17663406.626   -37711315.25249 -29362967.54349  17663408.1914   17663413.1564
  20091674.497   -14606408.90149 -11362918.89549  20091673.9744   20091680.1794
 96  2 11 20 15 59.9860000  0  8 19 29 27  2 18 28 31 16
  16464823.603   -41302037.65949 -32153089.29149  16464824.9804   16464829.8774
  18661339.436   -12481695.62949  -9704590.04149  18661341.4374   18661346.6614
  17984773.842   -39971911.84849 -30771709.03649  17984774.4294   17984779.3404
  19460181.422   -17375747.69449 -13119602.35449  19460183.6344   19460190.3364
  16471111.284   -32522709.06349 -25043260.10249  16471112.8104   16471117.5044
  19245549.447   -34202139.992 9 -26630356.948 9  19245550.323    19245555.708
  17645586.694   -37804959.65949 -29435937.20349  17645587.9134   17645592.7044
  20070572.682   -14717295.68349 -11449324.18749  20070572.9024   20070579.4834
 96  2 11 20 16 29.9860000  0  8 19 29 27  2 18 28 31 16
  16447791.177   -41391540.92249 -32222832.09849  16447792.9794   16447797.8144
  18665442.088   -12460133.94349  -9687788.81249  18665443.9034   18665450.3904
  17958753.624   -40108643.10149 -30878252.86549  17958755.2024   17958760.3344
  19431247.473   -17527803.78449 -13238087.55749  19431247.5104   19431255.3784
  16466725.907   -32545756.63149 -25061219.26649  16466727.1264   16466732.0044
  19239589.312   -34233460.351 9 -26654762.441 9  19239590.287    19239595.702
  17627874.076   -37898040.92749 -29508468.05349  17627875.6694   17627880.0954
  20049565.977   -14827677.31949 -11535335.86749  20049568.1294   20049575.4064
 96  2 11 20 16 59.9860000  0  8 19 29 27  2 18 28 31 16
  16430802.271   -41480823.23649 -32292402.72949  16430803.2834   16430808.2024
  18669598.546   -12438300.75949  -9670776.00349  18669599.2084   18669604.6004
  17932754.095   -40245269.02249 -30984714.59849  17932755.9744   17932761.3654
  19402346.299   -17679674.14449 -13356428.02349  19402347.6394   19402354.9864
  16462435.585   -32568303.58249 -25078788.33749  16462436.5034   16462441.3314
  19233729.253   -34264255.577 9 -26678758.745 9  19233730.070    19233735.518
  17610274.725   -37990526.43749 -29580534.67349  17610275.8844   17610280.8424
  20028658.630   -14937557.70449 -11620956.93849  20028658.6474   20028665.0124
 96  2 11 20 17 29.9860000  0  8 19 29 27  2 18 28 31 16
  16413855.175   -41569877.18949 -32361795.42249  16413856.6604   16413861.6684
  18673807.496   -12416183.32249  -9653541.71749  18673807.4824   18673814.0224
  17906779.013   -40381774.72649 -31091082.67549  17906780.3804   17906784.8264
  19373483.158   -17831361.21849 -13474625.68349  19373482.6294   19373489.7704
  16458241.446   -32590340.57949 -25095960.04949  16458242.8584   16458247.8934
  19227967.683   -34294529.993 9 -26702349.216 9  19227969.202    19227974.526
  17592791.801   -38082403.25949 -29652126.99449  17592792.3634   17592797.2434
  20007844.381   -15046942.87449 -11706192.14449  20007844.0064   20007850.2144
 96  2 11 20 17 59.9860000  0  8 19 29 27  2 18 28 31 16
  16396955.076   -41658687.74649 -32430998.45349  16396956.6664   16396961.7944
  18678073.852   -12393764.47449  -9636072.56249  18678074.0504   18678079.4934
  17880828.747   -40518144.56249 -31197344.87449  17880829.6194   17880834.6514
  19344659.139   -17982836.13249 -13592658.02149  19344658.8174   19344665.1684
  16454147.484   -32611854.28549 -25112723.99949  16454149.2574   16454154.1704
  19222308.258   -34324277.220 9 -26725528.892 9  19222308.065    19222313.638
  17575424.802   -38173657.40349 -29723234.12249  17575426.7184   17575432.5224
  19987127.926   -15155813.66649 -11791026.53649  19987126.0534   19987131.7544
 96  2 11 20 18 29.9860000  0  8 19 29 27  2 18 28 31 16
  16380103.589   -41747245.56449 -32500004.54349  16380104.6284   16380109.8804
  18682398.450   -12371037.34649  -9618363.18249  18682398.9154   18682404.4264
  17854907.271   -40654359.67449 -31303486.51249  17854908.6324   17854913.9014
  19315874.978   -18134084.89349 -13710514.13049  19315876.1274   19315883.6844
  16450152.807   -32632848.54249 -25129083.17949  16450154.0704   16450158.8684
  19216747.511   -34353493.452 9 -26748294.795 9  19216748.379    19216754.206
  17558178.647   -38264297.73649 -29793862.95149  17558178.8094   17558183.8764
  19966505.788   -15264164.68449 -11875455.91149  19966507.4274   19966513.2194
 96  2 11 20 18 59.9860000  0  8 19 29 27  2 18 28 31 16
  16363297.030   -41835560.35049 -32568821.25349  16363299.1864   16363304.0454
  18686779.811   -12348011.29449  -9600420.87549  18686780.9964   18686786.5964
  17829012.413   -40790433.23349 -31409517.84049  17829014.6244   17829020.1814
  19287137.220   -18285098.22049 -13828186.79949  19287139.0894   19287146.4234
  16446253.565   -32653337.41449 -25145048.55049  16446255.2564   16446260.1444
  19211289.524   -34382179.874 9 -26770647.863 9  19211289.641    19211295.566
  17541044.023   -38354337.91849 -29864024.13949  17541045.2094   17541049.8054
  19945982.362   -15372010.37749 -11959491.51949  19945985.2764   19945991.2684
 96  2 11 20 19 29.9860000  0  8 19 29 27  2 18 28 31 16
  16346534.661   -41923649.05249 -32637461.80149  16346536.3434   16346541.2654
  18691210.593   -12324727.40649  -9582277.65649  18691212.3694   18691216.8444
  17803142.572   -40926382.30049 -31515452.16749  17803144.4914   17803149.4534
  19258446.260   -18435872.59349 -13945673.26449  19258447.7724   19258454.2124
  16442445.792   -32673349.44449 -25160642.35949  16442447.0704   16442452.0364
  19205929.555   -34410343.123 9 -26792593.257 9  19205930.414    19205936.031
  17524018.403   -38443805.84149 -29933739.40349  17524019.6494   17524024.7664
  19925558.174   -15479344.74249 -12043128.69349  19925560.1804   19925566.5124
 96  2 11 20 19 59.9860000  0  8 19 29 27  2 18 28 31 16
  16329810.280   -42011538.12849 -32705946.79549  16329811.5054   16329816.5264
  18695685.640   -12301208.80449  -9563951.54149  18695686.1554   18695692.3434
  17777295.914   -41062215.35949 -31621296.09549  17777296.3914   17777301.3864
  19229797.684   -18586416.18349 -14062979.89649  19229800.0424   19229807.4594
  16438723.483   -32692912.41149 -25175886.25149  16438724.1984   16438729.3954
  19200668.002   -34437992.375 9 -26814138.146 9  19200668.791    19200674.509
  17507099.853   -38532710.74349 -30003015.95149  17507101.6494   17507106.8444
  19905230.989   -15586170.14449 -12126369.27549  19905232.3044   19905237.4784
 96  2 11 20 20 29.9860000  0  8 19 29 27  2 18 28 31 16
  16313122.577   -42099229.97149 -32774278.10049  16313124.3864   16313129.1664
  18700206.146   -12277457.37549  -9545444.00449  18700206.8664   18700213.0244
  17751466.049   -41197947.50449 -31727061.39449  17751467.3364   17751472.4904
  19201193.235   -18736742.42949 -14180117.15549  19201193.8904   19201201.0334
  16435083.439   -32712037.27349 -25190788.76649  16435085.0254   16435089.7484
  19195505.792   -34465125.137 9 -26835280.574 9  19195506.212    19195511.623
  17490291.233   -38621044.63549 -30071847.55349  17490291.8054   17490297.1024
  19884998.030   -15692494.19149 -12209219.20149  19884999.2314   19885005.3144
 96  2 11 20 20 59.9860000  0  8 19 29 27  2 18 28 31 16
  16296476.594   -42186707.39449 -32842442.32349  16296477.9114   16296483.0254
  18704767.227   -12253479.06149  -9526759.66749  18704769.3154   18704775.0344
  17725654.143   -41333591.32849 -31832757.86349  17725655.0314   17725660.2054
  19172627.332   -18886856.46049 -14297089.07549  19172628.4564   19172635.0274
  16431529.134   -32730715.52149 -25205343.27149  16431530.4974   16431535.4034
  19190441.154   -34491739.624 9 -26856019.158 9  19190441.254    19190446.834
  17473595.053   -38708783.94449 -30140215.85649  17473595.9224   17473600.7394
  19864865.367   -15798299.04549 -12291664.54649  19864864.6774   19864872.2244
 96  2 11 20 21 29.9860000  0  8 19 29 27  2 18 28 31 16
  16279873.708   -42273956.07949 -32910428.31249  16279875.0534   16279879.8374
  18709376.971   -12229263.12749  -9507890.17049  18709377.5214   18709384.0614
  17699860.322   -41469134.73149 -31938376.08449  17699862.0504   17699867.1784
  19144102.342   -19036759.79349 -14413896.79949  19144102.0844   19144109.6194
  16428064.605   -32748924.99949 -25219532.49749  16428065.6264   16428070.4504
  19185475.704   -34517832.217 9 -26876351.074 9  19185476.140    19185481.719
  17457016.854   -38795903.11749 -30208100.94049  17457017.9404   17457022.6774
  19844831.349   -15903567.94049 -12373692.27349  19844833.3104   19844839.4024
 96  2 11 20 21 59.9860000  0  8 19 29 27  2 18 28 31 16
  16263315.458   -42360969.12849 -32978230.69149  16263317.0274   16263321.8444
  18714033.969   -12204785.22149  -9488816.54749  18714035.5814   18714041.4924
  17674084.700   -41604585.07649 -32043921.79249  17674086.7294   17674091.8704
  19115614.062   -19186459.55449 -14530545.90849  19115615.0944   19115622.0514
  16424692.377   -32766645.93149 -25233341.04249  16424693.3814   16424698.4074
  19180608.681   -34543405.390 9 -26896278.245 9  19180609.582    19180615.292
  17440556.185   -38882404.23849 -30275504.42449  17440557.7234   17440562.2654
  19824899.994   -16008310.60149 -12455309.94049  19824900.2004   19824908.4834
 96  2 11 20 22 29.9860000  0  8 19 29 27  2 18 28 31 16
  16246802.603   -42447744.58749 -33045847.93349  16246804.2394   16246809.2084
  18718740.404   -12180057.76349  -9469548.47949  18718741.8194   18718746.3654
  17648325.472   -41739955.12449 -32149404.92949  17648326.7584   17648331.8764
  19087165.196   -19335956.53249 -14647037.01149  19087166.6574   19087173.7114
  16421413.124   -32783880.26649 -25246770.41849  16421414.0134   16421418.5014
  19175839.216   -34568472.316 9 -26915810.940 9  19175839.611    19175845.322
  17424210.640   -38968299.65749 -30342435.93349  17424211.6294   17424216.6714
  19805064.844   -16112539.54149 -12536527.31949  19805066.9614   19805074.1484
 96  2 11 20 22 59.9850000  0  8 19 29 27  2 18 28 31 16
  16230333.445   -42534291.23349 -33113286.87849  16230335.1434   16230339.7694
  18723489.844   -12155094.47749  -9450096.64349  18723492.3434   18723497.9534
  17622586.900   -41875209.97449 -32254798.30149  17622588.6364   17622593.4794
  19058761.020   -19485226.03849 -14763350.84149  19058762.4534   19058768.7204
  16418227.665   -32800618.62049 -25259813.31549  16418228.6724   16418233.3464
  19171165.779   -34593033.477 9 -26934949.532 9  19171166.158    19171171.421
  17407979.423   -39053595.25549 -30408900.04549  17407980.5904   17407985.7534
  19785331.253   -16216241.91249 -12617334.37349  19785332.1454   19785338.7544
 96  2 11 20 23 29.9850000  0  8 19 29 27  2 18 28 31 16
  16213903.383   -42620632.35449 -33180565.67649  16213904.8824   16213909.8194
  18728289.195   -12129874.79049  -9430445.00349  18728291.0604   18728297.0764
  17596872.841   -42010340.18849 -32360094.56049  17596874.1914   17596879.3404
  19030400.597   -19634263.10949 -14879483.56449  19030400.8094   19030407.8614
  16415138.491   -32816851.90249 -25272462.65249  16415139.5454   16415144.5194
  19166588.444   -34617086.766 9 -26953692.378 9  19166588.593    19166594.256
  17391856.780   -39138315.64149 -30474915.94349  17391858.8594   17391864.0604
  19765693.016   -16319439.04349 -12697747.73149  19765695.0204   19765702.1844
 96  2 11 20 23 59.9850000  0  8 19 29 27  2 18 28 31 16
  16197510.996   -42706772.11349 -33247687.57149  16197512.8744   16197517.9494
  18733136.824   -12104407.00949  -9410600.05749  18733137.9794   18733143.8274
  17571184.002   -42145335.50049 -32465285.69449  17571185.7404   17571190.3104
  19002085.347   -19783063.13149 -14995431.57749  19002085.1664   19002092.5224
  16412143.685   -32832590.51949 -25284726.53749  16412144.6654   16412149.5214
  19162107.421   -34640633.603 9 -26972040.589 9  19162107.873    19162113.404
  17375843.226   -39222471.52849 -30540491.97249  17375844.8254   17375849.5744
  19746150.657   -16422132.18949 -12777768.38449  19746152.6424   19746160.7374
 96  2 11 20 24 29.9850000  0  8 19 29 27  2 18 28 31 16
  16181158.426   -42792707.84049 -33314650.47349  16181159.8254   16181164.8794
  18738030.698   -12078693.44749  -9390563.57149  18738032.3724   18738037.3784
  17545523.750   -42280181.52349 -32570360.50049  17545525.1934   17545530.3174
  18973813.189   -19931616.43849 -15111187.35049  18973816.4704   18973822.8934
  16409241.914   -32847837.61849 -25296607.41649  16409243.0694   16409248.1564
  19157722.744   -34663669.744 9 -26989990.841 9  19157724.477    19157729.732
  17359941.719   -39306035.57049 -30605606.81449  17359942.9314   17359947.2224
  19726705.972   -16524320.50049 -12857395.63749  19726708.1684   19726714.9274
 96  2 11 20 24 59.9850000  0  8 19 29 27  2 18 28 31 16
  16164843.447   -42878442.40049 -33381456.62649  16164845.0044   16164850.1744
  18742972.128   -12052713.64349  -9370319.65049  18742975.0064   18742981.0844
  17519891.486   -42414882.29749 -32675322.12549  17519892.1594   17519897.4224
  18945593.537   -20079930.95349 -15226757.04549  18945593.6544   18945600.5354
  16406434.146   -32862592.92249 -25308105.08549  16406435.5094   16406440.1694
  19153437.688   -34686189.678 9 -27007538.856 9  19153438.710    19153444.404
  17344154.053   -39388996.78249 -30670251.92349  17344155.9834   17344161.0544
  19707356.525   -16626004.23749 -12936629.74149  19707357.2384   19707364.0504
 96  2 11 20 25 29.9850000  0  8 19 29 27  2 18 28 31 16
  16148569.488   -42963964.74049 -33448097.41149  16148570.8784   16148575.7714
  18747969.031   -12026465.75949  -9349866.82549  18747970.1594   18747975.5624
  17494280.705   -42549463.83549 -32780190.84149  17494282.4844   17494287.3564
  18917409.299   -20228035.27049 -15342162.95449  18917409.7024   18917417.4784
  16403717.686   -32876868.97949 -25319229.30949  16403718.9954   16403723.5004
  19149249.215   -34708202.519 9 -27024691.740 9  19149249.852    19149255.389
  17328484.041   -39471343.62749 -30734418.30249  17328485.8314   17328490.8274
  19688101.277   -16727190.99449 -13015476.55949  19688102.2304   19688109.5284
 96  2 11 20 25 59.9850000  0  8 19 29 27  2 18 28 31 16
  16132336.457   -43049268.29849 -33514567.71849  16132338.1314   16132343.1804
  18753010.779   -11999967.38749  -9329218.80949  18753011.7924   18753017.9234
  17468690.498   -42683939.90149 -32884977.37649  17468692.2404   17468697.0454
  18889262.198   -20375949.69849 -15457420.89549  18889262.6684   18889269.7024
  16401088.719   -32890683.80649 -25329994.13749  16401090.0144   16401094.7464
  19145154.838   -34729719.507 9 -27041458.236 9  19145155.725    19145160.887
  17312932.729   -39553068.28949 -30798099.85649  17312934.3054   17312939.4964
  19668943.848   -16827871.38949 -13093928.84149  19668943.7414   19668950.2104
 96  2 11 20 26 29.9850000  0  8 19 29 27  2 18 28 31 16
  16116145.873   -43134351.79849 -33580866.54649  16116147.2564   16116152.2204
  18758099.217   -11973223.35949  -9308379.38549  18758100.8294   18758108.2424
  17443116.672   -42818327.63049 -32989695.07349  17443118.9614   17443124.1274
  18861150.373   -20523676.39349 -15572532.56149  18861151.3634   18861158.7204
  16398546.792   -32904041.95949 -25340403.11549  16398547.9854   16398552.7114
  19141154.143   -34750741.833 9 -27057839.283 9  19141155.099    19141160.584
  17297501.159   -39634165.34049 -30861292.35849  17297501.9934   17297506.6484
  19649882.887   -16928033.46449 -13171977.21449  19649882.9804   19649889.6594
 96  2 11 20 26 59.9850000  0  8 19 29 27  2 18 28 31 16
  16099997.612   -43219211.55649 -33646991.03149  16099999.0854   16100004.0794
  18763233.580   -11946244.38849  -9287356.86449  18763234.9814   18763241.3024
  17417560.797   -42952627.48749 -33094344.29549  17417562.4394   17417567.8054
  18833072.671   -20671217.98049 -15687499.97649  18833074.9734   18833081.4524
  16396092.011   -32916941.59349 -25350454.80249  16396093.2294   16396097.7724
  19137248.082   -34771267.769 9 -27073833.527 9  19137249.393    19137254.131
  17282186.111   -39714647.74849 -30924005.91949  17282186.9604   17282191.3464
  19630925.003   -17027662.31549 -13249610.10049  19630925.6174   19630931.0934
 96  2 11 20 27 29.9850000  0  8 19 29 27  2 18 28 31 16
  16083895.308   -43303830.35549 -33712927.75949  16083896.6074   16083901.5644
  18768409.782   -11919043.39949  -9266161.35349  18768411.5924   18768417.5344
  17392025.337   -43086819.05849 -33198909.13749  17392026.6514   17392031.7844
  18805034.051   -20818562.38849 -15802313.75549  18805035.4464   18805042.9044
  16393725.564   -32929377.90549 -25360145.46649  16393726.5914   16393731.2564
  19133437.172   -34791296.105 9 -27089440.019 9  19133438.357    19133443.306
  17266987.955   -39794513.55249 -30986239.00149  17266988.6354   17266993.2164
  19612071.113   -17126738.66249 -13326812.45449  19612071.7374   19612079.1614
 96  2 11 20 27 59.9850000  0  8 19 29 27  2 18 28 31 16
  16067837.799   -43388210.69849 -33778678.67449  16067839.3694   16067844.3364
  18773627.368   -11891628.02249  -9244798.78949  18773629.9144   18773634.5394
  17366511.040   -43220898.18149 -33303386.36849  17366512.9064   17366517.3544
  18777038.866   -20965682.92649 -15916953.07849  18777039.9464   18777046.9124
  16391445.511   -32941360.41349 -25369482.51449  16391446.7584   16391450.9924
  19129721.567   -34810826.589 9 -27104658.573 9  19129721.953    19129726.604
  17251906.289   -39873770.72649 -31047997.82649  17251906.8004   17251911.6414
  19593321.326   -17225264.52549 -13403585.86949  19593322.4304   19593329.7244
 96  2 11 20 28 29.9850000  0  8 19 29 27  2 18 28 31 16
  16051826.351   -43472352.68649 -33844243.85649  16051828.0164   16051832.8524
  18778880.690   -11864007.45049  -9223276.33849  18778884.1824   18778891.6324
  17341018.485   -43354858.83349 -33407771.28249  17341020.5244   17341025.6784
  18749088.221   -21112569.04149 -16031409.74449  18749088.1764   18749095.9714
  16389250.525   -32952893.27449 -25378469.18549  16389251.9034   16389256.5874
  19126098.916   -34829861.268 9 -27119490.801 9  19126099.256    19126104.510
  17236939.611   -39952415.31849 -31109279.31049  17236941.1564   17236945.7364
  19574671.554   -17323251.87749 -13479939.66349  19574675.6144   19574682.2694
 96  2 11 20 28 59.9850000  0  8 19 29 27  2 18 28 31 16
  16035863.140   -43556239.72049 -33909610.37249  16035864.6564   16035869.4854
  18784180.704   -11836169.45049  -9201584.47149  18784182.3924   18784188.4124
  17315553.349   -43488681.35349 -33512048.55249  17315554.8114   17315560.3594
  18721181.047   -21259213.66849 -16145678.22249  18721182.8544   18721189.9424
  16387142.635   -32963970.79249 -25387101.04249  16387143.9294   16387148.5704
  19122570.353   -34848403.446 9 -27133939.256 9  19122571.127    19122576.166
  17222090.388   -40030448.13049 -31170084.08249  17222091.8874   17222096.4954
  19556128.044   -17420717.03649 -13555886.53649  19556129.7604   19556136.0884
 96  2 11 20 29 29.9850000  0  8 19 29 27  2 18 28 31 16
  16019949.973   -43639864.73149 -33974772.71849  16019951.5124   16019956.1684
  18789520.760   -11808099.06049  -9179711.51449  18789524.0624   18789530.0904
  17290114.608   -43622361.30449 -33616214.72449  17290116.7384   17290121.4714
  18693324.469   -21405598.03649 -16259743.91049  18693326.6544   18693334.2374
  16385122.346   -32974589.63949 -25395375.49949  16385123.1954   16385128.0364
  19119134.691   -34866451.762 9 -27148002.878 9  19119136.295    19119141.309
  17207358.973   -40107862.29049 -31230406.78649  17207360.2364   17207365.0134
  19537679.507   -17517663.50049 -13631429.25849  19537680.8974   19537688.1804
 96  2 11 20 29 59.9850000  0  8 19 29 27  2 18 28 31 16
  16004083.884   -43723242.02449 -34039742.03649  16004085.1994   16004089.9934
  18794912.547   -11779782.91649  -9157647.05449  18794914.0664   18794918.3404
  17264702.634   -43755905.39149 -33720275.03549  17264704.0454   17264708.8554
  18665519.951   -21551716.60049 -16373602.47449  18665521.1924   18665528.5284
  16383189.161   -32984743.67449 -25403287.76149  16383190.9624   16383195.8744
  19115794.831   -34884005.036 9 -27161680.758 9  19115796.174    19115801.258
  17192744.919   -40184658.70549 -31290248.12849  17192746.3124   17192751.1134
  19519324.924   -17614103.19949 -13706577.08449  19519328.9514   19519334.9434
 96  2 11 20 30 29.9850000  0  8 19 29 27  2 18 28 31 16
  15988262.071   -43806384.62349 -34104528.47749  15988263.6884   15988268.4374
  18800348.064   -11751223.50749  -9135393.04449  18800348.5934   18800352.5174
  17239313.167   -43889325.74949 -33824238.93549  17239315.1434   17239319.9884
  18637761.810   -21697592.26849 -16487271.75849  18637761.7674   18637768.4254
  16381347.476   -32994425.70449 -25410832.22649  16381348.4834   16381353.0984
  19112547.413   -34901070.540 9 -27174978.562 9  19112548.657    19112553.925
  17178248.420   -40260840.91749 -31349610.87149  17178249.6634   17178254.3434
  19501072.770   -17710042.06549 -13781334.66449  19501072.7434   19501079.7844
 96  2 11 20 30 59.9850000  0  8 19 29 27  2 18 28 31 16
  15972483.448   -43889302.19849 -34169139.57849  15972485.1514   15972489.9184
  18805827.743   -11722421.96249  -9112950.34349  18805828.0274   18805833.1334
  17213947.325   -44022627.80249 -33928110.65249  17213948.4754   17213953.3494
  18610049.177   -21843214.63949 -16600743.68149  18610050.6014   18610057.5304
  16379594.945   -33003632.96049 -25418006.74249  16379596.4384   16379601.5734
  19109393.643   -34917646.299 9 -27187894.751 9  19109394.724    19109399.801
  17163868.876   -40336407.63849 -31408494.02449  17163869.3324   17163874.7404
  19482912.901   -17805476.79249 -13855699.39349  19482912.2914   19482917.6444
 96  2 11 20 31 29.9850000  0  8 19 29 27  2 18 28 31 16
  15956740.639   -43972030.92949 -34233603.52349  15956742.1084   15956747.1284
  18811349.847   -11693402.99049  -9090338.23149  18811349.6864   18811355.0014
  17188599.682   -44155825.35149 -34031900.93249  17188601.6224   17188606.8074
  18582385.500   -21988591.31049 -16714024.14149  18582386.4544   18582394.1204
  16377933.224   -33012370.16649 -25424814.98149  16377934.2044   16377938.7344
  19106331.160   -34933739.745 9 -27200435.120 9  19106332.168    19106337.073
  17149605.394   -40411361.81849 -31466899.85649  17149606.4284   17149611.3054
  19464849.056   -17900400.52549 -13929665.95449  19464847.8684   19464855.8874
 96  2 11 20 31 59.9850000  0  8 19 29 27  2 18 28 31 16
  15941035.184   -44054564.70749 -34297915.55749  15941036.5034   15941041.4734
  18816909.750   -11664180.43449  -9067567.48749  18816911.3874   18816916.0034
  17163273.685   -44288916.53049 -34135608.32949  17163275.1454   17163280.3134
  18554765.789   -22133741.12249 -16827127.82949  18554765.2624   18554772.9874
  16376358.500   -33020642.62849 -25431261.08949  16376359.7984   16376364.6904
  19103360.573   -34949347.300 9 -27212596.865 9  19103361.777    19103367.020
  17135458.560   -40485699.93549 -31524825.64449  17135460.4464   17135465.1304
  19446883.842   -17994796.77849 -14003221.48249  19446885.6734   19446891.9664
 96  2 11 20 32 29.9850000  0  8 19 29 27  2 18 28 31 16
  15925368.838   -44136889.85849 -34362065.02849  15925370.4314   15925375.0754
  18822505.135   -11634777.59949  -9044656.25749  18822506.4774   18822512.2984
  17137968.671   -44421898.02449 -34239230.25549  17137969.5154   17137974.6204
  18527184.680   -22278671.43749 -16940060.47349  18527186.0694   18527192.9174
  16374871.321   -33028458.69149 -25437351.55649  16374872.6054   16374877.4744
  19100482.586   -34964474.317 9 -27224384.171 9  19100483.319    19100488.321
  17121431.697   -40559417.12249 -31582267.59449  17121432.5254   17121437.0184
  19429024.083   -18088645.78449 -14076350.58949  19429026.8064   19429033.1914
 96  2 11 20 32 59.9850000  0  8 19 29 27  2 18 28 31 16
  15909743.337   -44219002.92449 -34426049.23649  15909744.7684   15909749.8714
  18828134.699   -11605195.82049  -9021605.60549  18828135.1074   18828141.4904
  17112685.953   -44554754.52749 -34342754.78549  17112687.9494   17112692.9544
  18499648.245   -22423380.51649 -17052820.74049  18499648.8344   18499655.8834
  16373471.048   -33035816.59949 -25443085.02349  16373472.3904   16373477.1544
  19097695.580   -34979125.875 9 -27235801.003 9  19097695.715    19097700.174
  17107520.633   -40632515.98749 -31639227.74049  17107521.6494   17107526.8254
  19411270.961   -18181935.34149 -14149043.75949  19411274.0464   19411281.2954
 96  2 11 20 33 29.9850000  0  8 19 29 27  2 18 28 31 16
  15894161.843   -44300883.49449 -34489852.27449  15894163.5744   15894168.7074
  18833798.680   -11575431.10049  -8998412.37549  18833800.0864   18833806.1244
  17087428.448   -44687483.12449 -34446179.64949  17087430.4474   17087435.3674
  18472149.958   -22567889.02149 -17165424.70549  18472149.9214   18472156.8634
  16372157.840   -33042720.21149 -25448464.48949  16372158.2944   16372163.3404
  19094995.811   -34993306.119 9 -27246850.563 9  19094997.188    19095001.723
  17093725.144   -40705015.02749 -31695720.48149  17093725.5584   17093730.8604
  19393630.007   -18274657.63249 -14221294.91149  19393629.5684   19393636.3744
 96  2 11 20 33 59.9840000  0  8 19 29 27  2 18 28 31 16
  15878631.853   -44382496.94449 -34553447.17049  15878633.0634   15878637.9324
  18839500.335   -11545467.81949  -8975064.43149  18839501.8074   18839507.4624
  17062198.396   -44820069.77949 -34549493.90449  17062200.2084   17062204.9264
  18444690.714   -22712183.87449 -17277862.19449  18444691.5824   18444698.7854
  16370929.399   -33049171.55449 -25453491.53649  16370930.9294   16370936.0114
  19092388.621   -35007006.771 9 -27257526.417 9  19092389.683    19092394.379
  17080046.034   -40776899.24949 -31751734.13949  17080046.7734   17080051.9164
  19376092.073   -18366809.85949 -14293101.86049  19376093.2534   19376100.6014
 96  2 11 20 34 29.9840000  0  8 19 29 27  2 18 28 31 16
  15863152.309   -44463840.47949 -34616831.74349  15863153.9814   15863158.8484
  18845248.993   -11515264.99049  -8951529.85449  18845249.4394   18845254.1114
  17036999.294   -44952493.02849 -34652680.83249  17037000.9054   17037005.7924
  18417278.832   -22856233.34649 -17390108.48449  18417280.2934   18417286.4364
  16369793.300   -33055143.19749 -25458144.79549  16369794.7014   16369799.5744
  19089875.615   -35020213.609 9 -27267817.462 9  19089876.806    19089880.655
  17066487.181   -40848152.43549 -31807256.09149  17066487.8744   17066492.5434
  19358665.057   -18458403.20549 -14364473.29549  19358664.1694   19358671.1144
 96  2 11 20 34 59.9840000  0  8 19 29 27  2 18 28 31 16
  15847725.505   -44544909.22249 -34680002.19749  15847727.1934   15847732.1104
  18851043.682   -11484799.06749  -8927790.26049  18851045.9674   18851052.5104
  17011832.422   -45084749.38149 -34755737.71649  17011833.3454   17011838.2104
  18389916.355   -23000024.24549 -17502153.29349  18389916.8464   18389923.6554
  16368746.569   -33060642.15849 -25462429.72249  16368748.3274   16368753.2124
  19087457.183   -35032921.168 9 -27277719.466 9  19087458.275    19087462.520
  17053046.824   -40918776.10949 -31862287.52149  17053048.2514   17053053.6264
  19341336.474   -18549459.14649 -14435425.98749  19341336.0764   19341344.1164
 96  2 11 20 35 29.9840000  0  8 19 29 27  2 18 28 31 16
  15832352.282   -44625695.08949 -34742952.22549  15832354.0654   15832358.8074
  18856892.110   -11454063.98949  -8903840.92349  18856895.9504   18856901.7154
  16986695.687   -45216842.24849 -34858667.20749  16986696.8284   16986701.6954
  18362605.005   -23143545.46849 -17613987.96249  18362606.3994   18362612.1094
  16367789.172   -33065675.97149 -25466352.20349  16367790.4784   16367795.6174
  19085135.920   -35045118.767 9 -27287224.097 9  19085137.300    19085142.131
  17039729.786   -40988758.36649 -31916819.14149  17039731.4114   17039736.6534
  19324110.412   -18639981.87249 -14505963.19249  19324110.9284   19324118.3504
 96  2 11 20 35 59.9840000  0  8 19 29 27  2 18 28 31 16
  15817034.060   -44706195.62649 -34805679.91649  15817035.4394   15817040.1194
  18862798.454   -11423042.22749  -8879668.20549  18862799.0994   18862805.1614
  16961594.711   -45348747.81249 -34961450.74849  16961596.2204   16961600.7794
  18335350.132   -23286765.42449 -17725587.88549  18335351.7634   18335358.4344
  16366923.872   -33070222.00449 -25469894.59549  16366925.5654   16366930.2824
  19082915.482   -35056788.082 9 -27296317.084 9  19082916.668    19082921.420
  17026543.016   -41058059.53649 -31970820.04749  17026543.5284   17026548.4064
  19306990.634   -18729955.89349 -14576072.83049  19306989.1094   19306995.9514
 96  2 11 20 36 29.9840000  0  9 19 29 27  2 18 28 31 12 16
  15801764.733   -44786436.07249 -34868204.94349  15801765.9284   15801770.8834
  18868750.293   -11391765.24549  -8855296.60749  18868750.7984   18868756.9074
  16936526.248   -45480484.31549 -35064102.55349  16936527.2294   16936532.2994
  18308149.802   -23429709.67949 -17836972.96649  18308150.3504   18308157.3554
  16366150.469   -33074291.78149 -25473065.87949  16366151.0024   16366155.7934
  19080791.327   -35067951.206 9 -27305015.628 9  19080792.718    19080797.193
  17013479.448   -41126704.31849 -32024309.47549  17013481.3574   17013485.6164
  19646801.545    -6048305.07819  -4664369.99919  19646802.393    19646811.178
  19289968.025   -18819392.03449 -14645763.35249  19289969.5314   19289976.8274
 96  2 11 20 36 59.9840000  0  9 19 29 27  2 18 28 31 12 16
  15786545.031   -44866415.22149 -34930526.36249  15786546.4464   15786551.4144
  18874739.722   -11360270.80649  -8830755.57749  18874743.7474   18874750.8874
  16911486.471   -45612067.90449 -35166635.20749  16911487.9194   16911492.5484
  18280994.072   -23572405.67749 -17948164.60249  18280996.1344   18281002.6834
  16365461.554   -33077906.39349 -25475882.48849  16365463.0364   16365468.1814
  19078762.026   -35078620.155 9 -27313329.095 9  19078762.450    19078767.245
  17000540.272   -41194703.99549 -32077296.23449  17000541.0854   17000545.8994
  19619413.236    -6192218.797 9  -4776510.491 9  19619415.370    19619424.624
  19273054.343   -18908281.53849 -14715027.90149  19273056.2254   19273061.7224
 96  2 11 20 37 29.9840000  0  9 19 29 27  2 18 28 31 12 16
  15771373.961   -44946141.46149 -34992650.70849  15771375.4264   15771380.1604
  18880770.336   -11328588.16549  -8806067.88549  18880772.7714   18880778.2414
  16886476.754   -45743492.71949 -35269044.14849  16886478.7244   16886483.2054
  18253887.344   -23714860.61649 -18059168.41149  18253887.7404   18253894.2654
  16364863.332   -33081049.52849 -25478331.71249  16364865.0914   16364870.2034
  19076822.975   -35088801.119 9 -27321262.328 9  19076824.391    19076830.149
  16987721.899   -41262059.26149 -32129780.85649  16987723.8074   16987728.2474
  19592060.111    -6335963.010 9  -4888518.913 9  19592061.187    19592071.092
  19256247.150   -18996606.69649 -14783852.71949  19256247.0904   19256253.6034
 96  2 11 20 37 59.9840000  0  9 19 29 27  2 18 28 31 12 16
  15756251.824   -45025607.62049 -35054572.39349  15756253.4214   15756258.3104
  18886838.308   -11296709.47849  -8781227.41749  18886839.3644   18886846.6674
  16861500.057   -45874746.36749 -35371319.70349  16861501.6884   16861506.6304
  18226827.095   -23857061.54449 -18169974.26949  18226828.0914   18226834.6924
  16364357.060   -33083714.21749 -25480408.12649  16364357.9594   16364363.1054
  19074980.337   -35098494.681 9 -27328815.780 9  19074980.204    19074985.556
  16975027.735   -41328771.01949 -32181764.04049  16975028.8234   16975033.8884
  19564740.783    -6479536.612 9  -5000394.372 9  19564740.543    19564749.869
  19239549.348   -19084357.89449 -14852230.26649  19239548.7994   19239555.3724
 96  2 11 20 38 29.9840000  0  9 19 29 27  2 18 28 31 12 16
  15741178.952   -45104816.27149 -35116293.42149  15741180.6004   15741185.2744
  18892939.585   -11264648.87149  -8756245.21649  18892940.1314   18892947.1724
  16836553.843   -46005841.22649 -35473471.52249  16836555.2354   16836560.5684
  18199816.352   -23999012.63449 -18280585.45549  18199815.6974   18199822.0254
  16363936.652   -33085920.55949 -25482127.37649  16363938.5724   16363943.2654
  19073224.488   -35107713.707 9 -27335999.475 9  19073225.789    19073231.456
  16962452.643   -41394853.15649 -32233256.61149  16962453.7424   16962458.8004
  19537445.464    -6622950.468 9  -5112145.347 9  19537449.875    19537459.153
  19222958.637   -19171544.81249 -14920168.13649  19222958.7084   19222965.4474
 96  2 11 20 38 59.9840000  0  9 19 29 27  2 18 28 31 12 16
  15726153.870   -45183771.28049 -35177816.80349  15726155.5474   15726160.6344
  18899076.297   -11232400.54449  -8731116.72649  18899077.1254   18899082.8044
  16811634.944   -46136788.37649 -35575508.24649  16811636.8774   16811641.7954
  18172851.222   -24140701.49749 -18390992.30549  18172852.2884   18172859.7364
  16363601.124   -33087682.10849 -25483500.04049  16363603.0904   16363607.9594
  19071559.005   -35116465.953 9 -27342819.442 9  19071560.348    19071565.384
  16949997.560   -41460304.62449 -32284257.75149  16949999.2294   16950003.9354
  19510184.847    -6766210.722 9  -5223776.662 9  19510187.818    19510197.488
  19206468.752   -19258177.17449 -14987673.88949  19206472.3864   19206478.5704
 96  2 11 20 39 29.9840000  0  9 19 29 27  2 18 28 31 12 16
  15711177.773   -45262472.90449 -35239142.75249  15711179.3134   15711184.1284
  18905250.292   -11199946.44649  -8705827.91249  18905253.2404   18905260.3284
  16786743.822   -46267596.24549 -35677436.43949  16786744.9794   16786749.9124
  18145939.728   -24282118.97849 -18501187.69649  18145942.0044   18145948.7424
  16363351.156   -33088998.72349 -25484526.01049  16363352.4604   16363357.2514
  19069981.765   -35124758.663 9 -27349281.343 9  19069982.271    19069987.699
  16937663.359   -41525123.91849 -32334766.29549  16937664.2354   16937669.3114
  19482949.429    -6909322.851 9  -5335292.550 9  19482954.319    19482964.461
  19190086.448   -19344265.96149 -15054756.06649  19190090.8394   19190098.1224
 96  2 11 20 39 59.9840000  0  9 19 29 27  2 18 28 31 12 16
  15696249.545   -45340920.12249 -35300270.44849  15696251.2494   15696256.1154
  18911468.043   -11167278.00449  -8680372.06749  18911468.8194   18911477.1364
  16761876.434   -46398274.71849 -35779263.79949  16761877.5174   16761882.8084
  18119081.614   -24423271.00249 -18611176.22049  18119081.2954   18119088.6834
  16363180.501   -33089894.67549 -25485224.18149  16363182.0034   16363187.0034
  19068488.529   -35132602.122 9 -27355393.165 9  19068489.885    19068495.087
  16925449.376   -41589308.30849 -32384780.10049  16925450.3414   16925455.0684
  19455746.933    -7052295.611 9  -5446699.810 9  19455747.265    19455757.471
  19173806.150   -19429834.32249 -15121432.72149  19173807.4564   19173813.7944
 96  2 11 20 40 29.9840000  0  9 19 29 27  2 18 28 31 12 16
  15681373.303   -45419096.22249 -35361186.88949  15681374.6794   15681379.7064
  18917722.183   -11134398.14449  -8654751.48649  18917726.8574   18917732.8874
  16737037.765   -46528800.96749 -35880972.54349  16737039.3074   16737044.3214
  18092270.320   -24564159.05549 -18720959.07149  18092271.6574   18092277.7444
  16363095.373   -33090344.28849 -25485574.56149  16363096.6724   16363101.5234
  19067084.985   -35139983.609 9 -27361145.017 9  19067085.205    19067090.848
  16913359.376   -41652842.22449 -32434287.05449  16913360.1494   16913365.3854
  19428566.734    -7195114.220 9  -5557986.934 9  19428570.054    19428580.520
  19157628.335   -19514866.11249 -15187691.27749  19157625.9774   19157632.7664
 96  2 11 20 40 59.9840000  0  9 19 29 27  2 18 28 31 12 16
  15666550.536   -45496991.61149 -35421884.60049  15666551.9144   15666556.9464
  18924026.165   -11101298.64549  -8628959.75949  18924024.2304   18924031.3894
  16712230.014   -46659164.55249 -35982554.54249  16712231.9994   16712237.0584
  18065508.631   -24704788.10449 -18830540.08749  18065510.4474   18065516.8124
  16363098.252   -33090329.67749 -25485563.20349  16363099.3194   16363104.2824
  19065767.316   -35146896.899 9 -27366532.047 9  19065769.302    19065775.485
  16901393.061   -41715725.05549 -32483286.66349  16901393.8644   16901399.4534
  19401425.018    -7337770.661 9  -5669147.719 9  19401424.323    19401433.172
  19141549.081   -19599354.30649 -15253526.23049  19141548.4704   19141556.3474
 96  2 11 20 41 29.9840000  0  9 19 29 27  2 18 28 31 12 16
  15651777.468   -45574624.86149 -35482378.03949  15651778.8974   15651783.9404
  18930359.413   -11067998.57749  -8603011.73949  18930362.2314   18930368.5644
  16687455.478   -46789357.99749 -36084003.95549  16687456.9554   16687461.7574
  18038793.241   -24845179.42749 -18939935.87449  18038795.7154   18038801.6884
  16363188.876   -33089854.77849 -25485193.18149  16363189.5764   16363194.6364
  19064540.744   -35153349.909 9 -27371560.420 9  19064541.949    19064547.686
  16889548.910   -41777967.69649 -32531787.42649  16889549.7404   16889554.6714
  19374303.074    -7480270.800 9  -5780186.674 9  19374306.877    19374317.356
  19125573.099   -19683306.35649 -15318943.42249  19125572.4784   19125580.4614
 96  2 11 20 41 59.9840000  0  9 19 29 27  2 18 28 31 12 16
  15637053.377   -45651998.07249 -35542668.85049  15637055.0804   15637060.0914
  18936734.355   -11034508.88849  -8576915.97649  18936734.0294   18936741.1034
  16662715.369   -46919367.03049 -36185309.68149  16662716.8794   16662721.7784
  18012126.145   -24985324.24349 -19049139.56649  18012127.0414   18012132.7454
  16363368.338   -33088905.99149 -25484453.89149  16363370.2544   16363375.2784
  19063400.776   -35159334.999 9 -27376224.183 9  19063403.038    19063408.235
  16877826.233   -41839571.40349 -32579790.31849  16877827.2144   16877831.8994
  19347213.551    -7622605.380 9  -5891096.630 9  19347221.112    19347230.777
  19109704.637   -19766710.42849 -15383933.62049  19109701.7064   19109708.5544
 96  2 11 20 42 29.9840000  0  9 19 29 27  2 18 28 31 12 16
  15622375.143   -45729133.62749 -35602774.47449  15622376.5914   15622381.5184
  18943137.587   -11000855.09349  -8550692.33049  18943139.3324   18943144.5434
  16638007.404   -47049208.39249 -36286484.74649  16638009.1834   16638013.7914
  17985503.393   -25125222.48749 -19158151.12949  17985504.6624   17985511.7804
  16363636.293   -33087498.34949 -25483357.05349  16363637.9424   16363643.3244
  19062349.287   -35164866.278 9 -27380534.312 9  19062350.408    19062356.060
  16866219.919   -41900558.57949 -32627312.80049  16866221.3724   16866226.7624
  19320163.495    -7764786.523 9  -6001887.024 9  19320164.342    19320174.603
  19093935.570   -19849560.64849 -15448492.23949  19093935.9634   19093942.3804
 96  2 11 20 42 59.9840000  0  9 19 29 27  2 18 28 31 12 16
  15607738.207   -45806051.62049 -35662710.56849  15607739.8054   15607744.4924
  18949573.314   -10967040.53249  -8524343.39749  18949572.8644   18949580.7334
  16613324.920   -47178915.07949 -36387554.86949  16613326.6464   16613331.8654
  17958930.618   -25264867.19649 -19266965.13749  17958931.3894   17958938.1864
  16363986.285   -33085662.71749 -25481926.71249  16363987.4224   16363992.4434
  19061381.784   -35169959.157 9 -27384502.843 9  19061381.855    19061386.989
  16854729.368   -41960943.37849 -32674365.89549  16854730.5424   16854735.8664
  19293132.179    -7906828.001 9  -6112568.572 9  19293134.875    19293145.455
  19078270.261   -19931876.35249 -15512634.37549  19078270.6574   19078278.4084
 96  2 11 20 43 29.9840000  0  9 19 29 27  2 18 28 31 12 16
  15593146.274   -45882734.26349 -35722463.27349  15593147.4374   15593152.5074
  18956036.781   -10933065.05649  -8497869.09549  18956038.5364   18956046.7424
  16588671.760   -47308472.23449 -36488508.47649  16588672.7974   16588677.5504
  17932409.695   -25404235.49849 -19375563.75749  17932410.5764   17932417.0334
  16364417.995   -33083392.50449 -25480157.74049  16364419.4184   16364424.6854
  19060496.763   -35174605.806 9 -27388123.648 9  19060497.687    19060502.712
  16843354.440   -42020718.61249 -32720944.00249  16843355.9954   16843360.7274
  19266131.890    -8048720.035 9  -6223133.680 9  19266133.941    19266143.993
  19062708.732   -20013659.72549 -15576361.69149  19062709.3154   19062715.6574
 96  2 11 20 43 59.9840000  0  9 19 29 27  2 18 28 31 12 16
  15578600.811   -45959170.30749 -35782023.82149  15578602.3104   15578607.0544
  18962531.595   -10898928.50649  -8471269.27349  18962534.8134   18962541.5924
  16564044.441   -47437884.11849 -36589348.89049  16564046.4554   16564051.5544
  17905938.624   -25543334.92549 -19483952.87249  17905940.5184   17905947.1194
  16364928.789   -33080708.69249 -25478066.48349  16364930.2084   16364935.3124
  19059695.959   -35178814.674 9 -27391403.310 9  19059696.578    19059701.747
  16832094.045   -42079894.34549 -32767054.95849  16832095.1414   16832099.9744
  19239160.373    -8190469.240 9  -6333587.480 9  19239159.854    19239170.141
  19047244.130   -20094923.94749 -15639684.45549  19047244.6334   19047250.9254
 96  2 11 20 44 29.9840000  0  9 19 29 27  2 18 28 31 12 16
  15564102.259   -46035359.32249 -35841391.88049  15564103.8894   15564108.7744
  18969059.878   -10864620.45449  -8444535.79949  18969062.9404   18969071.4524
  16539448.265   -47567141.94949 -36690069.25549  16539449.5304   16539454.6194
  17879517.373   -25682182.29549 -19592145.57649  17879518.5064   17879525.2134
  16365515.611   -33077625.47149 -25475663.99749  16365517.0374   16365522.2364
  19058977.276   -35182588.191 9 -27394343.734 9  19058978.561    19058983.854
  16820949.088   -42138462.91149 -32812692.80049  16820949.9474   16820954.8534
  19212209.689    -8332076.134 9  -6443930.395 9  19212212.761    19212222.893
  19031876.738   -20175677.39649 -15702609.22449  19031878.5164   19031884.9964
 96  2 11 20 44 59.9830000  0  9 19 29 27  2 18 28 31 12 16
  15549655.393   -46111276.86649 -35900548.40349  15549657.3574   15549662.2404
  18975624.009   -10830137.01059  -8417665.66349  18975627.2864   18975631.6084
  16514883.956   -47696225.09449 -36790653.51149  16514885.5154   16514890.6554
  17853141.322   -25820789.21449 -19700150.92049  17853143.1674   17853149.3234
  16366180.399   -33074128.84349 -25472939.37949  16366182.3304   16366187.4124
  19058343.882   -35185920.308 9 -27396940.204 9  19058344.117    19058349.589
  16809921.962   -42196405.41749 -32857842.80449  16809923.7574   16809928.4664
  19185292.356    -8473528.148 9  -6554152.611 9  19185294.449    19185305.762
  19016605.280   -20255933.78349 -15765146.68549  19016605.6994   19016611.7934
 96  2 11 20 45 29.9830000  0  9 19 29 27  2 18 28 31 12 16
  15535258.802   -46186935.11249 -35959502.87349  15535260.2124   15535265.0294
  18982215.920   -10795484.01959  -8390663.40849  18982219.0864   18982226.1664
  16490353.185   -47825138.85949 -36891105.77649  16490354.1354   16490359.0734
  17826802.960   -25959200.86249 -19808004.10249  17826803.4734   17826810.0264
  16366923.543   -33070226.13049 -25469898.33849  16366925.1824   16366930.3974
  19057791.110   -35188822.727 9 -27399201.851 9  19057792.172    19057797.406
  16799013.866   -42253728.31249 -32902510.00049  16799015.0784   16799020.4474
  19158400.438    -8614844.331 9  -6664269.013 9  19158403.301    19158413.840
  19001424.185   -20335697.17049 -15827299.97749  19001427.0434   19001434.4164
 96  2 11 20 45 59.9830000  0  9 19 29 27  2 18 28 31 12 16
  15520909.502   -46262339.51449 -36018259.54949  15520911.0934   15520915.9634
  18988844.882   -10760661.25649  -8363528.86449  18988846.8924   18988853.6634
  16465851.505   -47953890.44949 -36991431.67049  16465853.6144   16465858.4134
  17800499.325   -26097420.56449 -19915707.72549  17800500.7084   17800507.5824
  16367741.348   -33065931.31849 -25466551.76649  16367742.3084   16367747.6454
  19057320.806   -35191295.694 9 -27401128.872 9  19057321.232    19057326.828
  16788227.268   -42310417.21649 -32946683.16849  16788227.9834   16788232.6184
  19131538.815    -8756018.371 9  -6774274.618 9  19131539.279    19131549.016
  18986347.677   -20414928.71449 -15889038.84549  18986349.9914   18986356.6704
 96  2 11 20 46 29.9830000  0  9 19 29 27  2 18 28 31 12 16
  15506608.079   -46337493.69349 -36076821.23749  15506609.6154   15506614.4444
  18995500.308   -10725694.76449  -8336282.33349  18995501.4754   18995507.7534
  16441376.986   -48082509.52449 -37091654.30849  16441378.1254   16441383.0844
  17774236.499   -26235435.90649 -20023252.09649  17774237.4414   17774244.1694
  16368633.616   -33061237.57549 -25462894.33249  16368635.8174   16368640.7804
  19056930.111   -35193348.252 9 -27402728.296 9  19056930.905    19056936.389
  16777558.941   -42366472.94349 -32990362.96849  16777560.6794   16777565.5554
  19104698.384    -8897057.481 9  -6884175.120 9  19104700.229    19104709.864
  18971379.400   -20493610.62649 -15950349.43449  18971377.0804   18971384.1964
 96  2 11 20 46 59.9830000  0  9 19 29 27  2 18 28 31 12 16
  15492361.600   -46412360.83449 -36135159.26349  15492362.9324   15492368.0934
  19002185.373   -10690560.54249  -8308905.10849  19002186.2634   19002192.5074
  16416930.522   -48210974.53549 -37191756.89849  16416932.1644   16416937.1044
  17748021.652   -26373197.00449 -20130598.36349  17748022.6094   17748029.3854
  16369610.821   -33056104.27349 -25458894.39449  16369612.4224   16369617.1894
  19056625.913   -35194947.273 9 -27403974.308 9  19056626.769    19056632.241
  16767017.558   -42421871.69749 -33033530.83249  16767018.7154   16767023.3034
  19077892.940    -9037926.613 9  -6993943.163 9  19077893.671    19077903.054
  18956518.454   -20571689.81649 -16011190.37649  18956518.7234   18956525.8774
 96  2 11 20 47 29.9830000  0  9 19 29 27  2 18 28 31 12 16
  15478166.909   -46486954.80449 -36193284.42549  15478168.3404   15478173.4714
  19008902.576   -10655257.23749  -8281396.13449  19008903.7824   19008911.8094
  16392512.201   -48339293.02649 -37291745.30649  16392513.7744   16392518.8434
  17721857.990   -26510687.53949 -20237733.80449  17721859.7064   17721866.0314
  16370667.990   -33050549.76349 -25454566.23149  16370669.3224   16370674.5894
  19056407.818   -35196098.571 9 -27404871.442 9  19056407.233    19056412.975
  16756598.738   -42476626.66449 -33076197.04749  16756599.2684   16756604.2604
  19051118.104    -9178629.671 9  -7103581.786 9  19051118.329    19051127.753
  18941776.895   -20649157.98249 -16071555.19349  18941778.1924   18941784.2764
 96  2 11 20 47 59.9830000  0  9 19 29 27  2 18 28 31 12 16
  15464021.852   -46561285.39249 -36251204.36049  15464023.5674   15464028.4774
  19015649.256   -10619807.77749  -8253773.28249  19015650.3414   19015656.5034
  16368120.408   -48467474.79649 -37391627.18649  16368121.4194   16368126.5524
  17695749.858   -26647885.03749 -20344640.89949  17695751.6284   17695757.6984
  16371803.097   -33044582.76449 -25449916.64349  16371805.0374   16371810.4104
  19056270.139   -35196814.352 9 -27405429.225 9  19056270.784    19056276.591
  16746298.966   -42530746.49549 -33118368.35249  16746300.8764   16746305.3714
  19024370.573    -9319176.875 9  -7213098.964 9  19024373.148    19024382.789
  18927140.662   -20726044.22549 -16131466.55649  18927147.5914   18927154.3064
 96  2 11 20 48 29.9830000  0  9 19 29 27  2 18 28 31 12 16
  15449923.154   -46635376.10749 -36308937.37849  15449924.4784   15449929.4544
  19022420.609   -10584219.20449  -8226042.00249  19022422.6924   19022429.3344
  16343752.803   -48595524.45549 -37491406.12549  16343754.6594   16343759.4874
  17669696.565   -26784795.59449 -20451324.40749  17669697.4614   17669704.2404
  16373017.127   -33038205.58949 -25444947.43649  16373018.5084   16373023.6774
  19056213.583   -35197115.285 9 -27405663.734 9  19056214.199    19056219.496
  16736116.099   -42584260.08849 -33160067.26249  16736117.3834   16736122.6414
  18997652.680    -9459586.771 9  -7322509.185 9  18997653.795    18997663.621
  18912619.810   -20802395.24849 -16190960.85849  18912616.3474   18912624.7444
 96  2 11 20 48 59.9830000  0  9 19 29 27  2 18 28 31 12 16
  15435863.281   -46709259.22049 -36366508.63249  15435865.1264   15435869.9824
  19029222.745   -10548477.35349  -8198191.31049  19029224.8034   19029231.5474
  16319415.453   -48723420.43149 -37591065.30649  16319416.9064   16319421.8334
  17643692.595   -26921443.91249 -20557803.57649  17643694.2564   17643701.5884
  16374304.573   -33031437.75249 -25439673.82349  16374306.4714   16374311.7414
  19056232.587   -35197015.608 9 -27405586.076 9  19056233.516    19056238.140
  16726045.335   -42637184.10849 -33201306.77149  16726046.2684   16726050.8404
  18970957.264    -9599871.707 9  -7431821.997 9  18970959.012    18970968.225
  18898181.207   -20878254.67549 -16250072.11449  18898182.3524   18898188.5714
 96  2 11 20 49 29.9830000  0  9 19 29 27  2 18 28 31 12 16
  15421848.127   -46782912.59749 -36423900.87049  15421849.4144   15421854.1624
  19036055.574   -10512566.10449  -8170208.62949  19036057.9824   19036065.3644
  16295111.125   -48851140.76449 -37690587.62849  16295112.3944   16295117.3564
  17617741.958   -27057822.12849 -20664072.27449  17617743.0394   17617749.4534
  16375668.723   -33024269.94549 -25434088.54749  16375670.2044   16375675.4404
  19056328.757   -35196506.695 9 -27405189.526 9  19056330.163    19056335.158
  16716089.176   -42689504.73549 -33242076.09749  16716090.0614   16716095.2324
  18944285.063    -9740021.092 9  -7541029.190 9  18944288.218    18944298.489
  18883836.828   -20953622.91849 -16308800.62349  18883839.9964   18883847.5224
 96  2 11 20 49 59.9830000  0  9 19 29 27  2 18 28 31 12 16
  15407874.945   -46856341.29549 -36481118.03849  15407876.4424   15407881.4344
  19042920.133   -10476499.38849  -8142104.81049  19042921.4984   19042928.3354
  16270840.424   -48978684.08449 -37789972.01649  16270841.8874   16270846.5344
  17591837.010   -27193948.39249 -20770144.64649  17591839.0974   17591845.3934
  16377110.952   -33016691.58449 -25428183.36849  16377112.4184   16377117.5384
  19056502.087   -35195598.259 9 -27404481.664 9  19056502.706    19056508.039
  16706244.310   -42741244.05249 -33282392.45349  16706244.6804   16706249.1604
  18917639.460    -9880042.651 9  -7650136.769 9  18917643.895    18917653.250
  18869591.324   -21028503.80749 -16367149.35649  18869590.0834   18869597.9344
 96  2 11 20 50 29.9830000  0  9 19 29 27  2 18 28 31 12 16
  15393951.055   -46929512.09949 -36538134.24549  15393952.2364   15393957.2234
  19049818.301   -10440248.34349  -8113857.35649  19049818.6424   19049826.3344
  16246608.672   -49106021.34949 -37889195.83449  16246610.2694   16246615.2544
  17565981.239   -27329825.47249 -20876022.84549  17565981.6474   17565988.5124
  16378636.001   -33008680.68449 -25421941.13849  16378636.8234   16378641.9894
  19056753.630   -35194268.780 9 -27403445.709 9  19056755.410    19056760.814
  16696510.007   -42792395.88149 -33322251.03049  16696510.3414   16696515.4954
  18891025.264   -10019913.047 9  -7759126.539 9  18891027.096    18891037.062
  18855437.629   -21102864.68949 -16425092.91049  18855439.6254   18855446.6304
 96  2 11 20 50 59.9830000  0  9 19 29 27  2 18 28 31 12 16
  15380077.856   -47002413.78949 -36594940.75649  15380079.5764   15380084.4044
  19056743.115   -10403844.52749  -8085490.85449  19056746.9274   19056754.7364
  16222412.072   -49233173.00249 -37988275.02449  16222414.0974   16222418.7394
  17540167.250   -27465480.84649 -20981728.28249  17540167.4104   17540174.5154
  16380238.273   -33000256.67449 -25415377.00649  16380240.1174   16380245.0834
  19057085.087   -35192532.278 9 -27402092.586 9  19057086.280    19057091.271
  16686887.364   -42842960.77849 -33361652.26249  16686888.3314   16686893.0334
  18864434.907   -10159644.241 9  -7868007.865 9  18864437.052    18864445.654
  18841385.111   -21176717.42449 -16482640.50849  18841385.4784   18841392.6774
 96  2 11 20 51 29.9830000  0  9 19 29 27  2 18 28 31 12 16
  15366260.483   -47075025.66849 -36651521.44349  15366262.0984   15366266.9434
  19063696.097   -10367316.56549  -8057027.63649  19063698.3304   19063706.2744
  16198248.061   -49360164.98449 -38087229.79649  16198248.5324   16198252.9794
  17514393.085   -27600916.88049 -21087262.81349  17514394.9894   17514401.1524
  16381919.816   -32991424.21649 -25408494.60149  16381920.6444   16381925.8244
  19057492.336   -35190393.239 9 -27400425.799 9  19057492.802    19057498.349
  16677376.611   -42892942.70749 -33400599.22949  16677377.5614   16677381.9644
  18837870.160   -10299238.464 9  -7976782.423 9  18837873.095    18837882.412
  18827427.455   -21250058.19649 -16539789.17749  18827430.7064   18827437.2504
 96  2 11 20 51 59.9830000  0  9 19 29 27  2 18 28 31 12 16
  15352494.146   -47147368.08049 -36707892.14949  15352495.7084   15352500.3344
  19070667.896   -10330679.46949  -8028479.38849  19070670.0044   19070677.8004
  16174108.023   -49487015.01349 -38186073.94949  16174109.7774   16174114.3184
  17488664.358   -27736131.11049 -21192624.50649  17488664.2274   17488670.8414
  16383675.263   -32982197.45249 -25401304.94849  16383676.4494   16383681.4134
  19057974.195   -35187862.777 9 -27398454.016 9  19057974.644    19057979.855
  16667976.198   -42942334.43449 -33439086.29849  16667978.1314   16667983.3434
  18811332.932   -10438705.078 9  -8085457.559 9  18811333.164    18811342.565
  18813568.899   -21322894.24349 -16596544.53449  18813569.0164   18813576.5364
 96  2 11 20 52 29.9830000  0  9 19 29 27  2 18 28 31 12 16
  15338780.679   -47219431.97049 -36764045.82849  15338782.2444   15338787.2504
  19077661.315   -10293929.74049  -7999843.35549  19077664.1084   19077670.7904
  16149994.631   -49613731.99149 -38284814.42949  16149996.2454   16150000.9704
  17462977.356   -27871108.54349 -21297801.67749  17462978.9304   17462985.6154
  16385503.182   -32972592.48149 -25393820.58449  16385504.4124   16385509.3294
  19058530.000   -35184939.004 9 -27396175.755 9  19058531.182    19058536.272
  16658697.439   -42991097.79249 -33477083.73849  16658698.9984   16658703.8444
  18784817.663   -10578040.080 9  -8194030.151 9  18784818.870    18784827.518
  18799807.965   -21395226.06549 -16652906.97849  18799805.4614   18799812.2274
 96  2 11 20 52 59.9830000  0  9 19 29 27  2 18 28 31 12 16
  15325118.752   -47291227.23949 -36819990.19449  15325120.0154   15325125.0234
  19084679.352   -10257064.08749  -7971117.01449  19084678.6654   19084686.9044
  16125907.295   -49740309.15649 -38383445.96549  16125909.4264   16125913.9494
  17437340.651   -28005832.39649 -21402781.26649  17437341.7864   17437348.5614
  16387401.308   -32962613.96849 -25386045.14849  16387403.1974   16387408.4004
  19059162.612   -35181618.085 9 -27393588.037 9  19059162.740    19059167.535
  16649542.524   -43039210.99049 -33514574.55649  16649543.2974   16649547.6764
  18758329.672   -10717237.488 9  -8302495.534 9  18758330.312    18758338.681
  18786136.418   -21467041.31249 -16708866.91149  18786139.3504   18786146.1584
 96  2 11 20 53 29.9830000  0  9 19 29 27  2 18 28 31 12 16
  15311499.752   -47362794.93049 -36875757.21649  15311501.3904   15311506.1584
  19091709.919   -10220085.99849  -7942303.08249  19091714.2704   19091722.8074
  16101849.096   -49866739.28949 -38481962.93249  16101850.4764   16101855.2274
  17411751.533   -28140305.27149 -21507565.27849  17411752.3064   17411759.0324
  16389368.345   -32952280.15349 -25377992.85149  16389369.6824   16389374.8074
  19059867.465   -35177915.696 9 -27390703.047 9  19059867.528    19059872.290
  16640504.825   -43086700.28549 -33551579.21549  16640506.1904   16640511.1004
  18731862.889   -10856311.468 9  -8410864.727 9  18731864.914    18731873.512
  18772570.318   -21538339.88549 -16764424.25149  18772571.5584   18772578.6474
 96  2 11 20 53 59.9830000  0  9 19 29 27  2 18 28 31 12 16
  15297923.134   -47434141.74249 -36931352.13149  15297924.4394   15297929.3824
  19098777.080   -10182977.15149  -7913387.25949  19098777.6204   19098784.2194
  16077822.246   -49992996.19749 -38580344.92549  16077824.5064   16077829.2684
  17386211.734   -28274517.35949 -21612146.08349  17386213.2824   17386219.7384
  16391402.533   -32941588.70349 -25369661.87649  16391404.0514   16391409.0274
  19060646.112   -35173825.727 9 -27387516.077 9  19060645.524    19060651.131
  16631590.936   -43133544.27849 -33588081.03849  16631592.4834   16631596.8064
  18705420.629   -10995253.583 9  -8519131.179 9  18705424.762    18705433.793
  18759107.698   -21609098.34849 -16819560.71849  18759107.3784   18759113.0734
 96  2 11 20 54 29.9830000  0  9 19 29 27  2 18 28 31 12 16
  15284390.804   -47505253.16649 -36986763.62249  15284392.3534   15284397.2414
  19105863.954   -10145724.03349  -7884359.00849  19105866.6484   19105874.4064
  16053834.927   -50119055.61649 -38678573.02149  16053836.1314   16053840.8834
  17360719.730   -28408480.83249 -21716533.16549  17360720.6634   17360727.0904
  16393507.379   -32930530.23449 -25361044.91949  16393508.7294   16393513.4164
  19061498.612   -35169340.132 9 -27384020.827 9  19061499.431    19061504.624
  16622798.485   -43179750.98749 -33624086.27449  16622799.3634   16622804.0324
  18679010.358   -11134053.439 9  -8627286.771 9  18679012.730    18679020.941
  18745744.464   -21679313.18849 -16874273.58249  18745746.1824   18745752.0964
 96  2 11 20 54 59.9830000  0  9 19 29 27  2 18 28 31 12 16
  15270899.592   -47576151.39249 -37042008.98649  15270901.0684   15270905.8684
  19112974.020   -10108356.48849  -7855241.58449  19112976.8714   19112985.1794
  16029881.776   -50244925.92849 -38776653.76649  16029883.8504   16029888.6184
  17335268.246   -28542222.58749 -21820747.46749  17335270.0524   17335276.8324
  16395679.214   -32919118.23249 -25352152.48649  16395680.2084   16395685.2294
  19062423.410   -35164482.668 9 -27380235.800 9  19062424.095    19062428.605
  16614115.973   -43225374.32249 -33659636.93749  16614117.8884   16614122.2074
  18652622.105   -11272733.039 9  -8735348.686 9  18652622.585    18652631.188
  18732481.526   -21749012.55549 -16928584.78049  18732482.4454   18732489.0714
 96  2 11 20 55 29.9830000  0  9 19 29 27  2 18 28 31 12 16
  15257451.056   -47646825.18549 -37097079.46949  15257452.1344   15257456.9194
  19120105.200   -10070879.32749  -7826038.76349  19120109.1004   19120117.3394
  16005964.365   -50370615.36949 -38874593.57249  16005965.9704   16005970.5804
  17309860.383   -28675743.97449 -21924790.07149  17309861.3834   17309868.0154
  16397918.531   -32907349.41049 -25342982.01449  16397919.7044   16397924.5874
  19063416.562   -35159258.227 9 -27376164.819 9  19063418.423    19063423.465
  16605544.891   -43270417.62249 -33694735.61249  16605546.2784   16605550.8904
  18626251.894   -11411295.069 9  -8843318.978 9  18626254.835    18626262.890
  18719313.818   -21818212.37049 -16982506.72049  18719313.4234   18719321.9004
 96  2 11 20 55 59.9820000  0  9 19 29 27  2 18 28 31 12 16
  15244050.955   -47717239.34849 -37151947.64449  15244052.7964   15244057.6374
  19127257.202   -10033293.54949  -7796751.31149  19127260.9154   19127269.5364
  15982077.714   -50496139.77549 -38972404.77649  15982079.4264   15982084.3494
  17284497.419   -28809033.34549 -22028651.87949  17284497.8054   17284504.6134
  16400227.743   -32895216.55049 -25333527.87849  16400228.7314   16400233.8004
  19064482.109   -35153658.857 9 -27371801.692 9  19064483.754    19064488.667
  16597087.206   -43314866.54449 -33729371.13849  16597087.6584   16597092.5984
  18599912.223   -11549725.026 9  -8951186.370 9  18599912.723    18599920.047
  18706235.917   -21886907.92249 -17036035.72249  18706240.5894   18706248.6734
 96  2 11 20 56 29.9820000  0  9 19 29 27  2 18 28 31 12 16
  15230698.032   -47787411.89149 -37206627.54249  15230699.3754   15230704.0724
  19134423.771    -9995635.77449  -7767407.75849  19134427.1744   19134435.8314
  15958214.594   -50621542.16949 -39070120.90849  15958216.0344   15958220.7724
  17259170.828   -28942115.09449 -22132351.90549  17259173.2594   17259179.5114
  16402602.560   -32882732.92949 -25323800.42149  16402604.2204   16402609.5264
  19065615.570   -35147711.571 9 -27367167.453 9  19065615.686    19065620.656
  16588731.063   -43358772.56049 -33763583.62049  16588732.6984   16588737.3964
  18573589.562   -11688057.161 9  -9058977.520 9  18573588.989    18573596.102
  18693256.409   -21955140.80749 -17089204.20949  18693255.9994   18693264.0424
 96  2 11 20 56 59.9820000  0  9 19 29 27  2 18 28 31 12 16
  15217394.717   -47857319.60749 -37261101.08549  15217396.5454   15217401.5584
  19141608.518    -9957898.79249  -7738002.44749  19141609.3834   19141617.5804
  15934379.135   -50746797.74149 -39167722.63149  15934380.7674   15934385.5744
  17233894.106   -29074951.95149 -22235861.10449  17233895.1464   17233901.5834
  16405048.165   -32869883.39049 -25313787.82849  16405049.3384   16405054.9924
  19066814.210   -35141401.304 9 -27362250.387 9  19066816.260    19066821.926
  16580486.209   -43402104.95749 -33797349.12349  16580486.9354   16580491.7274
  18547286.444   -11826269.683 9  -9166675.473 9  18547287.849    18547295.783
  18680368.389   -22022882.07049 -17141989.61649  18680366.2254   18680372.7764
 96  2 11 20 57 29.9820000  0  9 19 29 27  2 18 28 31 12 16
  15204143.099   -47926955.25349 -37315362.62649  15204145.1604   15204149.9544
  19148807.374    -9920070.838 9  -7708526.26159                  19148814.7634
  15910572.638   -50871903.34849 -39265207.50249  15910573.9764   15910578.6394
  17208663.099   -29207536.32849 -22339173.56749  17208665.1724   17208671.5554
  16407563.772   -32856660.59949 -25303484.39349  16407565.7654   16407571.1874
  19068087.156   -35134723.005 9 -27357046.563 9  19068087.569    19068092.117
  16572354.776   -43444835.20349 -33830645.41349  16572355.6804   16572360.5274
  18521009.630   -11964355.162 9  -9274274.428 9  18521010.059    18521019.313
  18667571.044   -22090112.25149 -17194376.78049  18667572.9734   18667579.1074
 96  2 11 20 57 59.9820000  0  9 19 29 27  2 18 28 31 12 16
  15190934.757   -47996369.55349 -37369451.69149  15190936.0524   15190940.9244
  19156012.146    -9882207.737 9  -7679022.67859                  19156020.9744
  15886786.206   -50996898.51149 -39362606.31449  15886788.0364   15886792.7244
  17183473.645   -29339917.18549 -22442327.44849  17183473.9694   17183480.4304
  16410141.974   -32843113.07449 -25292927.91449  16410143.7074   16410148.9454
  19069418.107   -35127732.227 9 -27351599.231 9  19069417.950    19069422.765
  16564323.960   -43487033.93249 -33863527.52349  16564325.5304   16564330.4284
  18494746.757   -12102367.230 9  -9381816.181 9  18494747.556    18494756.054
  18654865.462   -22156878.02049 -17246402.06949  18654868.0214   18654874.6064
 96  2 11 20 58 29.9820000  0  9 19 29 27  2 18 28 31 12 16
  15177777.656   -48065510.47749 -37423327.73449  15177778.8964   15177783.7454
  19163233.227    -9844249.02659  -7649444.62159  19163235.8344   19163242.7914
  15863037.052   -51121699.62649 -39459853.91849  15863039.2704   15863043.8534
  17158331.038   -29472033.43249 -22545275.13949  17158332.7074   17158339.0574
  16412792.835   -32829186.15349 -25282075.80549  16412793.8884   16412799.2664
  19070815.878   -35120371.692 9 -27345863.780 9  19070818.421    19070823.648
  16556407.846   -43528637.21549 -33895945.65249  16556408.8574   16556413.7014
  18468509.315   -12240246.347 9  -9489254.330 9  18468510.216    18468518.668
  18642258.552   -22223128.38749 -17298025.72349  18642260.6984   18642267.3424
 96  2 11 20 58 59.9820000  0  9 19 29 27  2 18 28 31 12 16
  15164669.494   -48134393.64449 -37477002.92849  15164671.1414   15164675.6314
  19170473.692    -9806198.50359  -7619795.03759  19170476.9994   19170484.8334
  15839323.045   -51246321.52149 -39556961.87049  15839324.3834   15839329.1284
  17133236.438   -29603914.89249 -22648039.88149  17133236.7954   17133242.7064
  16415508.988   -32814912.33849 -25270953.39149  16415510.5724   16415515.7904
  19072285.095   -35112658.364 9 -27339853.403 9  19072286.053    19072291.590
  16548603.192   -43569649.19249 -33927903.01749  16548604.4154   16548609.2684
  18442294.270   -12378007.678 9  -9596600.684 9  18442294.806    18442302.987
  18629750.564   -22288877.82949 -17349259.07249  18629749.1174   18629755.4704
 96  2 11 20 59 29.9820000  0  9 19 29 27  2 18 28 31 12 16
  15151610.449   -48203021.81849 -37530479.42749  15151611.5004   15151616.3264
  19177733.351    -9768048.25159  -7590067.65559  19177736.4444   19177744.1084
  15815640.414   -51370774.41249 -39653938.12849  15815641.9074   15815646.5514
  17108184.660   -29735555.87349 -22750617.23649  17108186.2354   17108192.2644
  16418290.955   -32800291.62849 -25259560.66649  16418292.4874   16418297.7104
  19073819.704   -35104587.658 9 -27333564.547 9  19073821.798    19073827.387
  16540908.336   -43610082.15749 -33959409.20049  16540910.0824   16540915.4134
  18416100.012   -12515644.386 9  -9703849.948 9  18416102.869    18416111.928
  18617333.355   -22354133.86349 -17400107.92349  18617331.3694   18617338.7314
 96  2 11 20 59 59.9820000  0  9 19 29 27  2 18 28 31 12 16
  15138600.140   -48271388.86949 -37583752.45149  15138601.7794   15138606.6344
  19185016.330    -9729790.00759  -7560256.17759  19185017.9264   19185024.0084
  15791991.812   -51495050.35849 -39750776.51049  15791992.8184   15791997.5674
  17083183.269   -29866941.57449 -22852995.67049  17083184.0364   17083190.8204
  16421138.908   -32785326.67249 -25247899.69049  16421140.2444   16421145.5114
  19075425.618   -35096148.295 9 -27326988.416 9  19075427.606    19075432.863
  16533327.500   -43649925.95449 -33990456.29349  16533328.0304   16533332.9594
  18389935.201   -12653142.996 9  -9810991.580 9  18389938.172    18389946.386
  18605004.668   -22418893.46349 -17450569.97149  18605008.6754   18605014.5164
 96  2 11 21  0 29.9820000  0  9 19 29 27  2 18 28 31 12 16
  15125628.651   -48339553.42249 -37636867.69149  15125630.2444   15125635.1894
  19192304.854    -9691483.38659  -7530406.96259  19192308.0124   19192315.4974
  15768363.466   -51619213.50749 -39847527.00049  15768365.5924   15768370.2034
  17058217.572   -29998132.87149 -22955222.62149  17058218.9964   17058225.9194
  16424038.897   -32770082.79549 -25236021.36549  16424040.9304   16424046.7234
  19077094.103   -35087394.061 9 -27320166.931 9  19077093.891    19077098.471
  16525849.863   -43689214.07349 -34021070.39549  16525851.6744   16525856.8794
  18363788.120   -12790555.303 9  -9918065.977 9  18363789.140    18363797.381
  18592766.426   -22483214.31249 -17500690.11849  18592768.2964   18592775.8644
 96  2 11 21  0 59.9820000  0  9 19 29 27  2 18 28 31 12 16
  15112710.386   -48407440.33749 -37689766.58449  15112711.8594   15112716.7394
  19199619.333    -9653053.99349  -7500462.08959  19199620.7134   19199626.0034
  15744772.071   -51743193.11149 -39944134.46549  15744773.0474   15744777.5484
  17033304.219   -30129058.41349 -23057242.48149  17033305.0204   17033310.9524
  16427009.796   -32754478.95349 -25223862.56049  16427010.7044   16427015.7654
  19078832.094   -35078253.715 9 -27313044.577 9  19078833.205    19078837.780
  16518493.099   -43727874.60149 -34051195.46649  16518495.0434   16518500.3494
  18337667.701   -12927808.035 9 -10025016.025 9  18337671.405    18337679.836
  18580626.861   -22547013.96249 -17550404.13349  18580627.7994   18580634.8874
 96  2 11 21  1 29.9820000  0  9 19 29 27  2 18 28 31 12 16
  15099840.876   -48475069.20149 -37742464.39749  15099842.5694   15099847.5284
  19206952.427    -9614527.20349  -7470441.35649  19206951.4774   19206957.3884
  15721210.744   -51867005.34349 -40040611.50949  15721212.1934   15721216.8994
  17008438.450   -30259726.79949 -23159061.96849  17008439.6594   17008446.0214
  16430044.891   -32738526.28649 -25211431.94449  16430046.2194   16430051.2504
  19080640.923   -35068753.084 9 -27305641.481 9  19080640.759    19080645.884
  16511252.926   -43765929.02849 -34080848.24449  16511253.5454   16511258.3774
  18311576.822   -13064924.559 9 -10131859.938 9  18311578.333    18311586.859
  18568582.613   -22610311.62149 -17599726.97949  18568581.7854   18568590.0414
 96  2 11 21  1 59.9820000  0  9 19 29 27  2 18 28 31 12 16
  15087020.996   -48542441.18849 -37794962.04649  15087021.8954   15087027.0124
  19214295.159    -9575932.92849  -7440368.00249  19214297.2424   19214303.2304
  15697680.100   -51990655.94949 -40136962.61549  15697682.1044   15697686.8434
  16983617.089   -30390158.76249 -23260697.22049  16983619.1994   16983625.1824
  16433143.338   -32722241.93149 -25198742.87849  16433144.8444   16433150.3564
  19082509.725   -35058917.782 9 -27297977.589 9  19082512.374    19082517.683
  16504123.010   -43803393.78549 -34110041.54349  16504124.5014   16504129.2154
  18285506.596   -13201928.397 9 -10238616.038 9  18285507.360    18285515.876
  18556631.506   -22673111.16949 -17648661.70449  18556632.1484   18556638.9684
 96  2 11 21  2 29.9820000  0  9 19 29 27  2 18 28 31 12 16
  15074249.279   -48609552.60949 -37847256.65249  15074250.9894   15074256.0214
  19221648.588    -9537284.44349  -7410252.41149  19221649.2344   19221659.6724
  15674181.357   -52114145.49849 -40233188.21249  15674182.9504   15674187.6344
  16958840.925   -30520360.63749 -23362153.18849  16958842.8454   16958848.5924
  16436305.620   -32705625.94349 -25185795.40049  16436306.9014   16436312.3754
  19084444.430   -35048762.651 9 -27290064.482 9  19084445.047    19084449.954
  16497102.462   -43840292.98149 -34138794.14649  16497102.9514   16497107.6534
  18259452.436   -13338832.407 9 -10345294.350 9  18259455.444    18259463.925
  18544775.046   -22735418.28149 -17697212.69849  18544774.8584   18544781.8994
 96  2 11 21  2 59.9820000  0  9 19 29 27  2 18 28 31 12 16
  15061523.101   -48676431.26749 -37899369.88849  15061524.6974   15061529.4054
  19229010.336    -9498596.89149  -7380106.37849  19229011.9164   19229021.1824
  15650709.181   -52237492.63849 -40329302.84449  15650710.8154   15650715.4114
  16934105.093   -30650352.38049 -23463445.40949  16934106.0694   16934112.1294
  16439526.069   -32688703.56149 -25172609.17049  16439527.3114   16439532.2944
  19086431.802   -35038317.161 9 -27281925.130 9  19086432.150    19086437.665
  16490177.772   -43876672.27349 -34167141.62849  16490179.7134   16490184.1784
  18233415.545   -13475663.898 9 -10451916.163 9  18233417.549    18233425.806
  18533006.669   -22797252.79149 -17745395.43249  18533008.4584   18533015.8174
 96  2 11 21  3 29.9820000  0  9 19 29 27  2 18 28 31 12 16
  15048845.372   -48743053.24849 -37951283.11349  15048847.0794   15048851.8184
  19236382.466    -9459848.54949  -7349912.99149  19236385.7234   19236394.2974
  15627271.111   -52360661.93949 -40425278.90349  15627272.4824   15627277.3554
  16909414.153   -30780104.70949 -23564551.07849  16909415.2014   16909421.3164
  16442809.028   -32671451.17749 -25159165.79449  16442810.3144   16442815.5664
  19088477.978   -35027554.054 9 -27273538.297 9  19088481.111    19088485.909
  16483358.444   -43912509.44349 -34195066.69249  16483359.9644   16483364.9524
  18207396.432   -13612393.404 9 -10558458.511 9  18207398.100    18207406.868
  18521332.608   -22858585.40449 -17793187.07749  18521337.5274   18521345.7374
 96  2 11 21  3 59.9820000  0  9 19 29 27  2 18 28 31 12 16
  15036219.015   -48809404.18149 -38002985.13449  15036220.5624   15036225.4854
  19243774.640    -9421026.95349  -7319662.51249  19243774.1034   19243780.8044
  15603872.194   -52483621.00549 -40521091.13549  15603874.2434   15603878.7294
  16884772.216   -30909601.67249 -23665457.76049  16884772.6404   16884778.4394
  16446159.036   -32653844.62049 -25145446.43149  16446160.9084   16446166.0874
  19090593.455   -35016446.475 9 -27264883.027 9  19090594.760    19090599.718
  16476647.810   -43947778.04549 -34222548.70849  16476648.7344   16476653.3104
  18181402.737   -13748991.997 9 -10664898.833 9  18181404.154    18181412.402
  18509764.146   -22919396.37649 -17840572.24449  18509765.8904   18509773.6844
 96  2 11 21  4 29.9820000  0  8 19 27  2 18 28 31 12 16
  15023642.661   -48875493.45149 -38054483.26249  15023644.2364   15023649.0314
  15580515.028   -52606369.02049 -40616738.91849  15580516.0694   15580520.5354
  16860176.254   -31038847.71649 -23766168.92249  16860177.4264   16860184.0794
  16449576.654   -32635888.62049 -25131454.79449  16449577.3544   16449582.6634
  19092773.912   -35004988.231 9 -27255954.536 9  19092774.604    19092779.910
  16470044.399   -43982475.87849 -34249585.97649  16470045.8894   16470050.4774
  18155434.946   -13885451.284 9 -10771230.610 9  18155436.913    18155444.445
  18498288.900   -22979697.92049 -17887560.47749  18498290.0664   18498297.0934
 96  2 11 21  4 59.9820000  0  8 19 27  2 18 28 31 12 16
  15011113.445   -48941335.66849 -38105788.88049  15011114.7944   15011119.7684
  15557194.653   -52728915.24449 -40712229.45849  15557196.2544   15557200.7544
  16835623.867   -31167868.04749 -23866704.20549  16835625.8494   16835631.9184
  16453056.913   -32617591.05049 -25117196.98849  16453059.6764   16453065.0224
  19095019.132   -34993188.093 9 -27246759.617 9  19095020.849    19095025.806
  16463550.424   -44016600.59049 -34276176.65349  16463551.7204   16463556.4834
  18129493.460   -14021777.683 9 -10877458.842 9  18129495.077    18129503.185
  18486909.100   -23039497.27749 -17934157.38749  18486910.9294   18486917.9084
 96  2 11 21  5 29.9820000  0  8 19 27  2 18 28 31 12 16
  14998629.724   -49006938.07649 -38156907.63149  14998631.2304   14998636.1094
  15533909.236   -52851276.01749 -40807575.49249  15533911.3414   15533916.1444
  16811112.704   -31296676.26349 -23967074.20149  16811114.4244   16811120.5144
  16456601.356   -32598971.12049 -25102687.98449  16456602.8484   16456608.2164
  19097328.279   -34981061.411 9 -27237310.268 9  19097328.582    19097332.802
  16457166.747   -44050153.48949 -34302321.75949  16457167.3964   16457171.9724
  18103572.982   -14157984.477 9 -10983593.878 9  18103575.870    18103583.963
  18475622.805   -23098813.42449 -17980377.77949  18475624.6154   18475631.1814
 96  2 11 21  5 59.9820000  0  8 19 27  2 18 28 31 12 16
  14986193.668   -49072288.96149 -38207830.39149  14986195.3204   14986200.2304
  15510659.356   -52973458.98449 -40902782.97949  15510660.9474   15510665.5354
  16786643.446   -31425266.51749 -24067274.35949  16786644.7874   16786650.6344
  16460204.351   -32580038.50849 -25087935.34549  16460205.6204   16460210.9414
  19099696.201   -34968609.582 9 -27227607.585 9  19099697.640    19099702.700
  16450891.141   -44083127.22349 -34328015.57749  16450892.6794   16450896.9334
  18077676.881   -14294070.992 9 -11089635.202 9  18077679.117    18077687.028
  18464424.133   -23157649.43649 -18026224.02349  18464426.9904   18464434.5734
 96  2 11 21  6 29.9820000  0  8 19 27  2 18 28 31 12 16
  14973809.824   -49137366.28949 -38258539.98649  14973811.4244   14973816.3304
  15487442.863   -53095462.14949 -40997850.35549  15487444.4874   15487449.2514
  16762217.079   -31553623.24349 -24167292.54949  16762218.6234   16762225.3824
  16463865.464   -32560800.78849 -25072944.95749  16463866.4504   16463871.6334
  19102128.660   -34955836.632 9 -27217654.669 9  19102128.436    19102132.401
  16444727.836   -44115512.79249 -34353251.07749  16444729.8724   16444734.2254
  18051802.686   -14430038.945 9 -11195584.147 9  18051805.113    18051813.696
  18453322.731   -23216002.29549 -18071693.79149  18453322.9934   18453329.3874
 96  2 11 21  6 59.9810000  0  8 19 27  2 18 28 31 12 16
  14961479.417   -49202163.87449 -38309031.60249  14961480.9584   14961485.8054
  15464262.750   -53217274.12449 -41092768.75949  15464264.3804   15464268.9404
  16737841.885   -31681720.48049 -24267108.54749  16737843.0144   16737849.0274
  16467584.785   -32541250.66149 -25057711.12849  16467586.9014   16467592.3504
  19104617.805   -34942747.760 9 -27207455.573 9  19104618.952    19104623.224
  16438681.492   -44147292.50249 -34378014.47649  16438682.4054   16438686.7064
  18025954.281   -14565886.160 9 -11301439.019 9  18025954.467    18025962.272
  18442309.021   -23273863.95549 -18116780.80849  18442312.9724   18442319.7904
 96  2 11 21  7 29.9810000  0  8 19 27  2 18 28 31 12 16
  14949204.511   -49266669.26649 -38359295.53449  14949205.9164   14949210.8824
  15441123.258   -53338873.86049 -41187521.78249  15441124.7904   15441129.2914
  16713521.226   -31809529.31649 -24366699.81049  16713521.9704   16713527.7124
  16471367.066   -32521379.58449 -25042227.21649  16471368.2914   16471373.9794
  19107170.714   -34929330.538 9 -27197000.642 9  19107172.468    19107176.656
  16432749.807   -44178461.55549 -34402302.04549  16432751.1944   16432755.6204
  18000127.098   -14701608.197 9 -11407196.338 9  18000127.485    18000135.108
  18431396.154   -23331238.25149 -18161488.06049  18431395.4244   18431401.8314
 96  2 11 21  7 59.9810000  0  8 19 27  2 18 28 31 12 16
  14936987.820   -49330868.51249 -38409320.91049  14936989.3554   14936993.8994
  15418025.915   -53460250.24449 -41282100.76649  15418027.6404   15418032.2914
  16689255.936   -31937044.98149 -24466062.63149  16689256.2674   16689262.1814
  16475210.108   -32501181.90249 -25026488.79949  16475211.3414   16475216.9914
  19109787.022   -34915581.958 9 -27186287.516 9  19109788.581    19109793.599
  16426935.605   -44209012.72749 -34426108.14649  16426937.2024   16426942.5754
  17974324.705   -14837194.763 9 -11512848.100 9  17974325.668    17974334.180
  18420570.988   -23388122.18749 -18205813.21449  18420570.6584   18420576.7354
 96  2 11 21  8 29.9810000  0  8 19 27  2 18 28 31 12 16
  14924826.436   -49394776.62049 -38459119.43049  14924828.1434   14924832.8394
  15394970.363   -53581410.65649 -41376511.45949  15394971.3894   15394976.0064
  16665042.403   -32064282.50649 -24565208.72549  16665043.6464   16665049.9274
  16479116.529   -32480655.48049 -25010494.21449  16479117.5754   16479123.4484
  19112464.628   -34901515.528 9 -27175326.699 9  19112465.995    19112470.537
  16421237.262   -44238962.61349 -34449445.71949  16421237.9754   16421242.5484
  17948545.519   -14972657.079 9 -11618403.041 9  17948548.111    17948556.088
  18409837.366   -23444527.58649 -18249765.49149  18409836.8584   18409842.8994
 96  2 11 21  8 59.9810000  0  8 19 27  2 18 28 31 12 16
  14912716.973   -49458414.45249 -38508707.34149  14912718.2014   14912722.9174
  15371953.533   -53702361.49749 -41470758.84749  15371955.2524   15371959.8294
  16640879.496   -32191258.39549 -24664150.93849  16640881.2864   16640886.8764
  16483084.670   -32459802.84849 -24994245.43149  16483086.0144   16483091.7174
  19115201.594   -34887134.391 9 -27164120.614 9  19115202.863    19115205.945
  16415645.760   -44268340.69449 -34472337.71949  16415647.3924   16415652.0644
  17922791.411   -15107996.441 9 -11723862.176 9  17922793.902    17922801.493
  18399193.230   -23500451.26749 -18293342.38049  18399195.3974   18399201.7024
 96  2 11 21  9 29.9810000  0  8 19 27  2 18 28 31 12 16
  14900656.181   -49521791.90749 -38558092.36349  14900657.6114   14900662.3974
  15348974.054   -53823119.37649 -41564855.88249  15348975.7154   15348980.4414
  16616760.566   -32318006.21649 -24762915.43749  16616761.9164   16616767.6534
  16487112.113   -32438639.68449 -24977754.69049  16487113.3794   16487118.1314
  19117994.712   -34872449.060 9 -27152677.546 9  19117996.340    19118002.108
  16410157.483   -44297182.49549 -34494811.84549  16410159.1064   16410163.6104
  17897058.634   -15243221.071 9 -11829231.907 9  17897061.289    17897069.026
  18388641.078   -23555904.70849 -18336552.87449  18388642.0634   18388649.4934
 96  2 11 21  9 59.9810000  0  8 19 27  2 18 28 31 12 16
  14888644.622   -49584912.07949 -38607276.90349  14888646.2684   14888651.0674
  15326027.427   -53943702.20049 -41658816.51149  15326029.7004   15326034.4134
  16592682.585   -32444540.35249 -24861513.42949  16592683.1204   16592688.8534
  16491197.003   -32417170.25049 -24961025.28949  16491198.9374   16491204.0114
  19120848.572   -34857465.550 9 -27141002.084 9  19120848.445    19120852.012
  16404769.905   -44325496.13149 -34516874.41149  16404771.3024   16404775.7094
  17871348.661   -15378334.549 9 -11934515.031 9  17871350.144    17871357.898
  18378180.216   -23610877.95349 -18379389.18149  18378181.9584   18378187.8874
 96  2 11 21 10 29.9810000  0  8 19 27  2 18 28 31 12 16
  14876680.305   -49647784.09849 -38656268.07949  14876682.2044   14876686.7264
  15303117.097   -54064099.87049 -41752632.86549  15303118.9244   15303123.3464
  16568645.660   -32570849.70949 -24959936.27349  16568646.9564   16568652.8034
  16495341.611   -32395394.90049 -24944057.51349  16495342.4244   16495347.5554
  19123754.532   -34842184.078 9 -27129094.438 9  19123755.961    19123760.593
  16399480.474   -44353293.40749 -34538534.60949  16399481.5834   16399486.1364
  17845656.451   -15513334.890 9 -12039709.999 9  17845660.021    17845667.701
  18367812.152   -23665362.87049 -18421844.98449  18367812.6894   18367820.2154
 96  2 11 21 10 59.9810000  0  8 19 27  2 18 28 31 12 16
  14864766.057   -49710395.40149 -38705056.10249  14864767.6574   14864772.6134
  15280244.741   -54184293.44349 -41846290.18249  15280246.7614   15280251.3304
  16544655.312   -32696920.68349 -25058173.36449  16544656.6894   16544662.7134
  16499542.125   -32373315.78749 -24926853.03849  16499543.9844   16499549.4754
  19126720.468   -34826595.690 9 -27116947.625 9  19126722.107    19126726.885
  16394289.743   -44380571.23349 -34559790.05249  16394291.0984   16394295.9024
  17819991.125   -15648210.740 9 -12144807.959 9  17819993.849    17820001.702
  18357536.056   -23719356.58049 -18463918.00749  18357537.6954   18357545.8194
 96  2 11 21 11 29.9810000  0  8 19 27  2 18 28 31 12 16
  14852903.120   -49772735.66349 -38753632.92149  14852904.6204   14852909.2544
  15257414.133   -54304271.24749 -41939779.36749  15257415.6504   15257420.4534
  16520711.570   -32822748.97749 -25156221.35249  16520712.2994   16520718.3584
  16503801.530   -32350935.41649 -24909413.81349  16503802.9434   16503807.9554
  19129746.486   -34810704.593 9 -27104564.942 9  19129747.106    19129751.078
  16389201.667   -44407312.44349 -34580627.35049  16389202.1034   16389207.3234
  17794348.409   -15782964.180 9 -12249810.548 9  17794351.387    17794358.653
  18347352.521   -23772875.57849 -18505621.13449  18347354.0434   18347359.8024
 96  2 11 21 11 59.9810000  0  7 19 27  2 18 31 12 16
  14841092.076   -49834803.04249 -38801997.10449  14841093.6894   14841098.4724
  15234626.534   -54424023.06049 -42033092.45349  15234627.7694   15234632.4744
  16496813.565   -32948328.72249 -25254075.66149  16496815.5404   16496821.4444
  16508117.088   -32328261.29149 -24891745.69249  16508117.7444   16508123.0954
  16384218.550   -44433491.83749 -34601026.87349  16384220.4524   16384225.2684
  17768729.699   -15917595.464 9 -12354717.949 9  17768731.569    17768739.226
  18337262.176   -23825917.12649 -18546952.22449  18337260.8134   18337266.8574
